     2              OBSERVATION DATA    GPS                 RINEX VERSION / TYPE
teqc 2000Jul20 Karen Wendt 20020311 22:08:17UTC             PGM / RUN BY / DATE
                                                            COMMENT
L2: 1 -> 1; 150 -> 5; 250 -> 9                              COMMENT
L2: 1 -> 1; 150 -> 5; 250 -> 9                              COMMENT
L2: 1 -> 1; 150 -> 5; 250 -> 9                              COMMENT
L2: 1 -> 1; 150 -> 5; 250 -> 9                              COMMENT
L2: 1 -> 1; 150 -> 5; 250 -> 9                              COMMENT
L2: 1 -> 1; 150 -> 5; 250 -> 9                              COMMENT
L2: 1 -> 1; 150 -> 5; 250 -> 9                              COMMENT
L2: 1 -> 1; 150 -> 5; 250 -> 9                              COMMENT
L2: 1 -> 1; 150 -> 5; 250 -> 9                              COMMENT
L2: 1 -> 1; 150 -> 5; 250 -> 9                              COMMENT
L2: 1 -> 1; 150 -> 5; 250 -> 9                              COMMENT
L2: 1 -> 1; 150 -> 5; 250 -> 9                              COMMENT
L2: 1 -> 1; 150 -> 5; 250 -> 9                              COMMENT
L2: 1 -> 1; 150 -> 5; 250 -> 9                              COMMENT
Original Marker Name: grv1 GraveRm1_USGS                    COMMENT
Campaign Name: USGS Mojave 2002                             COMMENT
4-Character Station Name: GRV1                              COMMENT
6-Character Antenna Code: DMRCHT                            COMMENT
Vertical Measurement Point: BCR                             COMMENT
Vertical Offset to Rinex Ref. Point: 0.0348                 COMMENT
Radial Measurement Point: ECF                               COMMENT
Radial Offset to Rinex Ref. Point: 0.1897                   COMMENT
Antenna Height from Field Measurement: 1.4240 m             COMMENT
Additional Antenna Identification Info.:                    COMMENT
Turborogue and Ashtech Choke Ring                           COMMENT
Original XYZ: -2321058.3882 -4658479.7102 3676577.0133      COMMENT
New XYZ position is based on association with SCEC monument COMMENT
E1F4G7F9+0011. Position of that monument is believed to be  COMMENT
valid to within 1 m horizontally; vertical accuracy         COMMENT
should be no worse than 3-times this value.                 COMMENT
                                                            COMMENT
Revised Rinex header created by UCSD GPS archive for        COMMENT
GSAC on 17-Jul-2003 (2003:198) 21:12:39 GMT                 COMMENT
For assistance contact dagnew@ucsd.edu                      COMMENT
or anderson@python.ucsd.edu                                 COMMENT
                                                            COMMENT
GRV 1                                                       MARKER NAME
JMS US GEOLOGICAL SURVEY                                    OBSERVER / AGENCY
LP019992804 ASHTECH Z-XII3 CD00                             REC # / TYPE / VERS
CR619992801 DORNE-MARGOL. TYPE T                            ANT # / TYPE
 -2321072.9470 -4658449.2382  3676559.2209                  APPROX POSITION XYZ
        1.3765        0.0000        0.0000                  ANTENNA: DELTA H/E/N
     1     1     0                                          WAVELENGTH FACT L1/2
     5    C1    L1    L2    P1    P2                        # / TYPES OF OBSERV
    30                                                      INTERVAL
  2002     3     7     0     1    0.000000                  TIME OF FIRST OBS
  2002     3     7    21     1   30.000000                  TIME OF LAST OBS
                                                            END OF HEADER
 02  3  7  0  1  0.0000000  0  9G26G30G23G10G18G 6G17G22G15
  22414262.342   -16997769.93249 -13234086.41246  22414262.369    22414275.314
  23326067.445   -12133891.48549  -9429030.08946  23326067.699    23326082.212
  20550679.816   -20858083.48349 -16234418.66048  20550679.251    20550687.665
  22963696.930   -11171990.68949  -8689705.29946  22963696.064    22963708.883
  22296894.728   -14242765.13949 -10784485.44346  22296894.192    22296905.240
  20273808.346   -29687102.68649 -23114325.79448  20273808.055    20273816.142
  21359948.862   -19175657.53949 -14919940.88847  21359948.326    21359957.887
  23739843.842    -8237687.40649  -6399164.96945  23739842.949    23739858.085
  22038762.028   -14876977.40149 -11343959.58046  22038761.243    22038772.751
 02  3  7  0  1 30.0000000  0  9G26G30G23G10G18G 6G17G22G15
  22402088.422   -17061743.71749 -13283935.91146  22402088.447    22402101.310
  23345552.914   -12031495.18149  -9349240.98545  23345553.199    23345567.761
  20551785.150   -20852274.93449 -16229892.48748  20551784.576    20551792.950
  22982035.809   -11075619.49149  -8614610.99646  22982034.929    22982047.877
  22280038.420   -14331344.33949 -10853507.98646  22280037.911    22280048.959
  20275658.423   -29677380.48149 -23106750.04748  20275658.134    20275666.219
  21352758.342   -19213443.55549 -14949384.47247  21352757.794    21352767.352
  23731605.853    -8280977.47749  -6432897.36845  23731604.922    23731620.219
  22027606.412   -14935599.93949 -11389639.35347  22027605.656    22027617.085
 02  3  7  0  2  0.0000000  0  9G26G30G23G10G18G 6G17G22G15
  22389996.859   -17125284.51149 -13333448.01746  22389996.888    22390009.753
  23365053.586   -11929019.32749  -9269389.90645  23365053.879    23365068.529
  20552983.303   -20845978.47749 -16224986.13048  20552982.716    20552991.074
  23000412.159   -10979051.79049  -8539363.56346  23000411.266    23000424.244
  22263241.924   -14419609.71049 -10922285.98346  22263241.439    22263252.412
  20277596.291   -29667196.68849 -23098814.62748  20277596.022    20277604.129
  21345599.256   -19251064.34549 -14978699.31047  21345598.710    21345608.320
  23723464.806    -8323758.24249  -6466232.92045  23723463.858    23723479.443
  22016482.879   -14994054.32749 -11435188.08847  22016482.127    22016493.390
 02  3  7  0  2 30.0000000  0  9G26G30G23G10G18G 6G17G22G15
  22377987.841   -17188391.78849 -13382622.32346  22377987.852    22378000.687
  23384568.365   -11826469.38349  -9189481.08745  23384568.650    23384583.455
  20554273.626   -20839197.74649 -16219702.41948  20554273.043    20554281.414
  23018824.881   -10882292.78349  -8463967.07346  23018823.989    23018836.997
  22246505.113   -14507561.86049 -10990819.92746  22246504.596    22246515.465
  20279621.715   -29656553.08649 -23090520.91748  20279621.440    20279629.517
  21338471.107   -19288522.51349 -15007887.42947  21338470.575    21338480.208
  23715420.516    -8366030.72149  -6499172.40545  23715419.557    23715435.313
  22005390.868   -15052343.02349 -11480607.73047  22005390.146    22005401.219
 02  3  7  0  3  0.0000000  0  9G26G30G23G10G18G 6G17G22G15
  22366062.413   -17251059.55949 -13431454.16146  22366062.418    22366075.185
  23404097.223   -11723845.43449  -9109514.61145  23404097.470    23404112.442
  20555656.454   -20831930.77149 -16214039.81948  20555655.866    20555664.241
  23037274.080   -10785342.20449  -8388421.29146  23037273.207    23037286.226
  22229828.561   -14595196.41849 -11059106.37346  22229828.051    22229838.942
  20281735.323   -29645446.04649 -23081866.09048  20281735.047    20281743.095
  21331374.526   -19325815.34949 -15036946.72047  21331373.967    21331383.552
  23707473.722    -8407791.06649  -6531712.84945  23707472.759    23707488.302
  21994330.906   -15110463.24149 -11525896.09947  21994330.152    21994341.261
 02  3  7  0  3 30.0000000  0  9G26G30G23G10G18G 6G17G22G15
  22354220.867   -17313286.17349 -13479942.25346  22354220.875    22354233.576
  23423639.402   -11621151.62749  -9029493.71746  23423639.671    23423654.647
  20557131.353   -20824180.03649 -16208000.26548  20557130.765    20557139.113
  23055759.031   -10688204.05949  -8312729.35546  23055758.121    23055771.105
  22213212.508   -14682512.92449 -11127144.99746  22213212.033    22213222.941
  20283936.989   -29633876.16349 -23072850.61148  20283936.733    20283944.753
  21324309.128   -19362944.27349 -15065878.28847  21324308.538    21324318.058
  23699624.335    -8449039.64549  -6563854.49645  23699623.342    23699638.714
  21983302.602   -15168416.26449 -11571054.19047  21983301.917    21983313.113
 02  3  7  0  4  0.0000000  0  9G26G30G23G10G18G 6G17G22G15
  22342464.322   -17375066.52449 -13528082.59946  22342464.314    22342476.961
  23443194.721   -11518389.04649  -8949419.22245  23443194.884    23443209.868
  20558698.434   -20815944.86949 -16201583.22948  20558697.840    20558706.180
  23074279.477   -10590878.98549  -8236891.77146  23074278.589    23074291.516
  22196657.881   -14769507.66249 -11194932.90346  22196657.384    22196668.221
  20286227.265   -29621840.73249 -23063472.35748  20286226.997    20286235.022
  21317275.231   -19399907.61949 -15094680.83947  21317274.628    21317284.104
  23691872.950    -8489773.34349  -6595594.93645  23691871.968    23691887.137
  21972306.461   -15226200.34449 -11616080.63047  21972305.820    21972317.040
 02  3  7  0  4 30.0000000  0  9G26G30G23G10G18G 6G17G22G15
  22330792.364   -17436402.11249 -13575876.38646  22330792.404    22330805.052
  23462761.590   -11415565.21949  -8869296.99745  23462761.758    23462776.830
  20560356.679   -20807230.76849 -16194793.00748  20560356.082    20560364.413
  23092834.216   -10493373.96849  -8160913.97346  23092833.354    23092846.203
  22180163.920   -14856183.43449 -11262472.26146  22180163.393    22180174.169
  20288605.411   -29609343.46549 -23053734.23848  20288605.151    20288613.179
  21310271.875   -19436710.15249 -15123358.08547  21310271.256    21310280.729
  23684218.753    -8529995.60749  -6626936.85745  23684217.867    23684233.016
  21961341.672   -15283819.87349 -11660978.85947  21961341.000    21961352.259
 02  3  7  0  5  0.0000000  0  9G26G30G23G10G18G 6G17G22G15
  22319206.535   -17497285.70249 -13623317.97046  22319206.515    22319219.144
  23482340.356   -11312678.63749  -8789125.88145  23482340.443    23482355.907
  20562106.546   -20798034.79249 -16187627.30048  20562105.960    20562114.281
  23111423.437   -10395687.42049  -8084794.71846  23111422.565    23111435.411
  22163731.592   -14942534.49649 -11329758.58946  22163731.089    22163741.849
  20291072.392   -29596379.47249 -23043632.43648  20291072.123    20291080.169
  21303299.967   -19473347.62149 -15151906.71047  21303299.363    21303308.791
  23676662.769    -8569701.32449  -6657876.28645  23676661.928    23676677.239
  21950409.084   -15341270.57549 -11705745.53147  21950408.359    21950419.678
 02  3  7  0  5 30.0000000  0  9G26G30G23G10G18G 6G17G22G15
  22307707.155   -17557714.33249 -13670405.03246  22307707.156    22307719.753
  23501930.571   -11209732.38149  -8708908.28545  23501930.681    23501946.307
  20563947.935   -20788358.16249 -16180087.05048  20563947.356    20563955.671
  23130046.725   -10297822.00149  -8008536.07546  23130045.862    23130058.734
  22147361.555   -15028559.10249 -11396790.55046  22147361.071    22147371.706
  20293628.274   -29582948.18849 -23033166.51348  20293628.024    20293636.081
  21296359.425   -19509820.27249 -15180326.90947  21296358.808    21296368.225
  23669205.456    -8608889.43749  -6688412.38845  23669204.571    23669220.055
  21939508.639   -15398552.41249 -11750380.63147  21939507.895    21939519.219
 02  3  7  0  6  0.0000000  0  9G26G30G23G10G18G 6G17G22G15
  22296294.619   -17617686.54049 -13717136.43646  22296294.667    22296307.183
  23521531.187   -11106730.96749  -8628647.70045  23521531.332    23521547.039
  20565880.276   -20778203.51149 -16172174.32448  20565879.698    20565888.034
  23148703.183   -10199781.89749  -7932141.33246  23148702.367    23148715.332
  22131053.658   -15114257.30849 -11463568.18346  22131053.161    22131063.639
  20296272.938   -29569050.45849 -23022337.12148  20296272.683    20296280.744
  21289449.981   -19546129.84449 -15208620.03047  21289449.351    21289458.729
  23661846.684    -8647560.35349  -6718545.49845  23661845.775    23661861.051
  21928640.188   -15455666.72949 -11794885.20047  21928639.409    21928650.559
 02  3  7  0  6 30.0000000  0  9G26G30G23G10G18G 6G17G22G15
  22284969.247   -17677200.63249 -13763510.87046  22284969.317    22284981.845
  23541141.537   -11003678.36149  -8548347.21645  23541141.796    23541157.410
  20567903.135   -20767573.32549 -16163891.04948  20567902.547    20567910.880
  23167392.192   -10101570.99749  -7855613.49546  23167391.338    23167404.467
  22114807.823   -15199628.84949 -11530091.25847  22114807.328    22114817.802
  20299006.237   -29554687.00849 -23011144.83648  20299005.991    20299014.006
  21282571.265   -19582277.60449 -15236787.06747  21282570.613    21282580.007
  23654586.379    -8685714.48649  -6748275.91445  23654585.381    23654600.210
  21917803.283   -15512615.02149 -11839260.40347  21917802.471    21917813.490
 02  3  7  0  7  0.0000000  0  9G26G30G23G10G18G 6G17G22G15
  22273732.113   -17736251.21549 -13809524.12646  22273732.207    22273744.686
  23560761.649   -10900575.13049  -8468007.28146  23560761.883    23560777.509
  20570016.706   -20756466.37649 -16155236.26748  20570016.114    20570024.404
  23186113.701   -10003189.62049  -7778952.82946  23186112.808    23186125.940
  22098624.854   -15284669.70249 -11596356.65547  22098624.371    22098634.866
  20301828.764   -29539854.65949 -22999587.17848  20301828.517    20301836.539
  21275723.759   -19618261.28949 -15264826.24847  21275723.124    21275732.543
  23647424.786    -8723348.55549  -6777601.08145  23647423.758    23647438.496
  21906998.413   -15569394.80449 -11883504.29347  21906997.621    21907008.547
 02  3  7  0  7 30.0000000  0  9G26G30G23G10G18G 6G17G22G15
  22262583.830   -17794835.37249 -13855173.93946  22262583.894    22262596.270
  23580390.956   -10797423.99749  -8387630.03646  23580391.114    23580406.857
  20572220.761   -20744883.97249 -16146211.00848  20572220.168    20572228.449
  23204867.153    -9904640.23949  -7702161.25346  23204866.285    23204879.432
  22082505.255   -15369378.03949 -11662362.96047  22082504.750    22082515.215
  20304740.599   -29524552.91849 -22987663.76148  20304740.351    20304748.387
  21268907.329   -19654081.31649 -15292737.91047  21268906.702    21268916.157
  23640362.101    -8760461.57549  -6806520.22845  23640361.158    23640376.107
  21896225.577   -15626006.36149 -11927617.10547  21896224.769    21896235.655
 02  3  7  0  8  0.0000000  0  9G26G30G23G10G18G 6G17G22G15
  22251524.517   -17852951.53449 -13900459.07346  22251524.580    22251536.944
  23600028.481   -10694229.40749  -8307218.91646  23600028.600    23600044.498
  20574514.811   -20732828.53049 -16136817.13948  20574514.220    20574522.529
  23223651.808    -9805926.77649  -7625241.81846  23223650.911    23223664.069
  22066448.966   -15453753.68949 -11728110.03047  22066448.466    22066458.863
  20307741.607   -29508782.49149 -22975375.13448  20307741.353    20307749.368
  21262121.838   -19689738.83349 -15320522.93747  21262121.240    21262130.666
  23633398.698    -8797053.76249  -6835033.56045  23633397.789    23633412.944
  21885484.511   -15682450.90349 -11971599.76647  21885483.675    21885494.534
 02  3  7  0  8 30.0000000  0  9G26G30G23G10G18G 6G17G22G15
  22240554.995   -17910596.26249 -13945376.86246  22240555.034    22240567.333
  23619673.660   -10590993.80049  -8226775.84146  23619673.850    23619689.772
  20576898.754   -20720300.93949 -16127055.36948  20576898.170    20576906.452
  23242467.277    -9707051.19549  -7548196.07246  23242466.385    23242479.601
  22050456.353   -15537794.48249 -11793596.18247  22050455.877    22050466.247
  20310832.036   -29492542.28049 -22962720.44448  20310831.774    20310839.779
  21255367.334   -19725233.61749 -15348181.16847  21255366.746    21255376.169
  23626534.762    -8833123.99349  -6863140.14645  23626533.741    23626549.149
  21874775.268   -15738727.91049 -12015451.88547  21874774.399    21874785.259
 02  3  7  0  9  0.0000000  0  9G26G30G23G10G18G 6G17G22G15
  22229676.003   -17967765.08849 -13989923.80846  22229676.026    22229688.271
  23639326.529   -10487718.39849  -8146301.76646  23639326.734    23639342.619
  20579372.564   -20707300.94949 -16116925.48748  20579371.987    20579380.219
  23261313.482    -9608014.26949  -7471024.58046  23261312.609    23261325.871
  22034528.045   -15621497.45949 -11858819.09647  22034527.564    22034537.878
  20314012.272   -29475830.21949 -22949698.06748  20314012.002    20314020.035
  21248644.103   -19760564.17149 -15375711.42147  21248643.540    21248652.929
  23619770.715    -8868669.90049  -6890838.17345  23619769.604    23619784.860
  21864098.173   -15794835.63049 -12059172.07247  21864097.321    21864108.198
 02  3  7  0  9 30.0000000  0  9G26G30G23G10G18G 6G17G22G15
  22218887.320   -18024459.44749 -14034101.05046  22218887.335    22218899.516
  23658985.747   -10384410.16249  -8065802.11545  23658985.874    23659001.747
  20581935.188   -20693834.11149 -16106431.83048  20581934.603    20581942.855
  23280189.043    -9508822.94049  -7393732.79146  23280188.201    23280201.510
  22018663.543   -15704865.40649 -11923780.96147  22018663.037    22018673.304
  20317281.576   -29458650.02949 -22936310.92548  20317281.309    20317289.330
  21241951.276   -19795734.88449 -15403117.12347  21241950.714    21241960.074
  23613105.607    -8903694.76049  -6918130.20645  23613104.518    23613119.501
  21853452.369   -15850778.46649 -12102763.78847  21853451.531    21853462.517
 02  3  7  0 10  0.0000000  0  9G26G30G23G10G18G 6G17G22G15
  22208190.462   -18080671.14849 -14077902.18946  22208190.420    22208202.575
  23678651.608   -10281066.93449  -7985275.20245  23678651.690    23678667.515
  20584587.423   -20679896.48749 -16095571.32648  20584586.837    20584595.102
  23299094.558    -9409474.52149  -7316318.58946  23299093.723    23299107.088
  22002864.100   -15787891.13949 -11988476.16547  22002863.615    22002873.872
  20320641.055   -29440995.84949 -22922554.44548  20320640.783    20320648.817
  21235289.837   -19830740.72449 -15430394.35147  21235289.295    21235298.635
  23606540.683    -8938192.47449  -6945011.46745  23606539.773    23606554.713
  21842838.962   -15906551.22549 -12146222.96947  21842838.188    21842849.231
 02  3  7  0 10 30.0000000  0  9G26G30G23G10G18G 6G17G22G15
  22197585.322   -18136400.68149 -14121327.61946  22197585.282    22197597.400
  23698322.740   -10177694.73449  -7904725.70345  23698322.932    23698338.789
  20587328.409   -20665492.46149 -16084347.38848  20587327.839    20587336.101
  23318028.903    -9309974.74949  -7238786.45646  23318028.045    23318041.569
  21987129.466   -15870576.55049 -12052906.18547  21987128.988    21987139.218
  20324090.211   -29422870.47049 -22908430.78748  20324089.955    20324097.962
  21228659.150   -19865584.93449 -15457545.63447  21228658.596    21228667.929
  23600075.685    -8972165.36549  -6971483.76345  23600074.928    23600089.922
  21832257.497   -15962156.80549 -12189551.88447  21832256.733    21832267.739
 02  3  7  0 11  0.0000000  0  9G26G30G23G10G18G 6G17G22G15
  22187072.765   -18191644.09349 -14164374.24846  22187072.689    22187084.807
  23717999.050   -10074295.34049  -7824155.00145  23717999.340    23718015.318
  20590158.032   -20650622.51949 -16072760.39148  20590157.441    20590165.724
  23336991.744    -9210325.21949  -7161137.61846  23336990.877    23337004.500
  21971460.099   -15952919.18149 -12117069.11647  21971459.605    21971469.731
  20327629.340   -29404272.46749 -22893938.84648  20327629.065    20327637.073
  21222059.375   -19900266.75549 -15484570.37547  21222058.825    21222068.151
  23593711.130    -9005611.95649  -6997545.94445  23593710.294    23593725.307
  21821708.079   -16017594.28949 -12232749.81047  21821707.316    21821718.282
 02  3  7  0 11 30.0000000  0  9G26G30G23G10G18G 6G17G22G15
  22176652.838   -18246400.38149 -14207041.32046  22176652.803    22176664.846
  23737679.807    -9970873.40449  -7743566.74945  23737680.065    23737696.162
  20593075.763   -20635289.67949 -16060812.70047  20593075.181    20593083.432
  23355982.190    -9110530.23249  -7083375.44146  23355981.321    23355994.917
  21955855.979   -16034918.88949 -12180964.83247  21955855.488    21955865.546
  20331258.150   -29385202.81849 -22879079.39548  20331257.883    20331265.902
  21215490.220   -19934787.68349 -15511469.75047  21215489.672    21215499.017
  23587446.564    -9038533.05749  -7023198.64645  23587445.581    23587460.611
  21811190.344   -16072865.50849 -12275818.17947  21811189.548    21811200.502
 02  3  7  0 12  0.0000000  0  9G26G30G23G10G18G 6G17G22G15
  22166326.589   -18300664.63949 -14249324.99846  22166326.532    22166338.455
  23757364.800    -9867429.60249  -7662961.44945  23757365.018    23757381.008
  20596081.712   -20619493.29849 -16048503.80347  20596081.120    20596089.322
  23375000.303    -9010590.13349  -7005500.19646  23374999.395    23375012.991
  21940317.687   -16116572.38449 -12244590.75847  21940317.155    21940327.244
  20334977.251   -29365659.07249 -22863850.51248  20334976.978    20334984.971
  21208952.030   -19969146.11749 -15538242.50347  21208951.448    21208960.794
  23581282.473    -9070925.79449  -7048439.64345  23581281.429    23581296.280
  21800704.636   -16127968.33549 -12318755.33447  21800703.837    21800714.724
 02  3  7  0 12 30.0000000  0  9G26G30G23G10G18G 6G17G22G15
  22156094.476   -18354433.47849 -14291222.64046  22156094.455    22156106.460
  23777053.444    -9763966.37549  -7582341.02445  23777053.607    23777069.552
  20599175.737   -20603234.01449 -16035834.20547  20599175.148    20599183.368
  23394045.600    -8910506.84249  -6927513.36845  23394044.710    23394058.270
  21924845.644   -16197877.45449 -12307945.19747  21924845.126    21924855.252
  20338786.736   -29345640.03049 -22848251.27848  20338786.461    20338794.474
  21202444.895   -20003341.32349 -15564888.06847  21202444.303    21202453.616
  23575218.927    -9102788.92749  -7073267.95245  23575217.917    23575232.603
  21790251.090   -16182902.25749 -12361560.87847  21790250.254    21790261.009
 02  3  7  0 13  0.0000000  0 10G26G21G30G23G10G18G 6G17G22G15
  22145956.788   -18407706.97249 -14332734.29846  22145956.803    22145968.735
  24865513.837    -1620873.44959  -1238376.01945  24865513.195    24865535.771
  23796744.562    -9660488.96649  -7501709.52045  23796744.886    23796760.743
  20602357.004   -20586516.11249 -16022807.24048  20602356.415    20602364.647
  23413117.197    -8810285.45249  -6849418.93645  23413116.317    23413129.826
  21909439.743   -16278835.43649 -12371029.18247  21909439.221    21909449.244
  20342686.206   -29325148.22449 -22832283.64348  20342685.932    20342693.938
  21195968.266   -20037376.30149 -15591408.77247  21195967.657    21195976.922
  23569255.728    -9134124.54149  -7097685.21645  23569254.835    23569269.548
  21779829.059   -16237669.99049 -12404236.92647  21779828.189    21779838.875
 02  3  7  0 13 30.0000000  0 10G26G21G30G23G10G18G 6G17G22G15
  22135913.432   -18460484.58949 -14373859.57446  22135913.416    22135925.300
  24847689.583    -1714537.60049  -1311360.63545  24847689.084    24847711.958
  23816437.433    -9557002.89949  -7421071.28345  23816437.802    23816453.872
  20605624.879   -20569343.27449 -16009425.78347  20605624.283    20605632.523
  23432214.130    -8709930.88749  -6771220.72845  23432213.256    23432226.725
  21894099.747   -16359447.04149 -12433843.26547  21894099.221    21894109.166
  20346675.325   -29304185.32749 -22815948.93048  20346675.040    20346683.064
  21189521.709   -20071253.33749 -15617806.41147  21189521.070    21189530.328
  23563392.724    -9164934.21449  -7121692.64445  23563391.834    23563406.619
  21769438.134   -16292273.83749 -12446785.26947  21769437.292    21769448.007
 02  3  7  0 14  0.0000000  0 10G26G21G30G23G10G18G 6G17G22G15
  22125966.198   -18512757.01549 -14414591.20046  22125966.192    22125978.066
  24829892.484    -1808061.21449  -1384235.75645  24829891.924    24829914.715
  23836132.990    -9453504.17449  -7340423.19345  23836133.268    23836149.388
  20608980.250   -20551710.36849 -15995685.83647  20608979.660    20608987.904
  23451337.225    -8609439.27649  -6692915.73345  23451336.348    23451349.835
  21878827.167   -16439704.32549 -12496381.26347  21878826.654    21878836.505
  20350755.366   -29282744.47849 -22799241.78848  20350755.105    20350763.133
  21183106.381   -20104965.85449 -15644075.85147  21183105.741    21183115.012
  23557631.211    -9195210.77949  -7145284.67745  23557630.352    23557645.230
  21759079.601   -16346707.03949 -12489200.64147  21759078.813    21759089.577
 02  3  7  0 14 30.0000000  0 10G26G21G30G23G10G18G 6G17G22G15
  22116115.261   -18564523.20349 -14454928.34546  22116115.243    22116127.158
  24812122.332    -1901444.43449  -1457001.44645  24812121.576    24812143.889
  23855830.011    -9349997.21549  -7259768.70945  23855830.172    23855846.625
  20612422.690   -20533620.26649 -15981589.63447  20612422.097    20612430.327
  23470485.676    -8508814.29349  -6614506.82045  23470484.751    23470498.320
  21863621.984   -16519607.56349 -12558643.36547  21863621.460    21863631.304
  20354926.167   -29260826.93349 -22782163.18148  20354925.878    20354933.913
  21176721.975   -20138515.74249 -15670218.56047  21176721.351    21176730.604
  23551970.956    -9224955.24049  -7168462.08445  23551970.091    23551984.945
  21748753.358   -16400971.06649 -12531484.19847  21748752.592    21748763.319
 02  3  7  0 15  0.0000000  0 10G26G21G30G23G10G18G 6G17G22G15
  22106361.145   -18615780.69549 -14494869.13146  22106361.155    22106372.960
  24794378.798    -1994686.19749  -1529656.90245  24794378.020    24794400.092
  23875527.814    -9246485.03849  -7179110.14345  23875528.105    23875544.511
  20615951.793   -20515074.61649 -15967138.46047  20615951.204    20615959.411
  23489658.917    -8408058.69449  -6535996.12845  23489657.978    23489671.619
  21848484.382   -16599155.40249 -12620628.53747  21848483.879    21848493.711
  20359187.669   -29238432.65949 -22764713.09948  20359187.398    20359195.396
  21170368.493   -20171903.18849 -15696234.69447  21170367.860    21170377.110
  23546412.143    -9254167.14549  -7191224.50845  23546411.169    23546425.934
  21738459.242   -16455066.32249 -12573636.24947  21738458.469    21738469.195
 02  3  7  0 15 30.0000000  0 10G26G21G30G23G10G18G 6G17G22G15
  22096704.366   -18666527.26149 -14534411.78846  22096704.360    22096715.973
  24776662.112    -2087785.99149  -1602201.75745  24776661.454    24776683.272
  23895225.976    -9142971.17249  -7098450.27045  23895226.328    23895242.748
  20619567.146   -20496075.69349 -15952334.09547  20619566.581    20619574.795
  23508856.362    -8307175.58749  -6457386.08545  23508855.448    23508869.205
  21833414.599   -16678347.05949 -12682336.16847  21833414.082    21833423.894
  20363539.834   -29215561.88249 -22746891.73348  20363539.575    20363547.564
  21164045.813   -20205128.82949 -15722124.76247  21164045.186    21164054.427
  23540954.627    -9282846.55149  -7213571.99445  23540953.697    23540968.268
  21728197.182   -16508993.28649 -12615657.16647  21728196.443    21728207.157
 02  3  7  0 16  0.0000000  0 10G26G21G30G23G10G18G 6G17G22G15
  22087145.549   -18716758.43049 -14573552.82446  22087145.548    22087157.201
  24758973.300    -2180740.16249  -1674633.16245  24758972.720    24758994.244
  23914924.419    -9039456.35549  -7017789.65645  23914924.652    23914941.198
  20623268.868   -20476623.18449 -15937176.29247  20623268.298    20623276.462
  23528077.903    -8206165.58949  -6378677.14145  23528077.042    23528090.984
  21818413.231   -16757179.06849 -12743763.56247  21818412.747    21818422.488
  20367983.113   -29192212.40549 -22728697.35448  20367982.829    20367990.838
  21157754.269   -20238191.03049 -15747887.46647  21157753.642    21157762.798
  23535598.731    -9310990.99249  -7235502.62245  23535597.854    23535612.499
  21717967.581   -16562749.92149 -12657545.36547  21717966.835    21717977.513
 02  3  7  0 16 30.0000000  0 10G26G21G30G23G10G18G 6G17G22G15
  22077684.552   -18766475.63849 -14612293.35746  22077684.577    22077696.268
  24741311.823    -2273551.08449  -1746952.95145  24741311.137    24741332.402
  23934621.830    -8935947.49049  -6937133.68645  23934621.975    23934638.536
  20627055.793   -20456722.48849 -15921669.24847  20627055.217    20627063.402
  23547322.491    -8105034.86849  -6299874.14345  23547321.629    23547335.529
  21803479.850   -16835654.10649 -12804912.78847  21803479.365    21803489.001
  20372516.775   -29168387.75449 -22710132.70248  20372516.520    20372524.549
  21151493.150   -20271093.50649 -15773525.71047  21151492.517    21151501.596
  23530343.960    -9338603.85149  -7257019.03445  23530343.192    23530357.978
  21707769.712   -16616339.96149 -12699303.74147  21707768.964    21707779.615
 02  3  7  0 17  0.0000000  0 10G26G21G30G23G10G18G 6G17G22G15
  22068322.554   -18815672.89849 -14650628.72946  22068322.548    22068334.132
  24723678.168    -2366214.33549  -1819157.65845  24723677.396    24723698.717
  23954318.367    -8832443.99849  -6856481.89245  23954318.389    23954334.933
  20630928.423   -20436371.70449 -15905811.49247  20630927.856    20630936.059
  23566590.241    -8003782.61349  -6220976.43945  23566589.419    23566603.399
  21788615.316   -16913767.17849 -12865779.96747  21788614.826    21788624.424
  20377141.575   -29144084.33349 -22691194.98348  20377141.319    20377149.339
  21145262.932   -20303833.28449 -15799037.17347  21145262.300    21145271.351
  23525191.161    -9365681.43249  -7278118.33245  23525190.370    23525205.346
  21697604.065   -16669760.29749 -12740929.88247  21697603.322    21697613.973
 02  3  7  0 17 30.0000000  0 10G26G21G30G23G10G18G 6G17G22G15
  22059059.696   -18864349.15349 -14688558.13846  22059059.711    22059071.176
  24706072.476    -2458730.09949  -1891247.44845  24706071.793    24706093.136
  23974012.894    -8728950.19949  -6775837.65445  23974012.976    23974029.511
  20634886.176   -20415573.85249 -15889605.36847  20634885.586    20634893.732
  23585880.355    -7902412.91349  -6141987.22445  23585879.486    23585893.498
  21773819.569   -16991518.65449 -12926365.38347  21773819.079    21773828.659
  20381857.261   -29119303.37549 -22671885.16148  20381856.984    20381865.011
  21139063.430   -20336411.79249 -15824422.98247  21139062.772    21139071.804
  23520140.075    -9392224.72649  -7298801.32145  23520139.247    23520154.087
  21687470.470   -16723012.20949 -12782424.79547  21687469.757    21687480.376
 02  3  7  0 18  0.0000000  0 10G26G21G30G23G10G18G 6G17G22G15
  22049896.527   -18912501.88049 -14726079.60346  22049896.495    22049907.950
  24688495.217    -2551097.28549  -1963221.47645  24688494.502    24688515.786
  23993704.676    -8625468.95249  -6695203.20745  23993704.893    23993721.669
  20638928.629   -20394330.42649 -15873052.03847  20638928.038    20638936.200
  23605192.373    -7800928.28349  -6062908.47645  23605191.496    23605205.413
  21759092.877   -17068907.35649 -12986668.11447  21759092.384    21759101.925
  20386663.804   -29094044.72649 -22652203.10848  20386663.546    20386671.596
  21132894.535   -20368829.26949 -15849683.30847  21132893.882    21132902.909
  23515190.705    -9418233.26949  -7319067.62945  23515189.893    23515204.785
  21677368.965   -16776096.18149 -12823788.83847  21677368.210    21677378.740
 02  3  7  0 18 30.0000000  0 10G26G21G30G23G10G18G 6G17G22G15
  22040833.411   -18960128.19549 -14763190.87046  22040833.369    22040844.788
  24670946.666    -2643313.91949  -2035078.17045  24670946.040    24670967.167
  24013393.588    -8522002.53449  -6614580.31445  24013394.013    24013410.929
  20643055.609   -20372642.80349 -15856152.59147  20643055.040    20643063.213
  23624525.959    -7699330.40649  -5983741.45645  23624525.162    23624538.788
  21744435.565   -17145931.40349 -13046686.70547  21744435.091    21744444.590
  20391561.416   -29068307.79449 -22632148.37348  20391561.146    20391569.167
  21126756.318   -20401085.43449 -15874817.94747  21126755.671    21126764.744
  23510343.192    -9443706.46349  -7338916.76745  23510342.339    23510357.187
  21667299.515   -16829011.46749 -12865021.44247  21667298.731    21667309.192
 02  3  7  0 19  0.0000000  0 10G26G21G30G23G10G18G 6G17G22G15
  22031871.148   -19007224.76149 -14799889.34346  22031871.113    22031882.458
  24653427.313    -2735377.80749  -2106815.83845  24653426.718    24653447.667
  24033079.570    -8418553.10949  -6533970.66645  24033079.985    24033096.995
  20647267.024   -20350511.60349 -15838907.49647  20647266.445    20647274.616
  23643880.718    -7597621.14649  -5904487.63445  23643879.972    23643893.506
  21729848.060   -17222588.75949 -13106419.55947  21729847.560    21729857.050
  20396550.229   -29042091.37949 -22611720.00648  20396549.942    20396557.981
  21120649.020   -20433179.44449 -15899826.23047  21120648.399    21120657.460
  23505597.954    -9468642.91249  -7358347.66545  23505597.074    23505611.906
  21657262.284   -16881757.40949 -12906122.08447  21657261.490    21657271.876
 02  3  7  0 19 30.0000000  0 10G26G21G30G23G10G18G 6G17G22G15
  22023009.591   -19053791.91649 -14836175.28646  22023009.558    22023020.937
  24635936.642    -2827290.18249  -2178435.41745  24635936.207    24635957.107
  24052761.510    -8315126.09449  -6453378.48845  24052761.818    24052778.590
  20651562.009   -20327941.27149 -15821320.22047  20651561.432    20651569.608
  23663255.762    -7495805.33149  -5825150.81245  23663254.979    23663268.566
  21715330.014   -17298880.82849 -13165867.78147  21715329.520    21715339.008
  20401629.764   -29015398.09349 -22590920.06248  20401629.506    20401637.548
  21114572.042   -20465114.07049 -15924710.32247  21114571.416    21114580.449
  23500954.487    -9493045.02949  -7377362.20745  23500953.489    23500968.232
  21647256.715   -16934336.55149 -12947092.75647  21647255.917    21647266.298
 02  3  7  0 20  0.0000000  0 10G26G21G30G23G10G18G 6G17G22G15
  22014249.835   -19099823.99649 -14872044.28646  22014249.782    22014261.152
  24618475.588    -2919046.65749  -2249933.50145  24618475.096    24618496.174
  24072439.217    -8211721.07449  -6372803.44845  24072439.426    24072456.197
  20655940.848   -20304930.25849 -15803389.54847  20655940.280    20655948.439
  23682651.038    -7393882.66849  -5745730.72245  23682650.251    23682663.959
  21700882.388   -17374803.11149 -13225027.85747  21700881.902    21700891.327
  20406800.740   -28988224.78349 -22569746.07048  20406800.446    20406808.508
  21108525.915   -20496886.29349 -15949467.86247  21108525.302    21108534.336
  23496413.134    -9516909.31149  -7395957.66545  23496412.173    23496426.873
  21637283.424   -16986745.77549 -12987931.02647  21637282.651    21637293.034
 02  3  7  0 20 30.0000000  0 10G26G21G30G23G10G18G 6G17G22G15
  22005592.104   -19145319.90449 -14907495.50846  22005592.096    22005603.446
  24601044.278    -3010647.53749  -2321310.34145  24601043.593    24601064.653
  24092111.752    -8108342.23949  -6292248.80745  24092112.007    24092128.880
  20660403.000   -20281481.55649 -15785117.81947  20660402.421    20660410.543
  23702065.952    -7291857.09249  -5666230.45745  23702065.181    23702079.099
  21686505.116   -17450355.69349 -13283899.84947  21686504.626    21686513.992
  20412062.737   -28960572.66249 -22548198.98748  20412062.453    20412070.552
  21102510.431   -20528497.57249 -15974099.99247  21102509.827    21102518.881
  23491973.891    -9540236.85349  -7414134.88245  23491972.985    23491987.653
  21627342.279   -17038986.31349 -13028637.84447  21627341.493    21627351.884
 02  3  7  0 21  0.0000000  0 10G26G21G30G23G10G18G 6G17G22G15
  21997036.996   -19190276.58049 -14942526.55846  21997037.038    21997048.317
  24583642.831    -3102091.03849  -2392564.51945  24583642.050    24583662.783
  24111778.718    -8004991.63849  -6211716.15945  24111779.082    24111796.260
  20664948.292   -20257595.88949 -15766505.60447  20664947.694    20664955.826
  23721500.130    -7189730.06849  -5586651.12145  23721499.388    23721513.450
  21672198.524   -17525536.68849 -13342482.30047  21672198.000    21672207.388
  20417416.018   -28932440.90049 -22526278.16048  20417415.757    20417423.840
  21096525.789   -20559947.16449 -15998606.13547  21096525.160    21096534.232
  23487637.101    -9563026.74649  -7431893.15045  23487636.188    23487650.746
  21617433.409   -17091057.31049 -13069212.55747  21617432.603    21617443.031
 02  3  7  0 21 30.0000000  0 10G26G21G30G23G10G18G 6G17G22G15
  21988584.934   -19234692.03049 -14977135.86746  21988584.950    21988596.189
  24566271.543    -3193375.55749  -2463694.78645  24566270.795    24566291.095
  24131439.757    -7901672.56249  -6131208.08945  24131440.111    24131457.523
  20669576.308   -20233275.43349 -15747554.59047  20669575.730    20669583.897
  23740953.217    -7087504.11449  -5506994.71045  23740952.481    23740966.809
  21657962.778   -17600345.29049 -13400774.58247  21657962.285    21657971.632
  20422860.571   -28903829.74749 -22503983.78248  20422860.278    20422868.376
  21090571.777   -20591235.70049 -16022986.78047  21090571.121    21090580.204
  23483402.746    -9585279.01149  -7449232.50345  23483401.719    23483416.219
  21607556.696   -17142959.19749 -13109655.49747  21607555.871    21607566.343
 02  3  7  0 22  0.0000000  0 10G26G21G30G23G10G18G 6G17G22G15
  21980236.452   -19278562.98249 -15011320.90646  21980236.469    21980247.714
  24548930.861    -3284499.25349  -2534699.72545  24548930.100    24548950.394
  24151094.627    -7798386.80749  -6050725.97845  24151094.944    24151112.439
  20674286.903   -20208521.08249 -15728265.47447  20674286.329    20674294.477
  23760424.912    -6985180.76749  -5427262.42445  23760424.121    23760438.585
  21643798.447   -17674779.22749 -13458774.91147  21643797.931    21643807.221
  20428396.514   -28874738.12149 -22481315.01348  20428396.245    20428404.361
  21084648.540   -20622362.13249 -16047241.10647  21084647.922    21084656.963
  23479270.669    -9606992.35649  -7466151.92145  23479269.700    23479284.304
  21597712.279   -17194691.15849 -13149966.01847  21597711.486    21597722.019
 02  3  7  0 22 30.0000000  0 10G26G21G30G23G10G18G 6G17G22G15
  21971991.678   -19321889.16249 -15045081.44646  21971991.717    21972002.876
  24531620.650    -3375462.57349  -2605579.69645  24531619.914    24531640.402
  24170742.548    -7695138.93549  -5970273.40145  24170742.692    24170760.124
  20679079.390   -20183336.46049 -15708641.08047  20679078.802    20679086.937
  23779914.227    -6882764.56149  -5347457.75845  23779913.388    23779927.855
  21629705.139   -17748839.44549 -13516484.03347  21629704.617    21629713.896
  20434023.551   -28845168.04049 -22458273.41348  20434023.260    20434031.370
  21078755.784   -20653328.66249 -16071370.82847  21078755.162    21078764.209
  23475240.696    -9628168.90949  -7482653.06645  23475239.860    23475254.520
  21587899.887   -17246255.37249 -13190145.82047  21587899.059    21587909.587
 02  3  7  0 23  0.0000000  0 10G26G21G30G23G10G18G 6G17G22G15
  21963851.093   -19364667.60449 -15078415.18746  21963851.102    21963862.269
  24514341.345    -3466264.33849  -2676333.80945  24514340.705    24514360.978
  24190382.697    -7591931.50149  -5889852.33445  24190382.826    24190400.117
  20683953.525   -20157722.69049 -15688682.29447  20683952.938    20683961.059
  23799420.996    -6780257.02749  -5267581.93945  23799420.114    23799434.579
  21615683.283   -17822523.98349 -13573900.41847  21615682.785    21615692.062
  20439741.724   -28815118.83749 -22434858.48547  20439741.442    20439749.556
  21072893.526   -20684134.71049 -16095375.50047  21072892.920    21072901.952
  23471313.205    -9648807.74849  -7498735.20545  23471312.279    23471326.896
  21578119.579   -17297651.02749 -13230194.28747  21578118.730    21578129.234
 02  3  7  0 23 30.0000000  0 10G26G21G30G23G10G18G 6G17G22G15
  21955815.794   -19406893.00249 -15111317.98646  21955815.835    21955826.863
  24497093.721    -3556900.26749  -2746958.70745  24497093.036    24497112.843
  24210015.003    -7488764.00249  -5809462.37845  24210014.966    24210032.449
  20688909.550   -20131678.48749 -15668388.10347  20688908.966    20688917.072
  23818945.113    -6677657.84149  -5187634.68845  23818944.188    23818958.605
  21601733.814   -17895828.54449 -13631020.72647  21601733.302    21601742.538
  20445551.658   -28784587.52449 -22411067.88648  20445551.389    20445559.509
  21067062.492   -20714777.22149 -16119252.73447  21067061.867    21067070.858
  23467488.768    -9668905.62449  -7514395.82845  23467487.806    23467502.252
  21568371.931   -17348875.02149 -13270108.98647  21568371.077    21568381.523
 02  3  7  0 24  0.0000000  0 10G26G21G30G23G10G18G 6G17G22G15
  21947885.331   -19448567.86749 -15143791.79646  21947885.305    21947896.303
  24479876.970    -3647373.65449  -2817456.95445  24479876.126    24479895.834
  24229638.069    -7385643.78249  -5729109.26845  24229638.120    24229655.839
  20693946.284   -20105210.23249 -15647763.48447  20693945.709    20693953.824
  23838485.341    -6574973.90849  -5107621.39845  23838484.461    23838498.887
  21587855.929   -17968756.92849 -13687847.91247  21587855.409    21587864.577
  20451452.458   -28753578.77749 -22386905.25047  20451452.184    20451460.285
  21061261.594   -20745261.11549 -16143006.36147  21061260.972    21061269.929
  23463766.246    -9688467.27549  -7529638.61745  23463765.284    23463779.661
  21558656.014   -17399932.21949 -13309893.71747  21558655.183    21558665.555
 02  3  7  0 24 30.0000000  0 10G26G21G30G23G10G18G 6G17G22G15
  21940060.846   -19489685.03749 -15175831.05346  21940060.832    21940071.852
  24462691.925    -3737678.40349  -2887823.80045  24462691.282    24462710.999
  24249252.649    -7282568.91549  -5648791.50045  24249252.721    24249270.736
  20699064.262   -20078314.93449 -15626806.11447  20699063.686    20699071.849
  23858042.191    -6472202.73549  -5027540.14245  23858041.311    23858055.715
  21574050.745   -18041303.15149 -13744377.31147  21574050.226    21574059.333
  20457445.018   -28722087.74749 -22362366.82147  20457444.756    20457452.872
  21055491.762   -20775581.53349 -16166632.61047  21055491.127    21055500.120
  23460146.597    -9707487.65249  -7544459.64445  23460145.739    23460160.118
  21548972.737   -17450817.84149 -13349544.75847  21548971.917    21548982.186
 02  3  7  0 25  0.0000000  0 10G26G21G30G23G10G18G 6G17G22G15
  21932342.466   -19530245.22149 -15207436.29046  21932342.465    21932353.389
  24445538.677    -3827815.91049  -2958060.33445  24445538.257    24445558.024
  24268857.688    -7179545.08649  -5568513.49945  24268857.819    24268875.724
  20704262.677   -20050997.16149 -15605519.54047  20704262.107    20704270.245
  23877614.633    -6369349.52949  -4947394.96145  23877613.721    23877628.079
  21560317.959   -18113468.77549 -13800610.14047  21560317.453    21560326.529
  20463528.820   -28690117.34549 -22337454.85247  20463528.554    20463536.650
  21049752.454   -20805741.38149 -16190133.74047  21049751.800    21049760.846
  23456629.585    -9725969.53849  -7558861.06245  23456628.734    23456643.068
  21539321.683   -17501534.53249 -13389064.16247  21539320.839    21539331.017
 02  3  7  0 25 30.0000000  0 10G26G21G30G23G10G18G 6G17G22G15
  21924730.683   -19570244.81149 -15238604.70246  21924730.655    21924741.661
  24428418.242    -3917783.41249  -3028164.40245  24428417.738    24428437.278
  24288452.821    -7076573.35149  -5488276.07945  24288452.944    24288470.860
  20709541.451   -20023257.15049 -15583903.94647  20709540.873    20709548.990
  23897202.500    -6266415.33249  -4867186.66945  23897201.601    23897215.965
  21546658.147   -18185251.22749 -13856544.39247  21546657.620    21546666.674
  20469704.078   -28657666.27849 -22312168.33547  20469703.799    20469711.906
  21044043.998   -20835739.26949 -16213508.66847  21044043.352    21044052.411
  23453215.431    -9743911.43149  -7572841.68845  23453214.457    23453228.802
  21529703.016   -17552080.85049 -13428450.80847  21529702.167    21529712.262
 02  3  7  0 26  0.0000000  0 10G26G21G30G23G10G18G 6G17G22G15
  21917225.685   -19609683.31249 -15269335.90246  21917225.691    21917236.611
  24411330.056    -4007581.59449  -3098136.55045  24411329.429    24411348.830
  24308037.281    -6973658.27049  -5408082.80845  24308037.215    24308055.318
  20714899.821   -19995098.52749 -15561962.15947  20714899.254    20714907.368
  23916805.085    -6163404.09249  -4786918.32845  23916804.201    23916818.427
  21533070.997   -18256651.30349 -13912180.68047  21533070.486    21533079.555
  20475970.444   -28624736.34449 -22286508.67447  20475970.181    20475978.302
  21038366.037   -20865577.03149 -16236758.81547  21038365.393    21038374.409
  23449903.570    -9761315.00349  -7586402.86445  23449902.630    23449916.958
  21520116.454   -17602458.35449 -13467705.90447  21520115.624    21520125.688
 02  3  7  0 26 30.0000000  0 10G26G21G30G23G10G18G 6G17G22G15
  21909828.069   -19648557.92849 -15299627.69946  21909828.022    21909838.850
  24394273.985    -4097208.42049  -3167975.18445  24394273.447    24394292.872
  24327610.583    -6870801.84049  -5327935.24345  24327610.505    24327628.453
  20720337.708   -19966522.32649 -15539694.99647  20720337.149    20720345.218
  23936421.936    -6060317.37149  -4706591.18445  23936421.070    23936435.361
  21519557.038   -18327667.11849 -13967517.55747  21519556.531    21519565.531
  20482328.092   -28591326.82749 -22260475.32147  20482327.829    20482335.960
  21032718.717   -20895253.76749 -16259883.49947  21032718.072    21032727.046
  23446694.104    -9778179.54149  -7599544.01145  23446693.183    23446707.717
  21510562.081   -17652666.22549 -13506828.83547  21510561.269    21510571.320
 02  3  7  0 27  0.0000000  0 10G26G21G30G23G10G18G 6G17G22G15
  21902538.552   -19686863.98349 -15329476.45546  21902538.538    21902549.405
  24377251.272    -4186660.47949  -3237677.65345  24377250.881    24377270.250
  24347172.618    -6768004.42349  -5247833.66645  24347172.513    24347190.419
  20725855.196   -19937527.84949 -15517101.89547  20725854.609    20725862.659
  23956053.219    -5957154.87949  -4626204.99745  23956052.360    23956066.851
  21506116.931   -18398295.12249 -14022552.24147  21506116.415    21506125.324
  20488777.415   -28557435.44649 -22234066.48347  20488777.125    20488785.295
  21027102.417   -20924767.28149 -16282880.99347  21027101.770    21027110.736
  23443587.839    -9794502.64849  -7612263.25545  23443586.972    23443601.505
  21501040.469   -17702701.92749 -13545817.59947  21501039.690    21501049.762
 02  3  7  0 27 30.0000000  0 10G26G21G30G23G10G18G 6G17G22G15
  21895357.064   -19724602.64349 -15358883.08946  21895357.030    21895367.936
  24360261.837    -4275939.77949  -3307245.48645  24360261.322    24360280.477
  24366722.158    -6665271.79949  -5167782.57745  24366722.149    24366739.969
  20731451.253   -19908120.07549 -15494186.74647  20731450.676    20731458.782
  23975697.806    -5853922.45549  -4545764.30845  23975696.970    23975711.475
  21492750.191   -18468537.28449 -14077286.26647  21492749.689    21492758.567
  20495317.821   -28523065.41049 -22207284.66447  20495317.557    20495325.742
  21021516.584   -20954120.75949 -16305753.78947  21021515.928    21021524.883
  23440584.243    -9810287.52349  -7624563.08445  23440583.332    23440597.718
  21491551.031   -17752568.83749 -13584674.84247  21491550.250    21491560.329
 02  3  7  0 28  0.0000000  0 10G26G21G30G23G10G18G 6G17G22G15
  21888284.151   -19761770.25849 -15387844.75346  21888284.136    21888295.055
  24343305.828    -4365043.70049  -3376676.68245  24343305.191    24343324.111
  24386259.097    -6562605.06349  -5087782.82745  24386259.183    24386277.203
  20737125.970   -19878299.18449 -15470949.70147  20737125.417    20737133.531
  23995355.727    -5750620.38349  -4465269.36845  23995354.821    23995369.443
  21479457.382   -18538390.97749 -14131717.59647  21479456.882    21479465.735
  20501949.614   -28488215.28249 -22180128.75147  20501949.346    20501957.538
  21015961.557   -20983312.43849 -16328500.51247  21015960.923    21015969.821
  23437683.269    -9825532.56549  -7636442.28745  23437682.321    23437696.575
  21482094.025   -17802265.22749 -13623399.22047  21482093.306    21482103.356
 02  3  7  0 28 30.0000000  0 10G26G21G30G23G10G18G 6G17G22G15
  21881320.419   -19798364.55049 -15416359.66246  21881320.467    21881331.310
  24326383.175    -4453970.75449  -3445970.09245  24326382.607    24326401.491
  24405783.049    -6460006.58749  -5007836.26245  24405783.267    24405801.468
  20742879.008   -19848066.83349 -15447392.01847  20742878.434    20742886.517
  24015026.522    -5647250.86349  -4384721.84745  24015025.553    24015040.168
  21466238.718   -18607855.12849 -14185845.37047  21466238.203    21466247.018
  20508672.735   -28452885.15749 -22152598.80847  20508672.461    20508680.680
  21010437.339   -21012342.21749 -16351121.06847  21010436.697    21010445.578
  23434884.727    -9840237.78549  -7647900.83345  23434883.858    23434898.197
  21472669.514   -17851790.89949 -13661990.55747  21472668.801    21472678.827
 02  3  7  0 29  0.0000000  0 10G26G21G30G23G10G18G 6G17G22G15
  21874466.636   -19834381.16549 -15444424.42746  21874466.652    21874477.467
  24309494.752    -4542717.43349  -3515122.94945  24309494.328    24309513.098
  24425294.018    -6357477.07649  -4927943.44945  24425294.230    24425312.678
  20748710.421   -19817422.58649 -15423513.38347  20748709.837    20748717.924
  24034710.071    -5543813.89349  -4304121.75945  24034709.107    24034723.844
  21453094.779   -18676926.38049 -14239666.99447  21453094.262    21453103.075
  20515487.561   -28417073.07249 -22124693.31347  20515487.274    20515495.487
  21004944.342   -21041207.87049 -16373613.74347  21004943.720    21004952.597
  23432189.474    -9854400.86349  -7658936.93045  23432188.613    23432203.018
  21463277.914   -17901143.35849 -13700446.93547  21463277.223    21463287.260
 02  3  7  0 29 30.0000000  0 10G26G21G30G23G10G18G 6G17G22G15
  21867721.546   -19869826.01449 -15472043.66546  21867721.571    21867732.356
  24292639.633    -4631290.31749  -3584140.39545  24292639.236    24292657.687
  24444789.969    -6255026.67749  -4848112.29245  24444790.163    24444808.734
  20754618.400   -19786375.92849 -15399321.18047  20754617.827    20754625.955
  24054404.630    -5440319.40349  -4223476.84445  24054403.483    24054418.424
  21440024.327   -18745611.54249 -14293187.76947  21440023.811    21440032.631
  20522392.611   -28380786.94749 -22096418.43447  20522392.323    20522400.554
  20999481.101   -21069917.26349 -16395984.65647  20999480.482    20999489.364
  23429596.085    -9868029.78649  -7669556.81145  23429595.129    23429609.439
  21453917.822   -17950330.51049 -13738774.50247  21453917.162    21453927.178
 02  3  7  0 30  0.0000000  0 10G26G21G30G23G10G18G 6G17G22G15
  21861087.060   -19904690.39749 -15499210.59046  21861087.044    21861097.755
  24275819.284    -4719681.67249  -3653016.42045  24275818.751    24275836.980
  24464271.665    -6152651.61349  -4768339.84145  24464271.816    24464290.491
  20760603.864   -19754922.14349 -15374811.73747  20760603.293    20760611.396
  24074110.874    -5336763.22349  -4142783.84645  24074109.780    24074124.694
  21427028.824   -18813902.86649 -14346401.66947  21427028.297    21427037.071
  20529389.101   -28344020.17949 -22067769.03347  20529388.830    20529397.074
  20994048.920   -21098463.55449 -16418228.48647  20994048.283    20994057.136
  23427105.415    -9881118.16249  -7679755.49145  23427104.503    23427118.773
  21444590.512   -17999345.48149 -13776967.90347  21444589.830    21444599.855
 02  3  7  0 30 30.0000000  0 10G26G21G30G23G10G18G 6G17G22G15
  21854563.517   -19938971.29649 -15525922.86346  21854563.491    21854574.252
  24259033.475    -4807889.77249  -3721749.66545  24259032.872    24259051.133
  24483738.683    -6050353.47149  -4688627.33345  24483738.850    24483757.516
  20766666.672   -19723062.05949 -15349985.69847  20766666.076    20766674.152
  24093828.569    -5233146.18449  -4062043.44745  24093827.610    24093842.525
  21414108.633   -18881798.36549 -14399307.13047  21414108.092    21414116.840
  20536477.209   -28306771.81449 -22038744.35747  20536476.953    20536485.224
  20988647.985   -21126845.73049 -16440344.42947  20988647.322    20988656.146
  23424717.760    -9893664.93849  -7689532.14845  23424716.876    23424731.192
  21435296.086   -18048187.42849 -13815026.47747  21435295.424    21435305.436
 02  3  7  0 31  0.0000000  0 10G26G21G30G23G10G18G 6G17G22G15
  21848150.712   -19972670.09049 -15552181.55146  21848150.720    21848161.441
  24242281.946    -4895916.60849  -3790341.67245  24242281.588    24242299.821
  24503189.860    -5948137.89549  -4608979.15545  24503190.014    24503208.797
  20772805.778   -19690800.67049 -15324846.95047  20772805.206    20772813.304
  24113556.810    -5129473.96849  -3981260.02845  24113555.893    24113570.833
  21401263.296   -18949300.02249 -14451905.70147  21401262.784    21401271.588
  20543656.391   -28269045.30449 -22009347.11247  20543656.133    20543664.413
  20983277.620   -21155066.89949 -16462334.91947  20983276.970    20983285.793
  23422432.587    -9905673.48649  -7698889.41745  23422431.698    23422445.938
  21426034.048   -18096859.33249 -13852952.55047  21426033.376    21426043.388
 02  3  7  0 31 30.0000000  0 10G26G21G30G23G10G18G 6G17G22G15
  21841849.650   -20005781.89749 -15577982.83246  21841849.643    21841860.287
  24225566.314    -4983757.50949  -3858788.79645  24225565.720    24225583.942
  24522625.238    -5846004.68949  -4529395.17845  24522625.410    24522644.298
  20779021.432   -19658136.93149 -15299394.67747  20779020.863    20779029.001
  24133295.641    -5025745.87249  -3900433.08845  24133294.737    24133309.812
  21388493.696   -19016404.42349 -14504194.72047  21388493.184    21388501.938
  20550926.982   -28230838.23249 -21979575.39447  20550926.709    20550934.982
  20977938.368   -21183124.37149 -16484197.84547  20977937.736    20977946.581
  23420250.313    -9917141.29049  -7707825.33945  23420249.429    23420263.597
  21416805.023   -18145358.07449 -13890743.68747  21416804.315    21416814.310
 02  3  7  0 32  0.0000000  0 10G26G21G30G23G10G18G 6G17G22G15
  21835660.226   -20038307.05549 -15603327.00946  21835660.237    21835670.855
  24208885.890    -5071413.56349  -3927091.88945  24208885.029    24208903.235
  24542044.045    -5743958.96049  -4449879.37445  24542044.276    24542063.319
  20785312.905   -19625075.08649 -15273632.19547  20785312.318    20785320.476
  24153044.330    -4921966.30649  -3819566.01145  24153043.456    24153058.442
  21375799.552   -19083112.27649 -14556174.75147  21375799.012    21375807.718
  20558288.527   -28192153.07849 -21949431.15447  20558288.263    20558296.533
  20972629.921   -21211020.04349 -16505934.70047  20972629.311    20972638.218
  23418170.408    -9928070.75749  -7716341.77545  23418169.569    23418183.772
  21407608.523   -18193685.82749 -13928401.59447  21407607.802    21407617.745
 02  3  7  0 32 30.0000000  0 10G26G21G30G23G10G18G 6G17G22G15
  21829582.772   -20070244.04749 -15628212.88047  21829582.815    21829593.343
  24192240.090    -5158884.02649  -3995250.39445  24192239.492    24192257.804
  24561445.805    -5642003.07849  -4370433.56945  24561445.985    24561465.138
  20791679.731   -19591617.23249 -15247561.13647  20791679.140    20791687.292
  24172802.280    -4818137.74149  -3738660.75745  24172801.398    24172816.406
  21363180.871   -19149423.17049 -14607845.45847  21363180.378    21363189.048
  20565740.965   -28152990.37349 -21918914.79347  20565740.704    20565748.985
  20967352.184   -21238754.36249 -16527545.82747  20967351.565    20967360.522
  23416192.962    -9938462.35249  -7724439.08045  23416192.117    23416206.282
  21398444.545   -18241842.55649 -13965926.23547  21398443.796    21398453.728
 02  3  7  0 33  0.0000000  0 10G26G21G30G23G10G18G 6G17G22G15
  21823617.508   -20101591.15749 -15652639.09546  21823617.525    21823628.033
  24175630.037    -5246167.98249  -4063263.56145  24175629.500    24175647.809
  24580829.752    -5540140.33749  -4291060.34445  24580829.865    24580849.291
  20798121.503   -19557765.44749 -15221183.11347  20798120.911    20798129.056
  24192568.978    -4714262.62249  -3657719.25145  24192568.212    24192583.299
  21350637.913   -19215336.44549 -14659206.32847  21350637.411    21350646.046
  20573284.160   -28113350.68549 -21888026.75147  20573283.902    20573292.204
  20962105.204   -21266327.44049 -16549031.30647  20962104.567    20962113.544
  23414317.887    -9948316.52949  -7732117.63145  23414317.015    23414331.115
  21389313.014   -18289828.68449 -14003317.94347  21389312.258    21389322.185
 02  3  7  0 33 30.0000000  0 10G26G21G30G23G10G18G 6G17G22G15
  21817765.420   -20132343.62449 -15676601.96246  21817765.445    21817775.908
  24159056.605    -5333261.39449  -4131128.25245  24159056.094    24159074.176
  24600196.097    -5438370.09349  -4211759.22045  24600196.328    24600215.862
  20804638.498   -19523518.41949 -15194497.11547  20804637.909    20804646.009
  24212344.845    -4610339.84649  -3576740.58245  24212344.114    24212359.229
  21338171.434   -19280847.84949 -14710254.06147  21338170.922    21338179.525
  20580918.665   -28073231.11249 -21856764.78347  20580918.417    20580926.734
  20956889.521   -21293735.96449 -16570388.56547  20956888.878    20956897.809
  23412545.301    -9957630.52949  -7739375.26445  23412544.533    23412558.637
  21380214.566   -18337640.95449 -14040574.18247  21380213.816    21380223.723
 02  3  7  0 34  0.0000000  0 10G26G21G30G23G10G18G 6G17G22G15
  21812026.543   -20162501.41949 -15700101.45647  21812026.548    21812037.031
  24142519.380    -5420164.96149  -4198845.02645  24142518.773    24142536.580
  24619543.904    -5336696.96149  -4132533.76045  24619544.153    24619563.827
  20811229.974   -19488880.13749 -15167506.24347  20811229.376    20811237.455
  24232128.925    -4506373.65149  -3495728.11445  24232128.266    24232143.513
  21325781.190   -19345958.70249 -14760989.67947  21325780.679    21325789.193
  20588644.050   -28032634.03049 -21825130.74347  20588643.798    20588652.113
  20951704.764   -21320982.01849 -16591619.22247  20951704.137    20951713.022
  23410875.065    -9966406.81149  -7746213.89745  23410874.369    23410888.450
  21371148.859   -18385281.37649 -14077696.51647  21371148.102    21371157.943
 02  3  7  0 34 30.0000000  0 10G26G21G30G23G10G18G 6G17G22G15
  21806401.020   -20192063.29449 -15723136.59847  21806401.033    21806411.529
  24126017.963    -5506877.98349  -4266413.31745  24126017.467    24126035.237
  24638872.875    -5235123.57549  -4053386.01845  24638873.332    24638893.083
  20817895.452   -19453852.70049 -15140212.13047  20817894.841    20817902.917
  24251920.974    -4402366.38749  -3414683.61145  24251920.285    24251935.407
  21313467.282   -19410668.28249 -14811412.60647  21313466.764    21313475.257
  20596460.191   -27991560.18649 -21793125.18947  20596459.927    20596468.268
  20946550.877   -21348065.76949 -16612723.40747  20946550.245    20946559.114
  23409307.385    -9974645.82549  -7752633.88045  23409306.524    23409320.482
  21362115.858   -18432750.10949 -14114685.06247  21362115.086    21362124.879
 02  3  7  0 35  0.0000000  0 10G26G21G30G23G10G18G 6G17G22G15
  21800889.147   -20221027.88749 -15745706.32347  21800889.178    21800899.630
  24109552.990    -5593400.51449  -4333833.18245  24109552.674    24109570.088
  24658182.338    -5133653.43249  -3974318.69445  24658182.645    24658202.579
  20824634.556   -19418438.55449 -15112616.69147  20824633.956    20824642.041
  24271720.371    -4298320.73349  -3333609.20345  24271719.647    24271734.809
  21301229.779   -19474976.22949 -14861522.58147  21301229.276    21301237.754
  20604366.881   -27950010.40049 -21760748.78147  20604366.614    20604374.968
  20941427.779   -21374987.63949 -16633701.45347  20941427.142    20941436.015
  23407841.743    -9982348.62949  -7758636.05845  23407840.749    23407854.625
  21353115.490   -18480047.16049 -14151539.83947  21353114.706    21353124.466
 02  3  7  0 35 30.0000000  0  9G26G21G23G10G18G 6G17G22G15
  21795491.264   -20249393.48549 -15767809.29747  21795491.315    21795501.699
  24093125.195    -5679730.92449  -4401103.32345  24093124.418    24093141.553
  20831446.871   -19382639.61349 -15084721.41347  20831446.260    20831454.350
  24291526.843    -4194238.63149  -3252506.39645  24291526.066    24291541.009
  21289068.899   -19538881.55549 -14911318.82347  21289068.385    21289076.812
  20612364.101   -27907984.81649 -21728001.60847  20612363.827    20612372.165
  20936335.532   -21401747.50049 -16654553.25847  20936334.887    20936343.790
  23406477.629    -9989515.35749  -7764220.50245  23406476.804    23406490.871
  21344147.743   -18527172.48949 -14188260.81147  21344146.935    21344156.698
 02  3  7  0 36  0.0000000  0  9G26G21G23G10G18G 6G17G22G15
  21790208.788   -20277152.52049 -15789439.63047  21790208.812    21790219.198
  24076734.542    -5765861.87449  -4468218.04345  24076733.954    24076751.161
  20838333.157   -19346451.82149 -15056523.13847  20838332.543    20838340.647
  24311340.924    -4090116.29049  -3171372.23545  24311339.999    24311355.053
  21276985.856   -19602377.72149 -14960796.23647  21276985.360    21276993.767
  20620452.882   -27865478.07849 -21694879.51247  20620452.618    20620460.991
  20931275.247   -21428339.28649 -16675274.09347  20931274.600    20931283.510
  23405216.610    -9996140.53849  -7769382.95745  23405215.886    23405230.134
  21335213.884   -18574119.87549 -14224843.12547  21335213.080    21335222.841
 02  3  7  0 36 30.0000000  0  9G26G21G23G10G18G 6G17G22G15
  21785040.847   -20304310.02649 -15810601.23047  21785040.850    21785051.278
  24060380.600    -5851799.48949  -4535182.09345  24060380.196    24060397.512
  20845291.814   -19309883.83049 -15028028.60947  20845291.195    20845299.284
  24331160.927    -3985962.63949  -3090213.68045  24331159.928    24331174.973
  21264979.698   -19665470.25549 -15009959.13447  21264979.201    21264987.548
  20628631.878   -27822497.27149 -21661388.02047  20628631.615    20628639.968
  20926245.701   -21454769.61149 -16695869.11447  20926245.062    20926253.959
  23404057.778   -10002231.39549  -7774129.06745  23404057.008    23404071.074
  21326312.596   -18620896.08949 -14261292.06347  21326311.772    21326321.539
 02  3  7  0 37  0.0000000  0  9G26G21G23G10G18G 6G17G22G15
  21779988.050   -20330862.33449 -15831291.27047  21779988.058    21779998.429
  24044064.596    -5937540.42049  -4601992.86745  24044064.181    24044081.274
  20852322.812   -19272935.74549 -14999237.90447  20852322.208    20852330.260
  24350986.795    -3881777.77749  -3009030.81845  24350985.852    24351000.887
  21253050.849   -19728156.51049 -15058805.45547  21253050.330    21253058.654
  20636901.379   -27779041.09849 -21627526.10547  20636901.110    20636909.441
  20921247.227   -21481036.58849 -16716336.85247  20921246.602    20921255.436
  23403000.894   -10007786.38049  -7778457.62145  23402999.990    23403013.985
  21317444.356   -18667498.98549 -14297605.95447  21317443.511    21317453.248
 02  3  7  0 37 30.0000000  0  9G26G21G23G10G18G 6G17G22G15
  21775050.411   -20356809.63349 -15851509.85647  21775050.387    21775060.755
  24027785.770    -6023085.43749  -4668650.96745  24027785.241    24027802.232
  20859425.428   -19235611.20049 -14970153.84847  20859424.831    20859432.889
  24370817.907    -3777565.58349  -2927826.63045  24370816.935    24370832.162
  21241199.042   -19790437.42149 -15107335.92247  21241198.544    21241206.882
  20645260.890   -27735111.64149 -21593295.40247  20645260.613    20645268.993
  20916279.614   -21507141.65449 -16736678.41647  20916278.961    20916287.758
  23402045.241   -10012807.76049  -7782370.36045  23402044.322    23402058.423
  21308608.787   -18713930.18949 -14333786.06147  21308607.948    21308617.638
 02  3  7  0 38  0.0000000  0  9G26G21G23G10G18G 6G17G22G15
  21770228.732   -20382147.04449 -15871253.20647  21770228.714    21770239.091
  24011544.837    -6108429.82849  -4735152.74145  24011544.355    24011561.421
  20866599.925   -19197908.83549 -14940775.39347  20866599.314    20866607.452
  24390654.424    -3673324.82149  -2846600.21845  24390653.371    24390668.721
  21229425.261   -19852308.88549 -15155547.34147  21229424.755    21229433.033
  20653711.036   -27690706.08649 -21558693.71247  20653710.763    20653719.133
  20911343.376   -21533081.48949 -16756891.22947  20911342.729    20911351.526
  23401191.675   -10017292.65549  -7785865.06945  23401190.812    23401205.025
  21299806.560   -18760186.29849 -14369829.73047  21299805.721    21299815.344
 02  3  7  0 38 30.0000000  0  9G26G21G23G10G18G 6G17G22G15
  21765522.836   -20406876.28549 -15890522.66147  21765522.842    21765533.130
  23995341.588    -6193576.11749  -4801500.16045  23995341.321    23995358.334
  20873845.396   -19159833.74649 -14911106.50647  20873844.808    20873852.940
  24410495.550    -3569060.32149  -2765355.26245  24410494.445    24410509.798
  21217728.852   -19913773.39149 -15203441.65347  21217728.343    21217736.592
  20662251.098   -27645828.07549 -21523723.86847  20662250.831    20662259.170
  20906438.016   -21558859.04949 -16776977.60247  20906437.405    20906446.228
  23400439.612   -10021244.93949  -7788944.75745  23400438.793    23400452.926
  21291037.001   -18806270.32649 -14405739.31147  21291036.182    21291045.716
 02  3  7  0 39  0.0000000  0  9G26G21G23G10G18G 6G17G22G15
  21760933.457   -20430993.47649 -15909315.17547  21760933.459    21760943.707
  23979177.229    -6278521.15849  -4867690.73645  23979176.662    23979193.516
  20881161.839   -19121385.57549 -14881146.90747  20881161.273    20881169.370
  24430341.137    -3464771.95549  -2684091.71945  24430339.939    24430355.183
  21206110.489   -19974827.75249 -15251016.37247  21206109.986    21206118.227
  20670881.344   -27600475.78649 -21488384.46247  20670881.087    20670889.443
  20901564.023   -21584471.97949 -16796935.68447  20901563.419    20901572.241
  23399789.225   -10024662.70949  -7791607.94045  23399788.364    23399802.438
  21282300.664   -18852179.81049 -14441512.87947  21282299.890    21282309.361
 02  3  7  0 39 30.0000000  0  9G26G21G23G10G18G 6G17G22G15
  21756460.484   -20454498.41549 -15927630.62147  21756460.526    21756470.812
  23963050.694    -6363265.31549  -4933724.80145  23963050.086    23963066.962
  20888548.664   -19082567.59549 -14850899.14647  20888548.089    20888556.199
  24450190.463    -3360463.31549  -2602812.37645  24450189.166    24450204.591
  21194570.116   -20035472.48049 -15298271.89547  21194569.595    21194577.836
  20679601.486   -27554651.13249 -21452676.98347  20679601.210    20679609.640
  20896721.143   -21609921.56849 -16816766.48347  20896720.502    20896729.325
  23399240.177   -10027547.93549  -7793856.14545  23399239.214    23399253.404
  21273597.339   -18897915.82149 -14477151.27047  21273596.576    21273606.016
 02  3  7  0 40  0.0000000  0  9G26G21G23G10G18G 6G17G22G15
  21752104.694   -20477388.31349 -15945466.81647  21752104.701    21752114.950
  23946962.664    -6447805.71549  -4999600.08345  23946962.244    23946979.161
  20896005.750   -19043380.30249 -14820363.60347  20896005.177    20896013.320
  24470043.451    -3256135.00349  -2521517.69145  24470042.332    24470057.635
  21183108.082   -20095705.47849 -15345206.59147  21183107.570    21183115.749
  20688411.675   -27508353.13049 -21416600.64947  20688411.431    20688419.868
  20891909.600   -21635206.13449 -16836468.68547  20891908.952    20891917.777
  23398792.600   -10029899.77049  -7795688.73345  23398791.733    23398805.843
  21264927.387   -18943476.68349 -14512653.17547  21264926.608    21264936.024
 02  3  7  0 40 30.0000000  0  9G26G21G23G10G18G 6G17G22G15
  21747866.043   -20499662.12749 -15962822.94047  21747866.046    21747876.223
  23930913.797    -6532142.09649  -5065316.39245  23930913.364    23930930.141
  20903532.649   -19003826.19549 -14789542.23247  20903532.086    20903540.242
  24489899.762    -3151789.25449  -2440209.42345  24489898.506    24489914.221
  21171724.467   -20155526.38449 -15391820.18147  21171723.961    21171732.091
  20697311.817   -27461582.86949 -21380156.32547  20697311.569    20697319.992
  20887129.374   -21660325.87849 -16856042.45347  20887128.762    20887137.550
  23398446.373   -10031719.21249  -7797106.45345  23398445.594    23398459.588
  21256290.597   -18988862.95049 -14548019.03647  21256289.817    21256299.231
 02  3  7  0 41  0.0000000  0  9G26G21G23G10G18G 6G17G22G15
  21743744.896   -20521318.49549 -15979697.94947  21743744.879    21743755.075
  23914904.018    -6616273.70149  -5130873.13445  23914903.378    23914920.101
  20911128.959   -18963907.44449 -14758436.72747  20911128.397    20911136.537
  24509758.946    -3047428.47249  -2358889.44245  24509757.857    24509773.569
  21160419.340   -20214934.67249 -15438112.25347  21160418.827    21160426.938
  20706301.673   -27414341.02849 -21343344.54647  20706301.416    20706309.888
  20882380.569   -21685280.95549 -16875487.91347  20882379.959    20882388.667
  23398201.219   -10033007.06049  -7798109.94545  23398200.413    23398214.439
  21247687.144   -19034074.33249 -14583248.61947  21247686.343    21247695.709
 02  3  7  0 41 30.0000000  0  9G26G21G23G10G18G 6G17G22G15
  21739741.678   -20542355.17549 -15996090.09447  21739741.690    21739751.797
  23898933.031    -6700198.74949  -5196268.94345  23898932.494    23898949.284
  20918794.453   -18923625.01749 -14727047.84047  20918793.870    20918802.034
  24529620.956    -2943053.31149  -2277558.23845  24529620.106    24529635.811
  21149193.099   -20273928.57849 -15484081.43747  21149192.579    21149200.679
  20715381.336   -27366627.27849 -21306165.04247  20715381.070    20715389.539
  20877663.364   -21710070.16249 -16894804.13347  20877662.725    20877671.336
  23398057.610   -10033763.04849  -7798699.00345  23398056.642    23398070.589
  21239117.194   -19079109.66849 -14618341.02047  21239116.386    21239125.742
 02  3  7  0 42  0.0000000  0  9G26G21G23G10G18G 6G17G22G15
  21735856.380   -20562772.28749 -16011999.44447  21735856.400    21735866.495
  23883001.604    -6783917.34749  -5261503.89445  23883001.233    23883017.836
  20926528.472   -18882982.47249 -14695378.33247  20926527.886    20926536.048
  24549484.914    -2838667.41549  -2196218.67445  24549483.947    24549499.847
  21138045.540   -20332508.91149 -15529728.34647  21138045.016    21138053.127
  20724550.343   -27318443.87649 -21268619.56447  20724550.092    20724558.573
  20872977.446   -21734694.91949 -16913992.19647  20872976.779    20872985.358
  23398014.498   -10033989.51149  -7798875.44945  23398013.532    23398027.496
  21230580.448   -19123970.28549 -14653297.26047  21230579.636    21230589.010
 02  3  7  0 42 30.0000000  0  9G26G21G23G10G18G 6G17G22G15
  21732089.483   -20582567.22549 -16027423.99647  21732089.498    21732099.538
  23867110.158    -6867427.48349  -5326576.39445  23867109.615    23867126.058
  20934330.937   -18841980.35849 -14663428.64547  20934330.365    20934338.507
  24569350.772    -2734271.39549  -2114871.22845  24569349.733    24569366.015
  21126977.086   -20390673.66649 -15575051.43647  21126976.559    21126984.657
  20733808.927   -27269789.98249 -21230707.48247  20733808.663    20733817.150
  20868323.072   -21759153.65649 -16933050.90447  20868322.421    20868331.001
  23398072.103   -10033685.63749  -7798638.64645  23398071.242    23398085.289
  21222077.224   -19168654.80949 -14688116.28647  21222076.422    21222085.788
 02  3  7  0 43  0.0000000  0  9G26G21G23G10G18G 6G17G22G15
  21728440.988   -20601739.46249 -16042363.31947  21728441.034    21728451.141
  23851257.885    -6950728.76649  -5391486.16145  23851257.489    23851273.994
  20942201.319   -18800621.52449 -14631200.98847  20942200.726    20942208.855
  24589218.073    -2629868.32349  -2033518.26245  24589217.059    24589233.520
  21115987.605   -20448423.02249 -15620050.84047  21115987.097    21115995.171
  20743156.757   -27220667.07249 -21192429.93147  20743156.492    20743164.970
  20863700.178   -21783446.90949 -16951980.66947  20863699.531    20863708.166
  23398230.639   -10032852.86149  -7797989.72745  23398229.832    23398243.672
  21213607.461   -19213163.78949 -14722798.51347  21213606.656    21213615.976
 02  3  7  0 43 30.0000000  0  9G26G21G23G10G18G 6G17G22G15
  21724911.509   -20620287.13749 -16056815.98347  21724911.527    21724921.581
  23835445.909    -7033819.78849  -5456232.10545  23835445.484    23835461.861
  20950139.281   -18758907.36749 -14598696.46247  20950138.691    20950146.818
  24609086.510    -2525459.34249  -1952160.68445  24609085.525    24609102.025
  21105077.446   -20505755.95649 -15664725.75847  21105076.939    21105084.949
  20752593.771   -27171075.37449 -21153787.08947  20752593.499    20752601.977
  20859108.836   -21807574.15849 -16970781.08447  20859108.180    20859116.868
  23398489.919   -10031491.62649  -7796929.01445  23398488.943    23398502.714
  21205171.163   -19257496.48149 -14757343.37347  21205170.356    21205179.666
 02  3  7  0 44  0.0000000  0  9G26G21G23G10G18G 6G17G22G15
  21721500.947   -20638209.45349 -16070781.35147  21721500.988    21721510.970
  23819674.310    -7116699.86949  -5520813.68645  23819673.863    23819690.018
  20958144.372   -18716840.26249 -14565916.90947  20958143.789    20958151.896
  24628955.646    -2421046.71349  -1870800.28345  24628954.759    24628971.143
  21094246.649   -20562672.04949 -15709075.86447  21094246.107    21094254.100
  20762119.816   -27121015.77949 -21114779.65547  20762119.564    20762128.036
  20854549.107   -21831535.45449 -16989452.19047  20854548.467    20854557.148
  23398849.165   -10029602.94049  -7795457.28145  23398848.205    23398862.238
  21196768.400   -19301652.91649 -14791750.89047  21196767.583    21196776.903
 02  3  7  0 44 30.0000000  0  9G26G21G23G10G18G 6G17G22G15
  21718209.698   -20655504.61349 -16084258.02147  21718209.727    21718219.724
  23803943.007    -7199367.50349  -5585229.72545  23803942.484    23803958.440
  20966216.390   -18674421.79349 -14532863.56347  20966215.801    20966223.890
  24648825.246    -2316631.85349  -1789438.12445  24648824.364    24648840.649
  21083495.310   -20619170.20349 -15753100.30547  21083494.790    21083502.815
  20771734.863   -27070488.69149 -21075407.93847  20771734.577    20771743.069
  20850021.113   -21855330.13749 -17007993.47247  20850020.471    20850029.105
  23399308.635   -10027187.21949  -7793574.89545  23399307.797    23399321.925
  21188399.315   -19345632.43249 -14826020.55247  21188398.477    21188407.797
 02  3  7  0 45  0.0000000  0  9G26G21G23G10G18G 6G17G22G15
  21715037.708   -20672173.42949 -16097246.63647  21715037.742    21715047.686
  23788251.584    -7281824.20149  -5649481.39745  23788251.187    23788267.148
  20974354.479   -18631655.95149 -14499539.53847  20974353.877    20974361.969
  24668694.585    -2212218.44649  -1708077.10345  24668693.708    24668709.881
  21072823.279   -20675251.62949 -15796800.02247  21072822.768    21072830.768
  20781438.314   -27019496.64249 -21035673.91247  20781438.060    20781446.569
  20845524.556   -21878959.74249 -17026406.12047  20845523.904    20845532.470
  23399868.254   -10024247.03449  -7791283.84445  23399867.459    23399881.329
  21180063.541   -19389436.76849 -14860153.70447  21180062.718    21180072.045
 02  3  7  0 45 30.0000000  0  9G26G21G23G10G18G 6G17G22G15
  21711985.711   -20688211.39249 -16109743.66847  21711985.716    21711995.679
  23772601.467    -7364065.26649  -5713565.04445  23772601.061    23772616.801
  20982558.889   -18588541.42749 -14465943.80947  20982558.267    20982566.384
  24688563.888    -2107804.97449  -1626716.01345  24688563.003    24688579.119
  21062231.319   -20730912.43849 -15840171.99147  21062230.801    21062238.765
  20791230.776   -26968037.04049 -20995575.56547  20791230.511    20791239.065
  20841060.017   -21902420.96349 -17044687.56047  20841059.345    20841067.860
  23400528.044   -10020780.09849  -7788582.30245  23400527.132    23400540.992
  21171761.756   -19433062.33249 -14894147.55447  21171760.975    21171770.261
 02  3  7  0 46  0.0000000  0  9G26G21G23G10G18G 6G17G22G15
  21709053.558   -20703619.55949 -16121749.97847  21709053.575    21709063.465
  23756992.106    -7446092.02349  -5777481.70045  23756991.627    23757007.361
  20990828.854   -18545082.30349 -14432079.56047  20990828.252    20990836.383
  24708432.280    -2003395.74849  -1545358.25445  24708431.429    24708447.590
  21051719.045   -20786154.29949 -15883217.50747  21051718.529    21051726.467
  20801111.677   -26916112.78749 -20955115.15647  20801111.420    20801119.967
  20836627.175   -21925715.76949 -17062839.33347  20836626.494    20836634.969
  23401287.395   -10016789.29449  -7785472.54545  23401286.496    23401300.435
  21163493.652   -19476511.12449 -14928003.66647  21163492.879    21163502.138
 02  3  7  0 46 30.0000000  0  9G26G21G23G10G18G 6G17G22G15
  21706241.686   -20718395.81749 -16133263.87347  21706241.712    21706251.562
  23741423.808    -7527902.38649  -5841229.76945  23741423.435    23741439.099
  20999164.232   -18501279.59049 -14397947.57647  20999163.641    20999171.760
  24728299.685    -1898991.47449  -1464004.34945  24728298.895    24728314.992
  21041286.815   -20840975.49349 -15925935.22447  21041286.301    21041294.228
  20811081.038   -26863723.66749 -20914292.51547  20811080.779    20811089.303
  20832226.242   -21948842.70849 -17080860.29647  20832225.560    20832234.003
  23402146.442   -10012274.44049  -7781954.46645  23402145.681    23402159.621
  21155259.496   -19519781.89049 -14961721.04847  21155258.689    21155267.922
 02  3  7  0 47  0.0000000  0  8G26G21G23G18G 6G17G22G15
  21703550.532   -20732537.78149 -16144283.51147  21703550.535    21703560.397
  23725897.346    -7609494.36449  -5904807.65045  23725896.874    23725912.383
  21007564.869   -18457134.17849 -14363548.55847  21007564.246    21007572.356
  21030935.029   -20895374.42349 -15968323.90347  21030934.507    21030942.409
  20821138.922   -26810869.32549 -20873107.35547  20821138.675    20821147.202
  20827857.479   -21971800.39249 -17098749.37747  20827856.805    20827865.240
  23403105.432   -10007235.37349  -7778027.88845  23403104.658    23403118.565
  21147059.507   -19562872.93449 -14995298.39947  21147058.666    21147067.897
 02  3  7  0 47 30.0000000  0  8G26G21G23G18G 6G17G22G15
  21700980.410   -20746043.30749 -16154807.23147  21700980.424    21700990.349
  23710412.759    -7690865.82249  -5968213.68645  23710412.264    23710427.662
  21016030.522   -18412646.77349 -14328883.05447  21016029.925    21016038.041
  21020663.931   -20949348.97749 -16010381.90147  21020663.408    21020671.343
  20831285.458   -26757549.26649 -20831559.30847  20831285.211    20831293.717
  20823521.214   -21994587.43249 -17116505.49547  20823520.547    20823528.994
  23404164.215   -10001671.65749  -7773692.48445  23404163.295    23404177.160
  21138893.923   -19605782.96549 -15028734.71247  21138893.079    21138902.303
 02  3  7  0 48  0.0000000  0  8G26G21G23G18G 6G17G22G15
  21698530.483   -20758917.49449 -16164839.00347  21698530.510    21698540.383
  23694968.897    -7772022.26749  -6031452.19245  23694968.386    23694983.830
  21024559.645   -18367825.69249 -14293957.54247  21024559.031    21024567.224
  21010472.409   -21002905.09349 -16052113.84247  21010471.913    21010479.848
  20841519.270   -26703770.44849 -20789653.78647  20841519.007    20841527.528
  20819216.281   -22017209.70849 -17134133.21847  20819215.617    20819224.105
  23405321.457    -9995590.50849  -7768953.91445  23405320.464    23405334.314
  21130761.586   -19648518.08349 -15062034.72847  21130760.759    21130769.970
 02  3  7  0 48 30.0000000  0  8G26G21G23G18G 6G17G22G15
  21696201.571   -20771155.79349 -16174375.28047  21696201.602    21696211.444
  23679566.943    -7852958.77249  -6094519.32045  23679566.418    23679581.792
  21033152.611   -18322669.27149 -14258770.72747  21033152.002    21033160.203
  21000361.412   -21056038.69049 -16093516.54947  21000360.883    21000368.728
  20851840.865   -26649530.19349 -20747388.70247  20851840.611    20851849.128
  20814943.417   -22039663.44349 -17151629.60647  20814942.755    20814951.280
  23406577.393    -9988989.26349  -7763810.07445  23406576.565    23406590.511
  21122663.303   -19691074.17749 -15095195.24747  21122662.495    21122671.727
 02  3  7  0 49  0.0000000  0  8G26G21G23G18G 6G17G22G15
  21693993.953   -20782756.62649 -16183414.82447  21693993.961    21694003.841
  23664207.350    -7933673.71249  -6157413.81745  23664206.661    23664221.920
  21041809.145   -18277178.85949 -14223323.66147  21041808.559    21041816.711
  20990331.022   -21108748.42249 -16134588.97747  20990330.507    20990338.304
  20862250.345   -26594828.50249 -20704764.06247  20862250.085    20862258.598
  20810702.842   -22061947.59249 -17168993.85147  20810702.191    20810710.749
  23407932.448    -9981868.26449  -7758261.21345  23407931.627    23407945.548
  21114599.295   -19733450.28049 -15128215.52047  21114598.498    21114607.752
 02  3  7  0 49 30.0000000  0  8G26G21G23G18G 6G17G22G15
  21691907.131   -20793722.51649 -16191959.61247  21691907.155    21691916.975
  23648889.062    -8014170.71849  -6220138.48745  23648888.406    23648903.570
  21050528.208   -18231360.03049 -14187620.67847  21050527.603    21050535.749
  20980380.664   -21161037.38049 -16175333.52047  20980380.165    20980387.957
  20872746.655   -26539670.00049 -20661783.46547  20872746.398    20872754.972
  20806493.915   -22084065.47149 -17186228.52747  20806493.264    20806501.839
  23409385.749    -9974232.11149  -7752310.95545  23409384.819    23409398.594
  21106568.940   -19775649.66449 -15161098.09047  21106568.147    21106577.400
 02  3  7  0 50  0.0000000  0  9G26G21G23G29G18G 6G17G22G15
  21689941.061   -20804054.36749 -16200010.34547  21689941.057    21689950.856
  23633612.121    -8094450.36049  -6282693.75945  23633611.441    23633626.562
  21059309.010   -18185216.55249 -14151664.73047  21059308.404    21059316.569
  24438475.060    -3967727.02259  -2800026.11845  24438474.968    24438495.331
  20970510.145   -21212906.92649 -16215751.25447  20970509.648    20970517.428
  20883329.477   -26484057.08949 -20618448.78447  20883329.232    20883337.802
  20802316.394   -22106018.49949 -17203334.74847  20802315.747    20802324.302
  23410936.274    -9966083.47349  -7745961.37145  23410935.337    23410949.279
  21098571.991   -19817673.75949 -15193844.07947  21098571.193    21098580.416
 02  3  7  0 50 30.0000000  0  9G26G21G23G29G18G 6G17G22G15
  21688096.417   -20813747.67849 -16207563.51547  21688096.443    21688106.183
  23618377.575    -8174507.74849  -6345075.87345  23618376.888    23618391.878
  21068151.890   -18138746.88049 -14115454.61447  21068151.312    21068159.485
  24418475.597    -4072822.83649  -2881918.35945  24418475.432    24418495.736
  20960720.220   -21264353.06349 -16255839.06247  20960719.706    20960727.439
  20893999.252   -26427987.26249 -20574758.06647  20893998.976    20894007.587
  20798170.946   -22127802.83749 -17220309.52347  20798170.286    20798178.814
  23412584.710    -9957419.86749  -7739210.50245  23412583.865    23412597.910
  21090609.089   -19859518.74249 -15226450.49847  21090608.286    21090617.480
 02  3  7  0 51  0.0000000  0  9G26G21G23G29G18G 6G17G22G15
  21686374.035   -20822798.90249 -16214616.35647  21686374.055    21686383.727
  23603185.924    -8254339.40549  -6407282.07345  23603185.245    23603200.241
  21077056.975   -18091950.45849 -14078989.87947  21077056.397    21077064.526
  24398468.736    -4177957.34849  -2963840.73545  24398468.533    24398488.804
  20951011.488   -21315372.30649 -16295594.21547  20951010.967    20951018.703
  20904756.293   -26371458.60849 -20530709.81547  20904756.048    20904764.692
  20794058.150   -22149415.51149 -17237150.52847  20794057.514    20794066.013
  23414331.838    -9948239.65349  -7732057.09245  23414330.975    23414344.811
  21082680.870   -19901181.70449 -15258915.08647  21082680.074    21082689.220
 02  3  7  0 51 30.0000000  0  9G26G21G23G29G18G 6G17G22G15
  21684774.419   -20831204.67549 -16221166.24047  21684774.443    21684784.090
  23588037.746    -8333942.10349  -6469309.85945  23588037.122    23588052.088
  21086024.382   -18044826.81449 -14042270.16547  21086023.779    21086031.874
  24378455.320    -4283125.73249  -3045789.51645  24378455.278    24378475.471
  20941384.478   -21365961.91949 -16335014.60447  20941383.982    20941391.682
  20915601.034   -26314469.54549 -20486302.81147  20915600.781    20915609.401
  20789978.583   -22170853.63849 -17253855.52547  20789977.938    20789986.418
  23416177.487    -9938541.31649  -7724499.95245  23416176.529    23416190.316
  21074787.883   -19942659.64649 -15291235.50547  21074787.059    21074796.165
 02  3  7  0 52  0.0000000  0  9G26G21G23G29G18G 6G17G22G15
  21683296.768   -20838969.38949 -16227216.60547  21683296.796    21683306.464
  23572932.480    -8413320.15149  -6531162.59946  23572931.769    23572946.656
  21095052.569   -17997383.07349 -14005301.03247  21095051.979    21095060.138
  24358435.049    -4388330.28049  -3127766.50545  24358434.897    24358455.227
  20931838.475   -21416126.58649 -16374103.86747  20931837.960    20931845.601
  20926532.147   -26257026.23349 -20441541.85047  20926531.873    20926540.551
  20785931.342   -22192122.09049 -17270428.31447  20785930.700    20785939.150
  23418120.175    -9928331.22749  -7716544.04945  23418119.314    23418133.265
  21066929.086   -19983957.56449 -15323415.65047  21066928.259    21066937.358
 02  3  7  0 52 30.0000000  0  9G26G21G23G29G18G 6G17G22G15
  21681941.618   -20846090.55649 -16232765.50447  21681941.644    21681951.298
  23557870.365    -8492471.16749  -6592838.43646  23557869.677    23557884.472
  21104141.627   -17949619.59949 -13968082.75847  21104141.047    21104149.255
  24338408.750    -4493567.05149  -3209768.61145  24338408.631    24338428.603
  20922373.634   -21465864.16149 -16412860.32347  20922373.123    20922380.770
  20937549.824   -26199127.97449 -20396426.37747  20937549.566    20937558.269
  20781916.724   -22213218.98949 -17286867.41447  20781916.079    20781924.493
  23420160.503    -9917608.82949  -7708188.93945  23420159.661    23420173.676
  21059104.912   -20025073.40549 -15355453.90847  21059104.106    21059113.228
 02  3  7  0 53  0.0000000  0  9G26G21G23G29G18G 6G17G22G15
  21680709.098   -20852567.12249 -16237812.12247  21680709.098    21680718.749
  23542851.597    -8571393.89149  -6654336.37946  23542850.954    23542865.734
  21113291.297   -17901538.01649 -13930616.61447  21113290.723    21113298.918
  24318376.810    -4598833.00849  -3291793.46245  24318376.858    24318396.501
  20912990.208   -21515174.05249 -16451283.53047  20912989.718    20912997.334
  20948654.037   -26140775.36849 -20350956.88247  20948653.769    20948662.444
  20777934.968   -22234143.40149 -17303172.11547  20777934.305    20777942.720
  23422298.403    -9906374.87949  -7699435.22145  23422297.521    23422311.408
  21051315.513   -20066006.54549 -15387349.80447  21051314.728    21051323.844
 02  3  7  0 53 30.0000000  0  9G26G21G23G29G18G 6G17G22G15
  21679599.365   -20858398.57649 -16242356.04447  21679599.356    21679608.994
  23527876.532    -8650087.11949  -6715655.48446  23527875.911    23527890.659
  21122501.032   -17853140.62049 -13892904.37247  21122500.427    21122508.639
  24298339.807    -4704125.49849  -3373839.02245  24298339.891    24298359.280
  20903688.264   -21564056.00649 -16489373.27447  20903687.738    20903695.329
  20959844.440   -26081969.46649 -20305134.16147  20959844.182    20959852.909
  20773986.005   -22254895.25949 -17319342.35647  20773985.329    20773993.768
  23424533.216    -9894630.68849  -7690283.91345  23424532.254    23424546.160
  21043560.966   -20106756.83449 -15419103.21347  21043560.167    21043569.274
 02  3  7  0 54  0.0000000  0  9G26G21G23G29G18G 6G17G22G15
  21678612.334   -20863585.32649 -16246397.61847  21678612.329    21678621.943
  23512944.940    -8728551.56149  -6776796.32246  23512944.318    23512959.085
  21131770.228   -17804430.51249 -13854948.45847  21131769.630    21131777.882
  24278298.101    -4809443.06049  -3455904.13245  24278298.304    24278317.387
  20894467.520   -21612510.72349 -16527130.11347  20894467.012    20894474.591
  20971120.778   -26022712.22949 -20258959.75347  20971120.525    20971129.245
  20770069.689   -22275475.32549 -17335378.73147  20770069.040    20770077.499
  23426864.748    -9882378.33049  -7680736.63045  23426863.819    23426877.757
  21035841.132   -20147324.71149 -15450714.48347  21035840.321    21035849.406
 02  3  7  0 54 30.0000000  0  9G26G21G23G29G18G 6G17G22G15
  21677747.658   -20868128.72049 -16249937.87147  21677747.688    21677757.294
  23498056.651    -8806788.76349  -6837760.08946  23498056.105    23498070.816
  21141098.143   -17755411.76449 -13816752.04647  21141097.553    21141105.857
  24258251.922    -4914785.07549  -3537988.28745  24258252.052    24258271.156
  20885327.860   -21660539.70549 -16564555.20847  20885327.339    20885334.849
  20982482.389   -25963006.87749 -20212436.16347  20982482.090    20982490.851
  20766185.775   -22295885.33449 -17351282.59747  20766185.129    20766193.580
  23429292.342    -9869621.34349  -7670796.14045  23429291.409    23429305.354
  21028155.566   -20187712.20049 -15482185.19047  21028154.762    21028163.854
 02  3  7  0 55  0.0000000  0  9G26G21G23G29G18G 6G17G22G15
  21677006.290   -20872024.77249 -16252973.69947  21677006.291    21677015.828
  23483212.479    -8884794.29349  -6898543.32746  23483211.881    23483226.584
  21150485.173   -17706082.88749 -13778313.98147  21150484.574    21150492.888
  24238202.316    -5020145.40349  -3620086.74045  24238202.332    24238221.436
  20876269.960   -21708139.17749 -16601645.62547  20876269.430    20876276.908
  20993929.670   -25902851.00549 -20165561.52247  20993929.405    20993938.194
  20762334.966   -22316121.33749 -17367050.88047  20762334.315    20762342.784
  23431816.394    -9856357.44149  -7660460.63445  23431815.402    23431829.503
  21020505.068   -20227915.39949 -15513512.29347  21020504.278    21020513.341
 02  3  7  0 55 30.0000000  0  9G26G21G23G29G18G 6G17G22G15
  21676387.800   -20875274.58249 -16255505.96747  21676387.779    21676397.349
  23468412.153    -8962568.98849  -6959146.72346  23468411.627    23468426.273
  21159930.436   -17656447.80249 -13739637.31747  21159929.845    21159938.165
  24218149.218    -5125523.42749  -3702199.01045  24218149.095    24218168.040
  20867293.462   -21755310.59049 -16638402.48747  20867292.944    20867300.437
  21005462.234   -25842247.46249 -20118338.04047  21005461.951    21005470.704
  20758516.936   -22336184.86249 -17382684.76847  20758516.308    20758524.796
  23434436.355    -9842589.60249  -7649732.44945  23434435.388    23434449.434
  21012889.366   -20267935.75649 -15544696.92147  21012888.600    21012897.625
 02  3  7  0 56  0.0000000  0  9G26G21G23G29G18G 6G17G22G15
  21675892.725   -20877875.86449 -16257532.89447  21675892.752    21675902.257
  23453656.424    -9040110.51749  -7019568.43946  23453655.912    23453670.224
  21169433.944   -17606506.69249 -13700722.18547  21169433.346    21169441.685
  24198093.573    -5230914.51949  -3784321.48045  24198093.499    24198112.369
  20858398.761   -21802052.03349 -16674824.31147  20858398.242    20858405.725
  21017080.013   -25781195.63349 -20070765.25047  21017079.738    21017088.542
  20754732.105   -22356073.86349 -17398182.65847  20754731.469    20754740.004
  23437152.310    -9828317.30949  -7638611.19945  23437151.347    23437165.297
  21005308.930   -20307771.03249 -15575737.32047  21005308.158    21005317.149
 02  3  7  0 56 30.0000000  0  9G26G21G23G29G18G 6G17G22G15
  21675520.848   -20879829.95649 -16259055.51047  21675520.859    21675530.353
  23438944.654    -9117420.25749  -7079809.54646  23438944.058    23438958.344
  21178994.913   -17556263.41749 -13661571.60047  21178994.307    21179002.642
  24178035.621    -5336317.93549  -3866453.56845  24178035.485    24178054.078
  20849585.668   -21848364.94749 -16710912.21747  20849585.153    20849592.578
  21028782.641   -25719698.25949 -20022845.28247  21028782.377    21028791.201
  20750980.284   -22375789.62949 -17413545.55547  20750979.666    20750988.182
  23439963.493    -9813543.73049  -7627099.34145  23439962.621    23439976.633
  20997763.424   -20347422.56749 -15606634.54047  20997762.672    20997771.646
 02  3  7  0 57  0.0000000  0  9G26G21G23G29G18G 6G17G22G15
  21675272.397   -20881135.25149 -16260072.57647  21675272.451    21675281.918
  23424277.179    -9194496.01749  -7139868.33946  23424276.711    23424291.054
  21188613.199   -17505718.96349 -13622186.32747  21188612.599    21188620.920
  24157976.145    -5441729.84749  -3948592.27445  24157975.981    24157994.429
  20840854.358   -21894248.05849 -16746665.21247  20840853.827    20840861.218
  21040570.022   -25657755.51049 -19974578.26347  21040569.757    21040578.556
  20747261.661   -22395330.77449 -17428772.38047  20747261.030    20747269.542
  23442870.146    -9798269.07849  -7615197.03545  23442869.259    23442883.307
  20990253.124   -20386889.02049 -15637387.53047  20990252.361    20990261.344
 02  3  7  0 57 30.0000000  0  9G26G21G23G29G18G 6G17G22G15
  21675147.437   -20881791.96449 -16260584.25247  21675147.458    21675156.917
  23409654.496    -9271337.94749  -7199744.92646  23409653.994    23409668.302
  21198288.276   -17454876.04049 -13582568.48347  21198287.711    21198295.975
  24137915.490    -5547148.38649  -4030736.15845  24137915.369    24137933.284
  20832204.713   -21939701.58249 -16782083.46747  20832204.205    20832211.625
  21052441.819   -25595369.01749 -19925965.46747  21052441.558    21052450.340
  20743576.273   -22414697.45349 -17443863.26247  20743575.661    20743584.159
  23445871.949    -9782495.34749  -7602905.84745  23445871.021    23445884.928
  20982778.002   -20426170.75549 -15667996.59147  20982777.226    20982786.209
 02  3  7  0 58  0.0000000  0  9G26G21G23G29G18G 6G17G22G15
  21675145.822   -20881800.20049 -16260590.63447  21675145.809    21675155.272
  23395076.385    -9347945.37049  -7259438.81046  23395075.847    23395090.163
  21208019.698   -17403737.17549 -13542720.02647  21208019.124    21208027.404
  24117853.933    -5652571.30749  -4112883.45245  24117853.658    24117871.523
  20823636.864   -21984725.65049 -16817167.08247  20823636.347    20823643.712
  21064397.738   -25532540.47049 -19877008.22847  21064397.481    21064406.256
  20739924.040   -22433889.96049 -17458818.42847  20739923.410    20739931.898
  23448968.153    -9766224.32949  -7590227.15445  23448967.198    23448981.197
  20975338.056   -20465267.77749 -15698461.72547  20975337.276    20975346.253
 02  3  7  0 58 30.0000000  0  9G26G21G23G29G18G 6G17G22G15
  21675268.078   -20881157.19749 -16260089.55347  21675268.114    21675277.562
  23380543.490    -9424315.36649  -7318947.67846  23380542.988    23380557.159
  21217807.426   -17352302.18649 -13502640.82447  21217806.858    21217815.149
  24097792.360    -5757993.52949  -4195030.20345  24097792.087    24097809.888
  20815151.200   -22029317.97349 -16851914.27947  20815150.651    20815157.974
  21076438.025   -25469268.69349 -19827705.60747  21076437.766    21076446.567
  20736305.492   -22452905.40949 -17473635.63047  20736304.875    20736313.321
  23452158.928    -9749455.09049  -7577160.24145  23452158.149    23452172.332
  20967933.776   -20504177.40549 -15728780.83447  20967932.982    20967941.931
 02  3  7  0 59  0.0000000  0  9G26G21G23G29G18G 6G17G22G15
  21675513.782   -20879866.44949 -16259083.73047  21675513.734    21675523.172
  23366055.171    -9500451.38849  -7378274.22446  23366054.627    23366068.641
  21227650.434   -17300576.96949 -13462335.47547  21227649.844    21227658.170
  24077730.617    -5863416.32849  -4277177.40745  24077730.425    24077748.075
  20806746.988   -22073482.03949 -16886327.76347  20806746.479    20806753.791
  21088561.633   -25405558.81549 -19778061.61747  21088561.383    21088570.249
  20732720.016   -22471747.26249 -17488317.56947  20732719.397    20732727.793
  23455444.081    -9732192.90149  -7563709.22445  23455443.214    23455457.241
  20960564.444   -20542903.15749 -15758956.66447  20960563.654    20960572.591
 02  3  7  0 59 30.0000000  0  9G26G21G23G29G18G 6G17G22G15
  21675883.388   -20877923.57249 -16257569.75947  21675883.348    21675892.851
  23351612.267    -9576348.39649  -7437414.52546  23351611.746    23351625.744
  21237549.015   -17248559.53049 -13421802.42747  21237548.431    21237556.768
  24057670.033    -5968832.97749  -4359319.80945  24057669.892    24057687.588
  20798425.045   -22117213.81149 -16920404.39447  20798424.531    20798431.872
  21100769.173   -25341407.94349 -19728073.99047  21100768.902    21100777.802
  20729168.383   -22490411.16849 -17502860.83847  20729167.736    20729176.125
  23458823.450    -9714435.13249  -7549872.02645  23458822.465    23458836.441
  20953230.988   -20581440.47049 -15788985.65147  20953230.191    20953239.118
 02  3  7  1  0  0.0000000  0  9G26G21G23G29G18G 6G17G22G15
  21676376.739   -20875330.89149 -16255549.44747  21676376.727    21676386.215
  23337214.575    -9652008.35249  -7496370.11146  23337214.064    23337228.007
  21247502.420   -17196254.44249 -13381045.24047  21247501.810    21247510.117
  24037610.640    -6074243.17649  -4441457.18545  24037610.609    24037628.338
  20790184.951   -22160515.24149 -16954145.69847  20790184.445    20790191.793
  21113059.956   -25276819.54349 -19677745.43347  21113059.693    21113068.587
  20725650.221   -22508899.12449 -17517267.00647  20725649.581    20725657.929
  23462295.960    -9696185.87949  -7535651.85645  23462295.101    23462309.198
  20945932.953   -20619791.58749 -15818869.55547  20945932.163    20945941.071
 02  3  7  1  0 30.0000000  0  9G26G21G23G29G18G 6G17G22G15
  21676994.256   -20872085.92749 -16253020.86047  21676994.199    21677003.646
  23322862.457    -9727428.36249  -7555138.73646  23322861.899    23322875.743
  21257510.498   -17143661.76749 -13340063.95947  21257509.912    21257518.191
  24017553.438    -6179642.40349  -4523586.01045  24017553.544    24017571.305
  20782027.244   -22203384.26249 -16987550.06047  20782026.712    20782034.023
  21125434.119   -25211793.03049 -19627075.48847  21125433.876    21125442.768
  20722165.998   -22527208.87449 -17531534.31947  20722165.363    20722173.678
  23465862.325    -9677444.40149  -7521048.13945  23465861.522    23465875.633
  20938670.794   -20657954.11149 -15848606.51047  20938670.001    20938678.887
 02  3  7  1  1  0.0000000  0  9G26G21G23G29G18G 6G17G22G15
  21677735.343   -20868190.86149 -16249985.69947  21677735.326    21677744.790
  23308555.530    -9802610.61349  -7613722.09146  23308555.023    23308568.749
  21267572.507   -17090785.71349 -13298861.84847  21267571.906    21267580.203
  23997498.584    -6285030.20949  -4605705.93945  23997498.599    23997516.160
  20773951.290   -22245823.09549 -17020619.20147  20773950.793    20773958.117
  21137891.016   -25146331.91449 -19576066.88947  21137890.763    21137899.684
  20718715.358   -22545342.08949 -17545664.06947  20718714.712    20718723.000
  23469521.866    -9658214.55049  -7506063.84345  23469520.979    23469535.007
  20931444.169   -20695929.81849 -15878197.89047  20931443.373    20931452.243
 02  3  7  1  1 30.0000000  0  9G26G21G23G29G18G 6G17G22G15
  21678600.206   -20863646.02249 -16246444.22147  21678600.207    21678609.565
  23294294.138    -9877554.52549  -7672119.71546  23294293.587    23294307.185
  21277687.909   -17037628.84649 -13257440.93547  21277687.323    21277695.684
  23977446.315    -6390404.35449  -4687815.19345  23977446.111    23977463.504
  20765957.187   -22287832.06249 -17053353.38747  20765956.688    20765964.014
  21150430.274   -25080438.05949 -19524721.10147  21150430.032    21150439.016
  20715298.245   -22563298.97949 -17559656.42347  20715297.598    20715305.883
  23473273.724    -9638498.17549  -7490700.44945  23473272.831    23473286.962
  20924253.140   -20733718.65749 -15907643.66547  20924252.352    20924261.209
 02  3  7  1  2  0.0000000  0  9G26G21G23G29G18G 6G17G22G15
  21679589.313   -20858448.31349 -16242394.00847  21679589.303    21679598.610
  23280078.682    -9952256.24849  -7730328.63146  23280078.077    23280091.700
  21287856.873   -16984190.48349 -13215800.67447  21287856.304    21287864.679
  23957397.606    -6495759.26749  -4769909.46745  23957397.290    23957414.604
  20758045.462   -22329408.09949 -17085750.22047  20758044.945    20758052.254
  21163052.187   -25014109.71949 -19473036.75147  21163051.934    21163060.922
  20711915.333   -22581075.98349 -17573508.60247  20711914.690    20711922.998
  23477118.399    -9618294.07849  -7474957.02145  23477117.500    23477131.623
  20917098.243   -20771317.59349 -15936941.46547  20917097.445    20917106.297
 02  3  7  1  2 30.0000000  0  9G26G21G23G29G18G 6G17G22G15
  21680702.792   -20852596.40449 -16237834.03347  21680702.802    21680712.173
  23265909.470   -10026714.06349  -7788347.49146  23265908.987    23265922.513
  21298079.290   -16930471.57249 -13173941.80747  21298078.697    21298087.063
  23937353.095    -6601091.15749  -4851985.80945  23937352.926    23937370.376
  20750216.353   -22370549.94949 -17117808.73147  20750215.835    20750223.124
  21175756.806   -24947346.96849 -19421013.89947  21175756.539    21175765.480
  20708566.886   -22598671.88049 -17587219.66247  20708566.258    20708574.596
  23481055.994    -9597602.56549  -7458833.77945  23481055.044    23481069.125
  20909979.796   -20808725.05749 -15966090.06847  20909978.993    20909987.855
 02  3  7  1  3  0.0000000  0  9G26G21G23G29G18G 6G17G22G15
  21681939.848   -20846095.68049 -16232768.49547  21681939.836    21681949.178
  23251785.912   -10100933.43049  -7846180.52346  23251785.354    23251798.787
  21308353.656   -16876479.44849 -13131870.05447  21308353.064    21308361.412
  23917312.523    -6706402.76149  -4934046.36045  23917312.480    23917329.854
  20742468.887   -22411263.00849 -17149533.11747  20742468.368    20742475.627
  21188542.783   -24880156.37149 -19368657.66147  21188542.517    21188551.483
  20705252.014   -22616091.34149 -17600793.23847  20705251.403    20705259.786
  23485084.902    -9576430.62749  -7442336.18645  23485083.965    23485098.022
  20902896.820   -20845945.97549 -15995093.31147  20902896.026    20902904.884
 02  3  7  1  3 30.0000000  0  9G26G21G23G29G18G 6G17G22G15
  21683300.654   -20838944.10149 -16227195.79347  21683300.654    21683310.008
  23237708.086   -10174911.72949  -7903825.73746  23237707.560    23237721.050
  21318679.965   -16822214.43149 -13089585.65447  21318679.365    21318687.734
  23897276.785    -6811689.56749  -5016087.59145  23897276.701    23897294.052
  20734803.374   -22451545.27749 -17180921.81747  20734802.855    20734810.116
  21201410.210   -24812537.59549 -19315967.77047  21201409.959    21201418.987
  20701971.166   -22633332.24249 -17614227.67247  20701970.554    20701978.959
  23489205.295    -9554778.05449  -7425464.06945  23489204.432    23489218.377
  20895849.811   -20882977.99349 -16023949.36247  20895849.025    20895857.861
 02  3  7  1  4  0.0000000  0  9G26G21G23G29G18G 6G17G22G15
  21684785.958   -20831138.44949 -16221113.42947  21684785.935    21684795.302
  23223677.025   -10248644.53949  -7961279.65346  23223676.534    23223689.982
  21329058.503   -16767675.01649 -13047087.44247  21329057.900    21329066.267
  23877247.036    -6916945.35749  -5098104.66845  23877246.907    23877264.100
  20727220.430   -22491393.49149 -17211972.30147  20727219.924    20727227.173
  21214359.605   -24744488.61849 -19262942.66847  21214359.355    21214368.386
  20698725.003   -22650390.75249 -17627519.99647  20698724.401    20698732.817
  23493417.312    -9532643.13849  -7408216.10645  23493416.427    23493430.522
  20888839.438   -20919817.36249 -16052655.29447  20888838.678    20888847.497
 02  3  7  1  4 30.0000000  0  9G26G21G23G29G18G 6G17G22G15
  21686395.482   -20822680.19849 -16214522.53447  21686395.491    21686404.863
  23209692.482   -10322132.76549  -8018542.99346  23209691.965    23209705.304
  21339488.588   -16712864.96149 -13004378.33747  21339487.990    21339496.342
  23857223.361    -7022169.11449  -5180096.80845  23857223.099    23857240.259
  20719719.844   -22530809.06249 -17242685.65347  20719719.317    20719726.550
  21227390.208   -24676012.45649 -19209584.69247  21227389.934    21227399.039
  20695513.339   -22667267.87449 -17640670.97347  20695512.745    20695521.133
  23497720.549    -9510029.01249  -7390594.72245  23497719.717    23497733.903
  20881865.550   -20956465.09749 -16081211.90247  20881864.766    20881873.559
 02  3  7  1  5  0.0000000  0  9G26G21G23G29G18G 6G17G22G15
  21688129.072   -20813570.26849 -16207423.84447  21688129.051    21688138.418
  23195754.274   -10395377.37149  -8075616.50546  23195753.784    23195767.076
  21349969.540   -16657787.40549 -12961460.79247  21349968.924    21349977.285
  23837205.994    -7127359.07249  -5262062.63445  23837205.786    23837222.836
  20712301.393   -22569792.73249 -17273062.46447  20712300.893    20712308.114
  21240501.695   -24607111.23149 -19155895.49847  21240501.447    21240510.567
  20692336.085   -22683964.31749 -17653681.15947  20692335.494    20692343.874
  23502114.736    -9486938.33449  -7372602.02445  23502113.815    23502127.979
  20874927.990   -20992921.96849 -16109619.79047  20874927.189    20874935.963
 02  3  7  1  5 30.0000000  0  9G26G21G23G29G18G 6G17G22G15
  21689986.263   -20803810.48549 -16199818.78047  21689986.235    21689995.561
  23181862.274   -10468379.52249  -8132501.08846  23181861.782    23181875.030
  21360500.655   -16602446.08549 -12918337.71847  21360500.073    21360508.419
  23817195.290    -7232514.44449  -5344001.52145  23817195.149    23817212.005
  20704964.827   -22608346.49549 -17303104.28747  20704964.332    20704971.505
  21253693.502   -24537788.21649 -19101877.64247  21253693.234    21253702.358
  20689192.962   -22700481.29449 -17666551.50847  20689192.390    20689200.757
  23506598.857    -9463374.57849  -7354240.67845  23506597.951    23506612.049
  20868026.455   -21029189.31549 -16137880.00047  20868025.686    20868034.431
 02  3  7  1  6  0.0000000  0  9G26G21G23G29G18G 6G17G22G15
  21691967.876   -20793397.00749 -16191704.34447  21691967.863    21691977.157
  23168017.332   -10541134.17849  -8189192.82046  23168016.806    23168030.061
  21371082.340   -16546838.86249 -12875007.44147  21371081.778    21371090.138
  23797192.658    -7337628.26549  -5425908.04145  23797192.387    23797209.188
  20697710.853   -22646466.28349 -17332807.94447  20697710.343    20697717.488
  21266966.018   -24468040.70449 -19047529.00247  21266965.736    21266974.923
  20686084.918   -22716814.21449 -17679278.43147  20686084.332    20686092.666
  23511173.299    -9439335.10349  -7335508.64945  23511172.315    23511186.537
  20861161.956   -21065262.23849 -16165988.70847  20861161.179    20861169.919
 02  3  7  1  6 30.0000000  0  9G26G21G23G29G18G 6G17G22G15
  21694073.486   -20782331.48649 -16183081.82247  21694073.476    21694082.817
  23154219.233   -10613642.85249  -8245692.86746  23154218.719    23154231.989
  21381713.917   -16490969.59749 -12831472.97247  21381713.338    21381721.715
  23777198.111    -7442699.48049  -5507781.37545  23777197.759    23777214.431
  20690539.122   -22684153.64349 -17362174.64548  20690538.618    20690545.757
  21280318.764   -24397871.83749 -18992852.02847  21280318.492    21280327.654
  20683011.701   -22732964.20549 -17691862.80547  20683011.099    20683019.406
  23515837.714    -9414823.54849  -7316408.76945  23515836.774    23515851.003
  20854334.189   -21101142.47549 -16193947.26347  20854333.385    20854342.114
 02  3  7  1  7  0.0000000  0  9G26G21G23G29G18G 6G17G22G15
  21696303.040   -20770614.95249 -16173952.02547  21696303.052    21696312.376
  23140468.007   -10685905.52349  -8302001.24646  23140467.428    23140480.678
  21392394.831   -16434841.05949 -12787736.48147  21392394.244    21392402.643
  23757211.854    -7547726.33449  -5589620.14045  23757211.586    23757227.963
  20683449.555   -22721409.55749 -17391205.16348  20683449.036    20683456.120
  21293751.281   -24327283.73749 -18937848.38947  21293751.003    21293760.186
  20679973.160   -22748931.77649 -17704305.03847  20679972.543    20679980.858
  23520591.503    -9389842.29049  -7296942.87145  23520590.614    23520604.890
  20847542.986   -21136830.16349 -16221755.78647  20847542.177    20847550.909
 02  3  7  1  7 30.0000000  0  9G26G21G23G29G18G 6G17G22G15
  21698656.524   -20758247.29049 -16164314.84847  21698656.523    21698665.776
  23126763.715   -10757921.27849  -8358117.21946  23126763.155    23126776.269
  21403124.725   -16378455.22949 -12743799.49147  21403124.135    21403132.534
  23737234.547    -7652705.66949  -5671421.89445  23737234.285    23737250.597
  20676442.063   -22758233.73149 -17419899.25647  20676441.538    20676448.616
  21307263.280   -24256277.77549 -18882519.14447  21307263.029    21307272.228
  20676969.468   -22764716.05449 -17716604.44147  20676968.853    20676977.178
  23525434.477    -9364392.95049  -7277112.23545  23525433.531    23525447.720
  20840788.530   -21172324.63849 -16249413.75147  20840787.753    20840796.509
 02  3  7  1  8  0.0000000  0  9G26G21G23G29G18G 6G17G22G15
  21701134.004   -20745227.76149 -16154169.73247  21701134.018    21701143.277
  23113106.772   -10829688.90549  -8414039.84246  23113106.170    23113119.152
  21413903.351   -16321813.05749 -12699662.75247  21413902.764    21413911.206
  23717267.079    -7757633.66249  -5753183.62145  23717266.908    23717282.991
  20669516.952   -22794625.07349 -17448256.07948  20669516.432    20669523.521
  21320854.773   -24184854.49449 -18826864.71247  21320854.510    21320863.704
  20674000.885   -22780315.66449 -17728759.95247  20674000.268    20674008.620
  23530366.275    -9338476.34149  -7256917.49545  23530365.317    23530379.467
  20834071.162   -21207624.26049 -16276919.89047  20834070.403    20834079.168
 02  3  7  1  8 30.0000000  0  9G26G21G23G29G18G 6G17G22G15
  21703735.388   -20731556.79349 -16143517.00247  21703735.436    21703744.733
  23099496.844   -10901208.03849  -8469768.84046  23099496.242    23099509.304
  21424730.388   -16264916.78349 -12655328.01647  21424729.788    21424738.206
  23697309.903    -7862508.13249  -5834903.65245  23697309.714    23697325.695
  20662674.151   -22830583.88549 -17476275.87148  20662673.639    20662680.725
  21334525.302   -24113015.59149 -18770886.42247  21334525.046    21334534.268
  20671067.538   -22795730.28849 -17740771.33047  20671066.938    20671075.290
  23535386.428    -9312094.28949  -7236360.09045  23535385.562    23535399.790
  20827390.935   -21242728.77249 -16304274.00747  20827390.158    20827398.939
 02  3  7  1  9  0.0000000  0  9G26G21G23G29G18G 6G17G22G15
  21706460.697   -20717235.43049 -16132357.46047  21706460.690    21706469.951
  23085934.287   -10972478.86149  -8525304.35046  23085933.751    23085946.698
  21435605.212   -16207769.34949 -12610797.56047  21435604.610    21435612.997
  23677363.281    -7967326.82249  -5916580.21245  23677363.134    23677379.225
  20655913.495   -22866111.06949 -17503959.32248  20655912.999    20655920.069
  21348274.556   -24040763.13449 -18714585.86547  21348274.307    21348283.532
  20668169.356   -22810960.11649 -17752638.69947  20668168.774    20668177.109
  23540494.870    -9285249.46949  -7215442.06945  23540494.024    23540508.247
  20820747.746   -21277638.58549 -16331476.40047  20820746.977    20820755.784
 02  3  7  1  9 30.0000000  0  9G26G21G23G29G18G 6G17G22G15
  21709309.826   -20702262.87349 -16120690.50047  21709309.828    21709319.143
  23072419.412   -11043499.75349  -8580645.12046  23072418.848    23072431.654
  21446527.705   -16150371.66449 -12566072.10847  21446527.098    21446535.465
  23657428.002    -8072085.86749  -5998210.31845  23657427.804    23657443.837
  20649235.183   -22901205.82249 -17531305.82048  20649234.682    20649241.688
  21362102.445   -23968097.49249 -18657963.36347  21362102.184    21362111.428
  20665306.663   -22826003.58449 -17764360.85647  20665306.066    20665314.400
  23545691.543    -9257942.45049  -7194163.92045  23545690.527    23545704.692
  20814141.916   -21312352.06349 -16358525.81447  20814141.190    20814149.971
 02  3  7  1 10  0.0000000  0  9G26G21G23G29G18G 6G17G22G15
  21712282.391   -20686641.72749 -16108518.14447  21712282.400    21712291.761
  23058951.645   -11114272.37649  -8635792.43146  23058951.111    23058963.982
  21457496.923   -16092728.06549 -12521155.03847  21457496.324    21457504.685
  23637504.220    -8176784.90849  -6079793.64845  23637503.857    23637519.803
  20642638.701   -22935870.32649 -17558317.06048  20642638.189    20642645.188
  21376008.182   -23895022.56849 -18601021.95347  21376007.918    21376017.246
  20662479.111   -22840862.37449 -17775939.10547  20662478.524    20662486.866
  23550974.909    -9230177.43249  -7172528.86345  23550973.931    23550988.230
  20807573.141   -21346871.04849 -16385423.67247  20807572.388    20807581.157
 02  3  7  1 10 30.0000000  0  9G26G21G23G29G18G 6G17G22G15
  21715379.014   -20670368.98349 -16095838.05947  21715379.006    21715388.343
  23045531.903   -11184793.10749  -8690743.46146  23045531.331    23045544.088
  21468513.224   -16034837.17849 -12476045.27547  21468512.618    21468520.969
  23617593.037    -8281417.87949  -6161325.49845  23617592.701    23617608.337
  20636124.648   -22970101.36449 -17584990.53448  20636124.149    20636131.162
  21389992.145   -23821536.71849 -18543760.33047  21389991.867    21390001.186
  20659687.440   -22855532.73749 -17787370.53747  20659686.836    20659695.167
  23556345.615    -9201952.88349  -7150535.74445  23556344.791    23556359.149
  20801042.142   -21381191.60149 -16412166.90047  20801041.369    20801050.096
 02  3  7  1 11  0.0000000  0  9G26G21G23G29G18G 6G17G22G15
  21718598.854   -20653448.28949 -16082653.07247  21718598.857    21718608.188
  23032159.508   -11255064.62349  -8745500.29546  23032158.889    23032171.578
  21479575.533   -15976704.33649 -12430746.97147  21479574.929    21479583.319
  23597694.177    -8385985.43549  -6242806.37045  23597693.937    23597709.433
  20629692.459   -23003902.52749 -17611329.03648  20629691.942    20629698.946
  21404053.381   -23747644.68149 -18486182.18447  21404053.112    21404062.447
  20656931.176   -22870017.26749 -17798657.15447  20656930.554    20656938.831
  23561803.259    -9173273.89149  -7128188.52445  23561802.463    23561816.573
  20794548.362   -21415316.48549 -16438757.66347  20794547.604    20794556.259
 02  3  7  1 11 30.0000000  0  9G26G21G23G29G18G 6G17G22G15
  21721942.729   -20635876.10449 -16068960.43647  21721942.742    21721952.098
  23018835.405   -11325082.57849  -8800059.56746  23018834.853    23018847.433
  21490684.288   -15918327.52449 -12385258.56547  21490683.679    21490692.077
  23577809.103    -8490480.59349  -6324230.84245  23577808.953    23577824.388
  20623342.818   -23037269.97249 -17637329.58048  20623342.307    20623349.269
  21418192.427   -23673343.77649 -18428285.45047  21418192.174    21418201.554
  20654211.067   -22884311.61249 -17809795.58147  20654210.408    20654218.672
  23567347.671    -9144138.50349  -7105485.64045  23567346.816    23567360.903
  20788092.668   -21449241.12749 -16465192.39547  20788091.923    20788100.503
 02  3  7  1 12  0.0000000  0  9G26G21G23G29G18G 6G17G22G15
  21725409.567   -20617657.79849 -16054764.31647  21725409.542    21725418.890
  23005558.764   -11394851.50249  -8854424.79046  23005558.144    23005570.704
  21501838.130   -15859713.75649 -12339585.51647  21501837.527    21501845.909
  23557937.495    -8594905.50449  -6405600.55945  23557937.290    23557952.663
  20617074.740   -23070208.65149 -17662996.01848  20617074.207    20617081.153
  21432408.052   -23598640.65949 -18370075.29547  21432407.783    21432417.162
  20651526.352   -22898419.90249 -17820789.02947  20651525.686    20651533.944
  23572977.460    -9114553.40549  -7082432.35545  23572976.518    23572990.900
  20781674.310   -21482969.88549 -16491474.49447  20781673.537    20781682.039
 02  3  7  1 12 30.0000000  0  9G26G21G23G29G18G 6G17G22G15
  21728999.704   -20598791.06549 -16040062.92847  21728999.707    21729009.064
  22992329.742   -11464368.88149  -8908593.99246  22992329.182    22992341.780
  21513037.207   -15800862.31349 -12293727.26647  21513036.605    21513044.974
  23538080.273    -8699254.67249  -6486911.26445  23538080.027    23538095.338
  20610888.778   -23102715.88549 -17688326.26748  20610888.259    20610895.184
  21446700.407   -23523534.04649 -18311550.73247  21446700.128    21446709.532
  20648877.588   -22912339.01949 -17831635.07147  20648876.930    20648885.172
  23578692.948    -9084517.80449  -7059028.05445  23578692.071    23578706.491
  20775293.823   -21516499.53749 -16517601.44147  20775293.054    20775301.445
 02  3  7  1 13  0.0000000  0  9G26G21G23G29G18G 6G17G22G15
  21732713.746   -20579273.56949 -16024854.47247  21732713.755    21732723.046
  22979149.617   -11533630.29749  -8962563.73946  22979149.096    22979161.603
  21524281.651   -15741772.41749 -12247683.21547  21524281.030    21524289.413
  23518238.452    -8803522.68549  -6568158.70745  23518238.194    23518253.354
  20604785.383   -23134789.24949 -17713318.43948  20604784.864    20604791.763
  21461069.799   -23448022.78249 -18252710.85847  21461069.521    21461078.916
  20646265.472   -22926065.58149 -17842331.06747  20646264.828    20646273.038
  23584494.548    -9054030.85349  -7035272.03245  23584493.595    23584507.922
  20768951.885   -21549826.73949 -16543570.63547  20768951.094    20768959.410
 02  3  7  1 13 30.0000000  0  9G26G21G23G29G18G 6G17G22G15
  21736550.531   -20559111.13349 -16009143.44447  21736550.529    21736559.790
  22966017.305   -11602640.75749  -9016337.94246  22966016.738    22966029.207
  21535570.108   -15682451.30349 -12201458.98647  21535569.506    21535577.900
  23498411.521    -8907712.09849  -6649344.91845  23498411.339    23498426.378
  20598763.526   -23166434.19149 -17737976.77348  20598763.003    20598769.867
  21475514.855   -23372113.87149 -18193561.13447  21475514.570    21475524.024
  20643689.062   -22939604.30949 -17852880.69247  20643688.442    20643696.662
  23590380.660    -9023099.72349  -7011169.90045  23590379.779    23590393.938
  20762647.493   -21582956.43049 -16569385.91947  20762646.689    20762654.953
 02  3  7  1 14  0.0000000  0  9G26G21G23G29G18G 6G17G22G15
  21740510.177   -20538302.74649 -15992929.09147  21740510.188    21740519.430
  22952933.003   -11671398.18749  -9069914.97846  22952932.476    22952944.884
  21546902.499   -15622899.22349 -12155054.79047  21546901.890    21546910.305
  23478600.516    -9011818.28749  -6730466.26545  23478600.374    23478615.354
  20592823.450   -23197649.20149 -17762300.10248  20592822.936    20592829.765
  21490035.576   -23295807.17049 -18134101.45647  21490035.288    21490044.742
  20641148.876   -22952952.86749 -17863282.14347  20641148.280    20641156.518
  23596351.154    -8991724.59649  -6986721.79945  23596350.306    23596364.568
  20756381.087   -21615886.31549 -16595045.51847  20756380.317    20756388.536
 02  3  7  1 14 30.0000000  0  9G26G21G23G29G18G 6G17G22G15
  21744592.984   -20516847.24649 -15976210.49847  21744593.002    21744602.197
  22939897.262   -11739900.88449  -9123293.50846  22939896.700    22939909.014
  21558278.748   -15563116.69849 -12108471.02847  21558278.145    21558286.557
  23458806.203    -9115836.84449  -6811519.31545  23458806.037    23458821.062
  20586965.506   -23228432.67549 -17786287.16948  20586964.991    20586971.807
  21504632.047   -23219102.69349 -18074331.81247  21504631.763    21504641.194
  20638645.320   -22966109.06049 -17873533.69247  20638644.714    20638652.954
  23602405.974    -8959905.91449  -6961928.07345  23602405.125    23602419.518
  20750153.141   -21648614.09649 -16620547.62747  20750152.349    20750160.572
 02  3  7  1 15  0.0000000  0 10G26G21G23G29G18G 6G17G22G15G 3
  21748798.612   -20494746.70949 -15958989.26447  21748798.650    21748807.804
  22926909.687   -11808149.96049  -9176474.41246  22926909.161    22926921.498
  21569698.200   -15503107.17749 -12061710.38547  21569697.589    21569705.991
  23439028.772    -9219766.44449  -6892503.06445  23439028.619    23439043.717
  20581189.350   -23258786.39849 -17809939.36748  20581188.829    20581195.609
  21519303.561   -23142003.52049 -18014254.62347  21519303.286    21519312.768
  20636178.156   -22979073.81549 -17883636.06847  20636177.582    20636185.803
  23608544.576    -8927647.23249  -6936791.50045  23608543.815    23608558.071
  20743963.531   -21681140.59649 -16645892.89847  20743962.724    20743970.947
  24633806.907    -5087969.00759  -3648873.06745  24633806.641    24633822.464
 02  3  7  1 15 30.0000000  0 10G26G21G23G29G18G 6G17G22G15G 3
  21753126.343   -20472004.36949 -15941267.92247  21753126.344    21753135.490
  22913970.137   -11876147.09949  -9229458.99946  22913969.619    22913981.872
  21581159.954   -15442875.21049 -12014776.40847  21581159.354    21581167.752
  23419268.230    -9323606.85149  -6973417.30145  23419268.109    23419283.189
  20575494.442   -23288713.21549 -17833258.90748  20575493.912    20575500.681
  21534049.424   -23064513.79749 -17953873.10247  21534049.148    21534058.661
  20633747.117   -22991849.00749 -17893590.73247  20633746.515    20633754.777
  23614766.294    -8894952.93949  -6911315.47745  23614765.457    23614779.712
  20737811.791   -21713467.78749 -16671082.85847  20737811.002    20737819.236
  24614554.732    -5189139.41849  -3727706.86145  24614554.269    24614570.034
 02  3  7  1 16  0.0000000  0 10G26G21G23G29G18G 6G17G22G15G 3
  21757576.726   -20448617.33149 -15923044.23247  21757576.703    21757585.874
  22901079.302   -11943888.56449  -9282244.35346  22901078.764    22901090.882
  21592664.382   -15382419.19349 -11967667.84647  21592663.780    21592672.195
  23399525.954    -9427351.64649  -7054257.04045  23399525.876    23399540.846
  20569881.332   -23318209.84749 -17856243.23848  20569880.808    20569887.579
  21548869.959   -22986631.52749 -17893185.69847  21548869.688    21548879.171
  20631352.952   -23004430.48249 -17903394.44647  20631352.332    20631360.619
  23621071.049    -8861821.47849  -6885498.80645  23621070.104    23621084.542
  20731698.802   -21745591.59049 -16696114.33747  20731698.014    20731706.242
  24595327.309    -5290179.57049  -3806439.15145  24595326.869    24595342.290
 02  3  7  1 16 30.0000000  0 10G26G21G23G29G18G 6G17G22G15G 3
  21762149.834   -20424585.06749 -15904317.75747  21762149.817    21762159.046
  22888237.207   -12011373.09549  -9334829.50046  22888236.704    22888248.808
  21604211.276   -15321739.78349 -11920385.21247  21604210.676    21604219.130
  23379802.765    -9530997.01349  -7135019.29845  23379802.610    23379817.381
  20564350.262   -23347275.52149 -17878891.75848  20564349.737    20564356.482
  21563765.043   -22908357.32149 -17832192.88847  21563764.796    21563774.292
  20628995.965   -23016816.42649 -17913045.79547  20628995.344    20629003.633
  23627458.632    -8828253.66249  -6859342.13845  23627457.841    23627472.273
  20725624.824   -21777510.21349 -16720985.93747  20725624.019    20725632.291
  24576125.362    -5391085.88449  -3885067.15545  24576124.843    24576139.985
 02  3  7  1 17  0.0000000  0 10G26G21G23G29G18G 6G17G22G15G 3
  21766845.515   -20399909.10249 -15885089.69847  21766845.496    21766854.699
  22875444.111   -12078600.70249  -9387214.43246  22875443.550    22875455.670
  21615800.156   -15260839.90949 -11872930.78347  21615799.563    21615808.039
  23360098.765    -9634540.87449  -7215702.47745  23360098.601    23360113.339
  20558901.092   -23375911.06849 -17901205.11348  20558900.550    20558907.270
  21578734.322   -22829693.68949 -17770896.63347  21578734.063    21578743.573
  20626676.113   -23029007.00249 -17922544.90447  20626675.510    20626683.795
  23633928.965    -8794252.43649  -6832847.74145  23633928.212    23633942.339
  20719589.856   -21809223.87249 -16745697.82447  20719589.057    20719597.342
  24556949.047    -5491856.92249  -3963589.76745  24556948.569    24556963.533
 02  3  7  1 17 30.0000000  0 10G26G21G23G29G18G 6G17G22G15G 3
  21771663.469   -20374590.45749 -15865360.86347  21771663.431    21771672.645
  22862699.858   -12145571.25649  -9439399.08346  22862699.303    22862711.408
  21627430.583   -15199721.77849 -11825306.28647  21627429.952    21627438.480
  23340414.534    -9737980.69649  -7296304.60245  23340414.398    23340429.075
  20553533.622   -23404117.01349 -17923183.72048  20553533.095    20553539.823
  21593777.313   -22750642.68049 -17709298.53047  21593777.049    21593786.558
  20624393.545   -23041001.83949 -17931891.49847  20624392.960    20624401.236
  23640481.470    -8759820.13249  -6806017.42445  23640480.606    23640494.735
  20713593.956   -21840732.29549 -16770249.79747  20713593.158    20713601.447
  24537798.906    -5592490.43749  -4042005.23245  24537798.427    24537813.297
 02  3  7  1 18  0.0000000  0 10G26G21G23G29G18G 6G17G22G15G 3
  21776603.227   -20348631.70649 -15845133.23547  21776603.221    21776612.396
  22850004.294   -12212286.29549  -9491384.61746  22850003.732    22850015.736
  21639101.809   -15138389.15949 -11777514.65647  21639101.202    21639109.719
  23320750.357    -9841315.41649  -7376824.82945  23320750.231    23320764.761
  20548247.482   -23431895.69749 -17944829.39448  20548246.945    20548253.659
  21608893.312   -22671207.82649 -17647401.33847  21608893.085    21608902.620
  20622147.974   -23052802.15849 -17941086.52447  20622147.374    20622155.655
  23647115.008    -8724960.53549  -6778854.16945  23647114.204    23647128.468
  20707636.911   -21872036.63649 -16794642.74547  20707636.122    20707644.385
  24518674.990    -5692986.06549  -4120313.27745  24518674.486    24518689.236
 02  3  7  1 18 30.0000000  0 10G26G21G23G29G18G 6G17G22G15G 3
  21781664.635   -20322033.79749 -15824407.54247  21781664.647    21781673.765
  22837357.429   -12278745.35849  -9543170.68446  22837356.837    22837368.720
  21650813.468   -15076844.13049 -11729557.49847  21650812.844    21650821.354
  23301106.726    -9944542.33249  -7457261.07245  23301106.530    23301120.823
  20543042.562   -23459247.52749 -17966142.44748  20543042.028    20543048.740
  21624082.089   -22591390.67849 -17585206.25547  21624081.840    21624091.421
  20619939.597   -23064407.28749 -17950129.43347  20619938.983    20619947.248
  23653829.365    -8689675.74449  -6751359.59445  23653828.566    23653842.888
  20701718.778   -21903136.43949 -16818876.29847  20701717.989    20701726.244
  24499577.901    -5793341.14349  -4198511.82145  24499577.256    24499592.176
 02  3  7  1 19  0.0000000  0 10G26G21G23G29G18G 6G17G22G15G 3
  21786847.979   -20294794.93049 -15803182.42647  21786847.979    21786857.079
  22824759.703   -12344945.71049  -9594755.17246  22824759.168    22824770.981
  21662565.642   -15015085.95649 -11681434.27347  21662565.018    21662573.499
  23281484.567   -10047656.16249  -7537609.19245  23281484.415    23281498.491
  20537919.325   -23486170.01149 -17987120.95748  20537918.815    20537925.499
  21639343.733   -22511190.46149 -17522712.67747  21639343.494    21639353.088
  20617768.955   -23075814.13049 -17959017.84047  20617768.326    20617776.579
  23660624.967    -8653965.40549  -6723533.43545  23660624.071    23660638.310
  20695840.233   -21934028.46749 -16842947.95147  20695839.438    20695847.650
  24480508.410    -5893550.92649  -4276597.18944  24480507.738    24480522.710
 02  3  7  1 19 30.0000000  0 10G26G21G23G29G18G 6G17G22G15G 3
  21792152.652   -20266918.14849 -15781460.22747  21792152.697    21792161.810
  22812210.883   -12410889.48849  -9646139.72546  22812210.346    22812222.135
  21674357.629   -14953118.76649 -11633148.16947  21674357.015    21674365.455
  23261884.016   -10150656.13649  -7617868.61345  23261883.874    23261897.943
  20532877.334   -23512665.74849 -18007766.92948  20532876.815    20532883.496
  21654677.501   -22430611.11549 -17459923.66947  21654677.259    21654686.911
  20615635.743   -23087024.14849 -17967752.88647  20615635.123    20615643.319
  23667500.815    -8617833.68349  -6695378.89345  23667499.880    23667514.181
  20690000.921   -21964714.28449 -16866858.91547  20690000.121    20690008.299
  24461466.435    -5993615.51149  -4354569.43044  24461465.760    24461480.910
 02  3  7  1 20  0.0000000  0 10G26G21G23G29G18G 6G17G22G15G 3
  21797579.178   -20238401.57649 -15759239.49747  21797579.190    21797588.321
  22799711.401   -12476573.62149  -9697321.96946  22799710.909    22799722.715
  21686189.538   -14890941.77149 -11584698.58747  21686188.924    21686197.365
  23242306.253   -10253536.61649  -7698034.92845  23242306.067    23242320.073
  20527916.988   -23538732.30949 -18028078.48348  20527916.459    20527923.139
  21670083.676   -22349651.49349 -17396838.35147  21670083.433    21670093.114
  20613540.637   -23098033.91949 -17976331.90747  20613540.003    20613548.165
  23674456.659    -8581279.88849  -6666895.48445  23674455.735    23674470.297
  20684201.479   -21995190.32549 -16890606.42547  20684200.676    20684208.845
  24442453.204    -6093529.42949  -4432424.29445  24442452.462    24442467.884
 02  3  7  1 20 30.0000000  0 10G26G21G23G29G18G 6G17G22G15G 3
  21803127.027   -20209247.29149 -15736521.84047  21803127.059    21803136.152
  22787261.383   -12541998.44549  -9748302.13346  22787260.868    22787272.623
  21698060.776   -14828558.09949 -11536087.94947  21698060.155    21698068.607
  23222751.575   -10356296.16149  -7778107.00945  23222751.424    23222765.202
  20523038.022   -23564371.27049 -18048056.83648  20523037.477    20523044.174
  21685561.671   -22268314.45749 -17333458.93447  21685561.428    21685571.164
  20611483.569   -23108843.92549 -17984755.24247  20611482.937    20611491.064
  23681492.232    -8544307.54949  -6638085.94845  23681491.265    23681505.891
  20678441.795   -22025457.12749 -16914190.88147  20678440.983    20678449.188
  24423468.966    -6193291.34449  -4510160.73845  24423468.504    24423483.559
 02  3  7  1 21  0.0000000  0 10G26G21G23G29G18G 6G17G22G15G 3
  21808795.461   -20179459.49449 -15713310.54647  21808795.475    21808804.584
  22774860.093   -12607166.78349  -9799082.45646  22774859.573    22774871.303
  21709970.319   -14765972.92549 -11487320.29947  21709969.701    21709978.203
  23203219.899   -10458934.93749  -7858084.98445  23203219.656    23203233.312
  20518239.690   -23589586.27749 -18067704.83848  20518239.169    20518245.836
  21701110.495   -22186605.26149 -17269789.54147  21701110.264    21701120.002
  20609463.946   -23119456.80349 -17993024.97847  20609463.316    20609471.417
  23688606.611    -8506921.89249  -6608954.33445  23688605.649    23688620.164
  20672721.413   -22055517.41549 -16937614.42847  20672720.634    20672728.842
  24404513.656    -6292902.24149  -4587779.53145  24404513.128    24404527.881
 02  3  7  1 21 30.0000000  0 10G26G21G23G29G18G 6G17G22G15G 3
  21814584.447   -20149037.93649 -15689605.41647  21814584.487    21814593.594
  22762507.875   -12672077.41549  -9849661.98646  22762507.364    22762519.031
  21721918.097   -14703187.01349 -11438396.23647  21721917.499    21721926.007
  23183711.799   -10561449.11549  -7937965.85645  23183711.561    23183725.187
  20513522.306   -23614376.27049 -18087021.66248  20513521.775    20513528.408
  21716730.013   -22104524.54349 -17205830.65147  21716729.790    21716739.559
  20607482.201   -23129870.61349 -18001139.60147  20607481.587    20607489.686
  23695799.442    -8469123.89049  -6579501.40945  23695798.530    23695813.032
  20667040.676   -22085369.43149 -16960875.68547  20667039.886    20667048.127
  24385587.885    -6392358.19649  -4665277.58045  24385587.349    24385601.812
 02  3  7  1 22  0.0000000  0 10G26G21G23G29G18G 6G17G22G15G 3
  21820494.413   -20117980.89449 -15665405.09947  21820494.406    21820503.555
  22750205.239   -12736727.51349  -9900038.48646  22750204.692    22750216.260
  21733904.231   -14640199.58449 -11389315.14047  21733903.632    21733912.180
  23164228.483   -10663833.06349  -8017745.25645  23164228.249    23164241.882
  20508886.137   -23638739.22949 -18106005.72648  20508885.604    20508892.234
  21732420.460   -22022071.35249 -17141581.50447  21732420.228    21732429.998
  20605539.057   -23140081.82749 -18009096.34847  20605538.433    20605546.520
  23703070.831    -8430912.99149  -6549726.74745  23703069.926    23703084.423
  20661400.222   -22115009.62849 -16983971.87947  20661399.471    20661407.732
  24366692.504    -6491654.25149  -4742651.01945  24366691.980    24366706.071
 02  3  7  1 22 30.0000000  0 10G26G21G23G29G18G 6G17G22G15G 3
  21826524.308   -20086293.16949 -15640713.34847  21826524.332    21826533.447
  22737951.446   -12801120.44949  -9950214.60946  22737950.924    22737962.542
  21745927.604   -14577016.41849 -11340081.52347  21745926.998    21745935.559
  23144769.830   -10766087.89049  -8097424.04445  23144769.570    23144783.138
  20504330.366   -23662679.54149 -18124660.46048  20504329.858    20504336.456
  21748180.659   -21939251.35449 -17077046.54447  21748180.428    21748190.194
  20603633.810   -23150093.72849 -18016897.78947  20603633.192    20603641.255
  23710419.514    -8392295.37849  -6519635.17745  23710418.609    23710433.067
  20655799.501   -22144441.28449 -17006905.58047  20655798.768    20655806.994
  24347827.164    -6590792.05349  -4819901.13045  24347826.631    24347840.694
 02  3  7  1 23  0.0000000  0 10G26G21G23G29G18G 6G17G22G15G 3
  21832674.548   -20053973.40749 -15615529.10047  21832674.544    21832683.713
  22725747.258   -12865253.40049 -10000188.15846  22725746.733    22725758.333
  21757988.364   -14513636.85449 -11290694.86847  21757987.758    21757996.270
  23125336.783   -10868208.19549  -8176998.00645  23125336.553    23125349.994
  20499855.519   -23686194.94949 -18142984.09848  20499854.996    20499861.571
  21764010.752   -21856063.83549 -17012225.20247  21764010.529    21764020.371
  20601767.167   -23159903.00949 -18024541.34547  20601766.534    20601774.584
  23717845.705    -8353270.57549  -6489226.32745  23717844.847    23717859.318
  20650239.134   -22173661.19549 -17029674.29347  20650238.388    20650246.550
  24328992.894    -6689766.38249  -4897023.84145  24328992.329    24329006.411
 02  3  7  1 23 30.0000000  0 10G26G21G23G29G18G 6G17G22G15G 3
  21838945.084   -20021021.31849 -15589852.12147  21838945.063    21838954.236
  22713592.764   -12929124.92549 -10049957.99146  22713592.208    22713603.766
  21770086.384   -14450061.60149 -11241155.72947  21770085.763    21770094.224
  23105930.081   -10970189.75949  -8256463.87246  23105929.898    23105943.233
  20495461.697   -23709284.29449 -18160975.74448  20495461.178    20495467.739
  21779910.767   -21772509.20149 -16947117.79747  21779910.512    21779920.406
  20599939.452   -23169507.75149 -18032025.52247  20599938.829    20599946.854
  23725349.391    -8313839.46049  -6458500.84845  23725348.463    23725362.907
  20644719.478   -22202667.28549 -17052276.39147  20644718.729    20644726.791
  24310190.376    -6788573.41249  -4974016.17145  24310189.916    24310203.954
 02  3  7  1 24  0.0000000  0 10G26G21G23G29G18G 6G17G22G15G 3
  21845335.411   -19987439.60749 -15563684.54347  21845335.409    21845344.594
  22701487.737   -12992735.80949 -10099524.74546  22701487.258    22701498.791
  21782220.973   -14386294.04349 -11191466.75147  21782220.343    21782228.812
  23086550.083   -11072031.31249  -8335820.61846  23086549.874    23086563.219
  20491148.563   -23731949.85649 -18178637.17048  20491148.033    20491154.576
  21795879.997   -21688590.77849 -16881726.91347  21795879.746    21795889.611
  20598150.443   -23178908.80449 -18039350.98847  20598149.798    20598157.862
  23732929.550    -8274005.92349  -6427461.80145  23732928.615    23732943.022
  20639240.342   -22231460.52949 -17074712.63147  20639239.542    20639247.541
  24291419.712    -6887212.48249  -5050877.59145  24291419.341    24291433.631
 02  3  7  1 24 30.0000000  0 10G26G21G23G29G18G 6G17G22G15G 3
  21851845.119   -19953230.99949 -15537028.47246  21851845.132    21851854.234
  22689432.129   -13056087.81049 -10148889.76146  22689431.604    22689443.052
  21794391.470   -14322337.62849 -11141630.60447  21794390.837    21794399.321
  23067196.943   -11173731.67849  -8415067.35446  23067196.652    23067209.969
  20486915.691   -23754193.47649 -18195969.79948  20486915.174    20486921.741
  21811917.746   -21604312.09049 -16816055.29947  21811917.514    21811927.342
  20596400.062   -23188106.96049 -18046518.34847  20596399.419    20596407.501
  23740585.373    -8233773.75149  -6396112.13845  23740584.545    23740598.965
  20633801.470   -22260041.85849 -17096983.74447  20633800.677    20633808.630
  24272681.269    -6985682.59049  -5127607.32645  24272680.903    24272695.338
 02  3  7  1 25  0.0000000  0 10G26G21G23G29G18G 6G17G22G15G 3
  21858474.054   -19918395.52349 -15509883.92246  21858474.043    21858483.215
  22677426.068   -13119179.70349 -10198052.10246  22677425.525    22677436.858
  21806597.759   -14258193.15349 -11091647.91247  21806597.137    21806605.609
  23047871.343   -11275286.91449  -8494201.00046  23047871.122    23047884.353
  20482763.173   -23776014.80349 -18212973.36848  20482762.678    20482769.210
  21828023.954   -21519674.04749 -16750103.66247  21828023.703    21828033.522
  20594688.603   -23197100.46349 -18053526.23147  20594687.974    20594696.069
  23748316.962    -8193144.21649  -6364452.83345  23748316.133    23748330.646
  20628403.296   -22288409.29549 -17119088.18247  20628402.504    20628410.414
  24253975.680    -7083980.25349  -5204202.67145  24253975.333    24253989.861
 02  3  7  1 25 30.0000000  0 10G26G21G23G29G18G 6G17G22G15G 3
  21865222.546   -19882931.85649 -15482249.86746  21865222.541    21865231.680
  22665470.039   -13182008.28749 -10247009.27246  22665469.492    22665480.790
  21818839.984   -14193859.99849 -11041518.20647  21818839.352    21818847.815
  23028574.432   -11376691.66949  -8573217.40146  23028574.190    23028587.335
  20478691.465   -23797411.78049 -18229646.28448  20478690.937    20478697.410
  21844198.662   -21434675.87049 -16683871.41347  21844198.396    21844208.277
  20593016.683   -23205886.05649 -18060372.11747  20593016.072    20593024.166
  23756124.380    -8152116.83949  -6332483.52545  23756123.547    23756138.025
  20623046.416   -22316559.80549 -17141023.59247  20623045.603    20623053.465
  24235303.896    -7182100.49049  -5280659.73745  24235303.479    24235318.048
 02  3  7  1 26  0.0000000  0 10G26G21G23G29G18G 6G17G22G15G 3
  21872089.510   -19846845.87849 -15454130.91246  21872089.537    21872098.564
  22653563.228   -13244577.84149 -10295764.60946  22653562.716    22653574.039
  21831116.865   -14129344.67949 -10991246.55947  21831116.253    21831124.693
  23009305.762   -11477947.96449  -8652118.09746  23009305.550    23009318.641
  20474699.484   -23818389.47949 -18245992.48648  20474698.961    20474705.427
  21860440.612   -21349324.21349 -16617363.73647  21860440.352    21860450.255
  20591383.638   -23214467.68349 -18067059.07147  20591383.022    20591391.064
  23764006.085    -8110698.82649  -6300209.82245  23764005.271    23764019.622
  20617730.001   -22344497.43349 -17162793.12547  20617729.203    20617737.054
  24216665.389    -7280045.57149  -5356980.30245  24216665.032    24216679.558
 02  3  7  1 26 30.0000000  0 10G26G21G23G29G18G 6G17G22G15G 3
  21879075.254   -19810135.78849 -15425525.62146  21879075.282    21879084.269
  22641706.359   -13306885.84549 -10344316.12946  22641705.784    22641717.091
  21843428.605   -14064646.03949 -10940832.05347  21843427.980    21843436.445
  22990066.503   -11579049.62549  -8730898.31746  22990066.299    22990079.423
  20470787.714   -23838945.39749 -18262010.02248  20470787.209    20470793.691
  21876750.058   -21263617.86549 -16550579.66647  21876749.811    21876759.693
  20589790.113   -23222841.64849 -18073584.20747  20589789.505    20589797.495
  23771962.171    -8068889.26649  -6267631.00945  23771961.324    23771975.727
  20612454.813   -22372218.37749 -17184393.80347  20612454.025    20612461.906
  24198061.285    -7377809.87049  -5433159.98945  24198060.772    24198075.329
 02  3  7  1 27  0.0000000  0 10G26G21G23G29G18G 6G17G22G15G 3
  21886179.281   -19772803.56149 -15396435.56046  21886179.293    21886188.316
  22629899.157   -13368932.33249 -10392663.89046  22629898.587    22629909.868
  21855774.753   -13999766.69549 -10890276.73747  21855774.142    21855782.632
  22970857.046   -11679994.74949  -8809556.56246  22970856.897    22970869.968
  20466956.139   -23859080.47749 -18277699.63848  20466955.632    20466962.076
  21893126.458   -21177559.32749 -16483521.16047  21893126.234    21893136.138
  20588236.173   -23231007.85449 -18079947.45847  20588235.551    20588243.488
  23779992.159    -8026691.20649  -6234749.47245  23779991.304    23780005.835
  20607220.831   -22399722.59349 -17205825.61047  20607220.049    20607228.021
  24179492.058    -7475391.57149  -5509197.40145  24179491.497    24179505.865
 02  3  7  1 27 30.0000000  0 10G26G21G23G29G18G 6G17G22G15G 3
  21893401.303   -19734851.58649 -15366862.56946  21893401.334    21893410.347
  22618141.534   -13430718.38949 -10440808.71546  22618140.987    22618152.159
  21868154.710   -13934709.50249 -10839582.83447  21868154.072    21868162.625
  22951677.822   -11780781.42649  -8888091.34046  22951677.655    22951690.573
  20463204.231   -23878796.62449 -18293062.80848  20463203.709    20463210.152
  21909569.430   -21091151.53749 -16416190.49747  21909569.201    21909579.073
  20586721.670   -23238966.41549 -18086148.89647  20586721.030    20586728.971
  23788095.589    -7984108.08949  -6201567.88545  23788094.735    23788109.207
  20602028.047   -22427010.13549 -17227088.57347  20602027.294    20602035.349
  24160957.702    -7572789.42849  -5585091.54945  24160957.048    24160971.329
 02  3  7  1 28  0.0000000  0 10G26G21G23G29G18G 6G17G22G15G 3
  21900741.558   -19696278.12949 -15336805.30946  21900741.612    21900750.585
  22606434.127   -13492240.77949 -10488748.09246  22606433.542    22606444.647
  21880568.709   -13869473.32749 -10788749.46547  21880568.088    21880576.659
  22932529.920   -11881403.72749  -8966498.04246  22932529.661    22932542.490
  20459532.579   -23898091.17549 -18308097.47148  20459532.081    20459538.457
  21926078.982   -21004393.56049 -16348586.97247  21926078.752    21926088.655
  20585247.339   -23246713.76749 -18092185.76547  20585246.730    20585254.657
  23796272.430    -7941139.12949  -6168085.64945  23796271.514    23796285.991
  20596877.246   -22454077.47549 -17248179.95147  20596876.489    20596884.551
  24142459.313    -7669998.03149  -5660838.23745  24142458.604    24142472.738
 02  3  7  1 28 30.0000000  0 10G26G21G23G29G18G 6G17G22G15G 3
  21908199.006   -19657088.85149 -15306268.17846  21908199.050    21908208.061
  22594775.957   -13553503.79849 -10536485.36246  22594775.423    22594786.529
  21893015.602   -13804064.25449 -10737781.36147  21893014.971    21893023.560
  22913412.788   -11981863.40449  -9044778.03446  22913412.565    22913425.328
  20455940.107   -23916969.48549 -18322807.78348  20455939.588    20455945.971
  21942653.982   -20917291.46549 -16280715.29146  21942653.747    21942663.724
  20583812.545   -23254253.50149 -18098060.85647  20583811.924    20583819.891
  23804521.179    -7897790.99749  -6134307.94445  23804520.224    23804534.893
  20591767.726   -22480928.11449 -17269102.46347  20591766.957    20591775.007
  24123996.647    -7767019.05249  -5736438.77845  24123996.055    24124010.110
 02  3  7  1 29  0.0000000  0 10G26G21G23G29G18G 6G17G22G15G 3
  21915774.196   -19617281.21349 -15275249.21846  21915774.195    21915783.213
  22583168.082   -13614503.03249 -10584017.08646  22583167.559    22583178.625
  21905495.755   -13738480.35349 -10686677.02947  21905495.171    21905503.798
  22894327.932   -12082153.64049  -9122925.99446  22894327.777    22894340.465
  20452427.493   -23935427.98449 -18337190.96648  20452426.990    20452433.376
  21959294.894   -20829843.46049 -16212574.07646  21959294.676    21959304.604
  20582418.172   -23261580.85249 -18103770.45047  20582417.559    20582425.536
  23812842.445    -7854062.27949  -6100233.67245  23812841.602    23812856.263
  20586700.273   -22507557.64749 -17289852.68247  20586699.485    20586707.512
  24105570.881    -7863846.36649  -5811888.39845  24105570.341    24105584.435
 02  3  7  1 29 30.0000000  0 10G26G21G23G29G18G 6G17G22G15G 3
  21923466.099   -19576859.62749 -15243751.85246  21923466.100    21923475.105
  22571609.839   -13675241.54649 -10631345.65246  22571609.290    22571620.287
  21918008.319   -13672726.52549 -10635440.29847  21918007.739    21918016.352
  22875275.484   -12182274.46749  -9200941.96146  22875275.257    22875287.804
  20448994.171   -23953470.01549 -18351249.63548  20448993.686    20449000.048
  21976000.661   -20742054.49249 -16144167.18146  21976000.431    21976010.383
  20581063.803   -23268698.04249 -18109316.28147  20581063.176    20581071.170
  23821235.381    -7809958.21849  -6065866.93145  23821234.502    23821249.034
  20581674.458   -22533968.25349 -17310432.31347  20581673.674    20581681.706
  24087181.869    -7960480.32249  -5887187.36345  24087181.442    24087195.373
 02  3  7  1 30  0.0000000  0 10G26G21G23G29G18G 6G17G22G15G 3
  21931274.961   -19535823.72149 -15211775.79446  21931274.964    21931283.995
  22560101.639   -13735716.95749 -10678469.21746  22560101.107    22560112.027
  21930553.204   -13606802.78149 -10584071.15947  21930552.614    21930561.217
  22856256.052   -12282221.42649  -9278822.44546  22856255.784    22856268.208
  20445640.325   -23971094.50249 -18364982.94248  20445639.818    20445646.187
  21992771.248   -20653924.64849 -16075494.66346  21992771.001    21992780.994
  20579749.894   -23275602.52349 -18114696.35147  20579749.276    20579757.244
  23829699.537    -7765479.40649  -6031208.17545  23829698.613    23829713.051
  20576690.827   -22560157.32249 -17330839.30947  20576690.024    20576698.063
  24068830.557    -8056916.61449  -5962332.32145  24068830.076    24068843.851
 02  3  7  1 30 30.0000000  0 10G26G21G23G29G18G 6G17G22G15G 3
  21939200.351   -19494175.33249 -15179322.47746  21939200.358    21939209.392
  22548643.496   -13795929.47549 -10725387.92146  22548642.950    22548653.827
  21943130.063   -13540711.18649 -10532571.23047  21943129.477    21943138.047
  22837269.959   -12381992.05449  -9356565.55146  22837269.787    22837282.218
  20442365.661   -23988302.59949 -18378391.79248  20442365.145    20442371.525
  22009606.211   -20565456.53449 -16006558.57146  22009605.977    22009616.026
  20578476.512   -23282293.97249 -18119910.42947  20578475.898    20578483.829
  23838234.308    -7720628.68649  -5996259.62345  23838233.374    23838248.049
  20571749.410   -22586124.45249 -17351073.37247  20571748.595    20571756.629
  24050517.266    -8153153.11049  -6037321.59645  24050516.665    24050530.299
 02  3  7  1 31  0.0000000  0 10G26G21G23G29G18G 6G17G22G15G 3
  21947242.130   -19451915.65449 -15146392.82846  21947242.130    21947251.105
  22537235.405   -13855878.68549 -10772101.46146  22537234.887    22537245.714
  21955738.503   -13474453.47949 -10480941.87047  21955737.909    21955746.509
  22818318.265   -12481583.23149  -9434168.81746  22818318.057    22818330.391
  20439170.183   -24005094.63049 -18391476.43248  20439169.667    20439176.049
  22026505.235   -20476651.73349 -15937360.11946  22026504.998    22026515.111
  20577243.921   -23288771.28649 -18124957.65347  20577243.301    20577251.213
  23846839.461    -7675408.14549  -5961022.90245  23846838.497    23846853.257
  20566850.400   -22611868.72549 -17371133.77747  20566849.596    20566857.607
  24032242.458    -8249187.07549  -6112153.06545  24032241.845    24032255.433
 02  3  7  1 31 30.0000000  0 10G26G21G23G29G18G 6G17G22G15G 3
  21955399.449   -19409048.22249 -15112989.60546  21955399.453    21955408.453
  22525877.060   -13915566.64049 -10818611.41246  22525876.540    22525887.296
  21968377.858   -13408033.33549 -10429185.93047  21968377.259    21968385.881
  22799400.931   -12580993.93949  -9511631.46346  22799400.654    22799412.874
  20436053.396   -24021473.08749 -18404238.80648  20436052.885    20436059.277
  22043467.608   -20387514.12749 -15867902.33346  22043467.375    22043477.521
  20576051.744   -23295035.72949 -18129839.00447  20576051.136    20576059.096
  23855514.344    -7629822.17749  -5925501.42445  23855513.371    23855527.855
  20561993.507   -22637391.51649 -17391021.59947  20561992.709    20562000.692
  24014006.128    -8345018.07049  -6186826.36445  24014005.551    24014019.113
 02  3  7  1 32  0.0000000  0 10G26G21G23G29G18G 6G17G22G15G 3
  21963672.786   -19365571.92449 -15079111.94946  21963672.766    21963681.679
  22514568.984   -13974990.68449 -10864915.72146  22514568.449    22514579.192
  21981048.253   -13341450.09149 -10377302.89947  21981047.637    21981056.240
  22780518.739   -12680219.10049  -9588949.55446  22780518.536    22780530.673
  20433015.676   -24037436.07949 -18416677.44448  20433015.168    20433021.557
  22060493.487   -20298043.17549 -15798184.79546  22060493.238    22060503.371
  20574900.769   -23301083.90549 -18134551.84047  20574900.163    20574908.170
  23864258.736    -7583870.69449  -5889695.14045  23864257.817    23864272.175
  20557179.430   -22662689.25849 -17410734.06247  20557178.651    20557186.596
  23995809.368    -8440640.79549  -6261337.37545  23995808.827    23995822.524
 02  3  7  1 32 30.0000000  0 10G26G21G23G29G18G 6G17G22G15G 3
  21972061.231   -19321490.11449 -15044762.46046  21972061.189    21972070.102
  22503310.786   -14034152.27549 -10911015.52046  22503310.263    22503320.978
  21993749.032   -13274707.27449 -10325295.53047  21993748.415    21993756.981
  22761672.194   -12779257.52549  -9666122.13446  22761672.003    22761684.025
  20430056.671   -24052985.79749 -18428794.04948  20430056.157    20430062.541
  22077581.964   -20208242.86149 -15728210.59746  22077581.718    22077591.858
  20573790.787   -23306916.69849 -18139096.82747  20573790.172    20573798.192
  23873071.757    -7537557.86649  -5853607.28045  23873070.847    23873085.437
  20552408.029   -22687763.02049 -17430271.98947  20552407.245    20552415.159
  23977652.416    -8536054.51549  -6335685.53245  23977652.047    23977665.706
 02  3  7  1 33  0.0000000  0 10G26G21G23G29G18G 6G17G22G15G 3
  21980564.653   -19276803.63949 -15009941.81146  21980564.671    21980573.560
  22492102.697   -14093050.76649 -10956910.29846  22492102.132    22492112.751
  22006480.014   -13207805.93849 -10273164.64547  22006479.391    22006487.907
  22742861.914   -12878105.45349  -9743146.27546  22742861.685    22742873.640
  20427176.157   -24068122.52549 -18440588.84948  20427175.651    20427182.040
  22094732.925   -20118114.35549 -15657980.68046  22094732.685    22094742.850
  20572722.112   -23312532.67949 -18143472.86547  20572721.491    20572729.466
  23881953.135    -7490885.47849  -5817239.26145  23881952.279    23881966.889
  20547679.548   -22712611.17149 -17449634.11847  20547678.748    20547686.629
  23959535.952    -8631256.03949  -6409868.32845  23959535.579    23959549.408
 02  3  7  1 33 30.0000000  0 10G26G21G23G29G18G 6G17G22G15G 3
  21989183.003   -19231514.04949 -14974651.19846  21989182.986    21989191.899
  22480944.626   -14151686.00549 -11002599.94446  22480944.106    22480954.713
  22019240.841   -13140747.77749 -10220911.55147  22019240.197    22019248.676
  22724088.230   -12976760.33149  -9820020.00046  22724088.062    22724099.977
  20424374.166   -24082846.81249 -18452062.26848  20424373.670    20424380.027
  22111945.908   -20027659.65849 -15587496.60146  22111945.688    22111955.904
  20571694.852   -23317930.93249 -18147679.24947  20571694.212    20571702.166
  23890902.678    -7443855.83649  -5780592.86045  23890901.853    23890916.249
  20542994.147   -22737232.84249 -17468819.77147  20542993.352    20543001.202
  23941460.354    -8726242.91549  -6483883.85945  23941459.923    23941473.919
 02  3  7  1 34  0.0000000  0 10G26G21G23G29G18G 6G17G22G15G 3
  21997915.841   -19185622.70549 -14938891.69346  21997915.800    21997924.760
  22469836.843   -14210057.28449 -11048083.90546  22469836.327    22469846.889
  22032031.054   -13073534.53849 -10168537.61847  22032030.423    22032038.921
  22705352.063   -13075219.04149  -9896740.86246  22705351.883    22705363.728
  20421650.622   -24097159.14349 -18463214.68348  20421650.126    20421656.417
  22129220.662   -19936880.68049 -15516759.85146  22129220.409    22129230.694
  20570709.169   -23323110.62149 -18151715.33447  20570708.525    20570716.479
  23899919.845    -7396471.19649  -5743669.82645  23899918.951    23899933.329
  20538352.018   -22761627.20549 -17487828.31047  20538351.215    20538359.017
  23923426.106    -8821012.22749  -6557729.84345  23923425.628    23923439.756
 02  3  7  1 34 30.0000000  0 10G26G21G23G29G18G 6G17G22G15G 3
  22006762.390   -19139133.60549 -14902666.40946  22006762.376    22006771.345
  22458778.726   -14268167.76949 -11093364.64446  22458778.182    22458788.719
  22044850.016   -13006170.26149 -10116045.99147  22044849.428    22044857.929
  22686653.261   -13173481.04549  -9973308.44546  22686652.998    22686664.881
  20419004.873   -24111062.50949 -18474048.41848  20419004.348    20419010.633
  22146556.303   -19845781.60749 -15445773.66846  22146556.048    22146566.342
  20569764.795   -23328073.13049 -18155582.17147  20569764.159    20569772.116
  23909003.473    -7348736.45049  -5706473.99845  23909002.462    23909017.136
  20533752.812   -22785795.94549 -17506661.04547  20533752.019    20533759.799
  23905433.250    -8915563.88749  -6631406.22645  23905432.883    23905446.907
 02  3  7  1 35  0.0000000  0 10G26G21G23G29G18G 6G17G22G15G 3
  22015722.831   -19092046.05049 -14865974.80646  22015722.812    22015731.762
  22447770.663   -14326014.44049 -11138439.81046  22447770.162    22447780.671
  22057697.860   -12938654.17949 -10063436.07347  22057697.274    22057705.860
  22667992.833   -13271540.93549 -10049718.53946  22667992.656    22668004.438
  20416437.270   -24124554.98949 -18484561.98248  20416436.755    20416443.037
  22163952.955   -19754362.00649 -15374537.71246  22163952.704    22163963.025
  20568862.390   -23332814.95549 -18159277.04847  20568861.783    20568869.709
  23918153.557    -7300651.34549  -5669005.16745  23918152.717    23918167.457
  20529197.196   -22809735.60149 -17525315.27047  20529196.403    20529204.179
  23887482.838    -9009892.96749  -6704909.14745  23887482.500    23887496.294
 02  3  7  1 35 30.0000000  0 10G26G21G23G29G18G 6G17G22G15G 3
  22024796.902   -19044361.25249 -14828817.81746  22024796.930    22024805.894
  22436812.985   -14383596.82649 -11183309.04046  22436812.488    22436822.985
  22070574.242   -12870987.74449 -10010708.99647  22070573.690    22070582.334
  22649371.674   -13369395.70149 -10125968.79446  22649371.417    22649383.159
  20413947.787   -24137637.01749 -18494755.71448  20413947.279    20413953.534
  22181410.265   -19662623.80349 -15303053.50946  22181409.989    22181420.309
  20568002.190   -23337335.23249 -18162799.28747  20568001.559    20568009.480
  23927370.228    -7252218.38249  -5631265.26345  23927369.357    23927384.075
  20524685.301   -22833445.26549 -17543790.27947  20524684.527    20524692.334
  23869575.565    -9103996.60149  -6778236.39845  23869575.167    23869588.650
 02  3  7  1 36  0.0000000  0 10G26G21G23G29G18G 6G17G22G15G 3
  22033983.812   -18996083.49849 -14791198.76646  22033983.841    22033992.854
  22425905.144   -14440917.47449 -11227974.30646  22425904.610    22425915.078
  22083478.475   -12803175.29249  -9957868.13847  22083477.946    22083486.621
  22630789.369   -13467045.06549 -10202058.98446  22630789.141    22630800.916
  20411535.825   -24150311.89249 -18504632.17848  20411535.308    20411541.526
  22198927.321   -19570571.62949 -15231324.66246  22198927.062    22198937.386
  20567183.822   -23341635.54449 -18166150.12447  20567183.195    20567191.104
  23936652.191    -7203442.48649  -5593258.16045  23936651.291    23936665.943
  20520216.883   -22856926.52349 -17562087.30747  20520216.120    20520223.923
  23851711.155    -9197874.67549  -6851387.86945  23851710.695    23851724.095
 02  3  7  1 36 30.0000000  0 10G26G21G23G29G18G 6G17G22G15G 3
  22043283.613   -18947212.69249 -14753117.60346  22043283.672    22043292.605
  22415047.490   -14497974.10449 -11272433.85346  22415046.966    22415057.424
  22096410.579   -12735216.50549  -9904913.25447  22096410.034    22096418.775
  22612246.972   -13564484.42649 -10277985.53346  22612246.838    22612258.600
  20409201.526   -24162578.50449 -18514190.51648  20409201.014    20409207.200
  22216504.079   -19478205.67149 -15159351.28946  22216503.804    22216514.199
  20566407.816   -23345713.35349 -18169327.59247  20566407.183    20566415.073
  23945999.084    -7154324.25149  -5554984.28745  23945998.260    23946013.006
  20515792.495   -22880176.77049 -17580204.33147  20515791.723    20515799.497
  23833890.324    -9291522.94549  -6924360.25045  23833889.772    23833903.191
 02  3  7  1 37  0.0000000  0 10G26G21G23G29G18G 6G17G22G15G 3
  22052695.941   -18897750.86549 -14714575.90546  22052695.976    22052704.800
  22404239.941   -14554767.54249 -11316688.32446  22404239.408    22404249.784
  22109370.121   -12667113.58049  -9851846.06347  22109369.612    22109378.376
  22593745.328   -13661711.20349 -10353746.42346  22593745.106    22593756.729
  20406944.719   -24174437.90749 -18523431.56148  20406944.197    20406950.367
  22234140.046   -19385528.29849 -15087135.24246  22234139.785    22234150.234
  20565674.211   -23349568.12549 -18172331.27747  20565673.591    20565681.488
  23955410.518    -7104866.59149  -5516445.92445  23955409.685    23955424.387
  20511412.120   -22903195.62249 -17598141.05547  20511411.346    20511419.136
  23816113.415    -9384939.15049  -6997151.81845  23816112.989    23816126.418
 02  3  7  1 37 30.0000000  0 10G26G21G23G29G18G 6G17G22G15G 3
  22062220.252   -18847700.15949 -14675575.34846  22062220.273    22062229.160
  22393482.486   -14611297.89549 -11360737.78047  22393481.965    22393492.235
  22122356.744   -12598868.76549  -9798668.29547  22122356.201    22122364.918
  22575284.461   -13758722.95749 -10429339.75146  22575284.216    22575295.785
  20404765.159   -24185891.41549 -18532356.31548  20404764.625    20404770.777
  22251834.815   -19292542.06349 -15014678.50146  22251834.545    22251845.054
  20564983.173   -23353199.28549 -18175160.71347  20564982.569    20564990.453
  23964886.093    -7055072.42249  -5477645.35145  23964885.166    23964899.926
  20507075.854   -22925982.53349 -17615897.03747  20507075.087    20507082.928
  23798381.056    -9478121.10249  -7069760.84045  23798380.765    23798394.302
 02  3  7  1 38  0.0000000  0 10G26G21G23G29G18G 6G17G22G15G 3
  22071856.468   -18797061.40049 -14636116.57846  22071856.512    22071865.415
  22382775.237   -14667564.05249 -11404581.37947  22382774.678    22382785.004
  22135370.285   -12530482.64649  -9745380.43947  22135369.712    22135378.386
  22556865.136   -13855515.71549 -10504762.45146  22556864.968    22556876.548
  20402662.938   -24196938.49349 -18540964.37048  20402662.421    20402668.538
  22269588.127   -19199247.94549 -14941981.87346  22269587.895    22269598.452
  20564335.118   -23356605.00249 -18177814.47947  20564334.487    20564342.313
  23974425.549    -7004943.12949  -5438583.64445  23974424.641    23974439.396
  20502784.155   -22948535.52349 -17633470.74747  20502783.388    20502791.169
  23780694.140    -9571065.39249  -7142184.67145  23780693.978    23780707.321
 02  3  7  1 38 30.0000000  0 10G26G21G23G29G18G 6G17G22G15G 3
  22081603.780   -18745838.81249 -14596202.86846  22081603.824    22081612.700
  22372117.692   -14723568.70449 -11448221.20547  22372117.166    22372127.571
  22148409.883   -12461959.27649  -9691985.62547  22148409.315    22148417.981
  22538487.674   -13952089.16849 -10580014.24246  22538487.480    22538498.995
  20400637.417   -24207582.35749 -18549258.22748  20400636.903    20400643.035
  22287399.230   -19105650.32249 -14869048.76046  22287398.985    22287409.515
  20563729.625   -23359786.78149 -18180293.75047  20563728.997    20563736.783
  23984027.712    -6954483.73649  -5399264.70645  23984026.774    23984041.696
  20498536.678   -22970856.00749 -17650863.27147  20498535.889    20498543.658
  23763052.766    -9663771.57949  -7214422.94545  23763052.471    23763065.546
 02  3  7  1 39  0.0000000  0 10G26G21G23G29G18G 6G17G22G15G 3
  22091462.280   -18694032.10549 -14555833.99946  22091462.309    22091471.171
  22361510.468   -14779309.53449 -11491655.47047  22361509.949    22361520.259
  22161475.663   -12393298.37249  -9638483.64447  22161475.070    22161483.719
  22520152.821   -14048438.46849 -10655091.36946  22520152.623    22520164.061
  20398688.858   -24217821.72549 -18557236.89848  20398688.342    20398694.476
  22305268.048   -19011749.35949 -14795879.26646  22305267.854    22305278.372
  20563167.283   -23362741.63949 -18182596.20847  20563166.656    20563174.415
  23993692.526    -6903694.70249  -5359688.92045  23993691.543    23993706.542
  20494333.979   -22992941.07049 -17668072.35447  20494333.198    20494340.985
  23745457.479    -9756235.14749  -7286472.19145  23745456.983    23745469.958
 02  3  7  1 39 30.0000000  0 10G26G21G23G29G18G 6G17G22G15G 3
  22101431.435   -18641644.37949 -14515012.39646  22101431.447    22101440.250
  22350953.296   -14834787.60849 -11534884.99247  22350952.728    22350962.962
  22174566.992   -12324503.05849  -9584876.92847  22174566.407    22174575.047
  22501860.895   -14144562.14149 -10729992.68546  22501860.676    22501872.129
  20396816.921   -24227658.79149 -18564902.09148  20396816.418    20396822.486
  22323193.949   -18917548.62049 -14722476.18946  22323193.754    22323204.253
  20562648.000   -23365470.10449 -18184722.25947  20562647.396    20562655.177
  24003419.301    -6852579.95349  -5319859.33045  24003418.449    24003433.357
  20490175.974   -23014791.41249 -17685098.54247  20490175.177    20490182.953
  23727908.301    -9848455.00249  -7358331.52545  23727907.842    23727920.841
 02  3  7  1 40  0.0000000  0 10G26G21G23G29G18G 6G17G22G15G 3
  22111510.859   -18588676.31249 -14473738.56946  22111510.850    22111519.791
  22340446.275   -14890001.60449 -11577908.74647  22340445.742    22340455.933
  22187683.897   -12255573.36049  -9531165.49747  22187683.297    22187691.956
  22483612.711   -14240455.91449 -10804714.85246  22483612.440    22483623.895
  20395021.642   -24237092.87949 -18572253.27348  20395021.101    20395027.139
  22341176.822   -18823048.65249 -14648839.94646  22341176.605    22341187.125
  20562172.266   -23367969.89849 -18186670.12247  20562171.665    20562179.461
  24013208.142    -6801140.57349  -5279776.77145  24013207.242    24013221.979
  20486062.967   -23036404.84449 -17701940.12547  20486062.174    20486069.967
  23710406.136    -9940427.17049  -7429997.87545  23710405.778    23710418.978
 02  3  7  1 40 30.0000000  0 10G26G21G23G29G18G 6G17G22G15G 3
  22121700.235   -18535130.42949 -14432014.50046  22121700.266    22121709.184
  22329989.402   -14944952.21749 -11620727.24847  22329988.851    22329998.996
  22200825.933   -12186511.82849  -9477351.32947  22200825.308    22200833.919
  22465408.599   -14336117.92949 -10879256.43046  22465408.402    22465419.738
  20393302.716   -24246125.60349 -18579291.69848  20393302.181    20393308.211
  22359215.980   -18728252.53249 -14574972.94646  22359215.757    22359226.280
  20561740.059   -23370240.87549 -18188439.67547  20561739.464    20561747.251
  24023058.051    -6749380.04149  -5239443.93445  24023057.024    24023071.932
  20481995.063   -23057781.25949 -17718597.00647  20481994.310    20482002.118
  23692951.585   -10032149.68749  -7501469.70845  23692951.302    23692964.528
 02  3  7  1 41  0.0000000  0 10G26G21G23G29G18G 6G17G22G15G 3
  22131999.155   -18481009.39249 -14389842.26946  22131999.186    22132008.053
  22319582.572   -14999639.84849 -11663340.85147  22319582.025    22319592.157
  22213992.578   -12117320.87949  -9423436.32647  22213991.943    22214000.530
  22447249.106   -14431545.89549 -10953615.65146  22447248.923    22447260.164
  20391659.901   -24254758.36649 -18586018.47848  20391659.368    20391665.418
  22377311.044   -18633162.81349 -14500877.16446  22377310.800    22377321.366
  20561351.458   -23372283.01549 -18190030.91447  20561350.843    20561358.610
  24032968.165    -6697301.51749  -5198863.37145  24032967.173    24032982.214
  20477972.454   -23078920.22549 -17735068.86247  20477971.695    20477979.495
  23675545.146   -10123620.73249  -7572745.60445  23675544.911    23675557.876
 02  3  7  1 41 30.0000000  0 10G26G21G23G29G18G 6G17G22G15G 3
  22142407.307   -18426314.46349 -14347222.84046  22142407.370    22142416.153
  22309225.809   -15054064.47349 -11705749.52047  22309225.295    22309235.390
  22227183.641   -12048001.45149  -9369421.19547  22227183.021    22227191.604
  22429134.797   -14526736.58249 -11027789.96546  22429134.564    22429145.759
  20390093.102   -24262991.62749 -18592433.95748  20390092.563    20390098.625
  22395461.605   -18537781.20549 -14426553.93846  22395461.355    22395471.979
  20561006.703   -23374094.69449 -18191442.57647  20561006.112    20561013.844
  24042938.202    -6644907.02349  -5158036.57745  24042937.341    24042952.674
  20473995.218   -23099820.65349 -17751354.84047  20473994.439    20474002.201
  23658187.229   -10214837.14849  -7643823.09245  23658186.798    23658199.602
 02  3  7  1 42  0.0000000  0 10G26G21G23G29G18G 6G17G22G15G 3
  22152923.923   -18371049.30949 -14304159.06546  22152923.940    22152932.818
  22298918.867   -15108227.52449 -11747954.36247  22298918.310    22298928.343
  22240398.534   -11978556.81349  -9315308.51147  22240397.913    22240406.546
  22411065.818   -14621688.55349 -11101778.27946  22411065.592    22411076.703
  20388601.893   -24270827.56449 -18598539.83548  20388601.375    20388607.448
  22413667.109   -18442111.54949 -14352006.25346  22413666.831    22413677.406
  20560705.683   -23375676.57049 -18192675.18447  20560705.070    20560712.783
  24052968.159    -6592200.78949  -5116966.86245  24052967.107    24052982.323
  20470063.223   -23120483.27849 -17767455.51847  20470062.441    20470070.161
  23640877.864   -10305797.87549  -7714701.35345  23640877.391    23640890.039
 02  3  7  1 42 30.0000000  0 10G26G21G23G29G18G 6G17G22G15G 3
  22163548.958   -18315214.16249 -14260651.15546  22163548.984    22163557.858
  22288661.814   -15162127.52749 -11789954.22647  22288661.271    22288671.279
  22253637.297   -11908986.90649  -9261098.20247  22253636.688    22253645.340
  22393043.146   -14716397.39749 -11175577.13446  22393042.919    22393053.940
  20387186.485   -24278265.36149 -18604335.46748  20387185.975    20387192.060
  22431927.154   -18346154.26949 -14277234.44546  22431926.890    22431937.543
  20560448.846   -23377026.14949 -18193726.77247  20560448.228    20560455.933
  24063057.138    -6539183.70149  -5075654.92645  24063056.183    24063071.001
  20466176.997   -23140905.38749 -17783368.78548  20466176.201    20466183.907
  23623617.786   -10396498.86949  -7785377.22645  23623617.361    23623629.943
 02  3  7  1 43  0.0000000  0 10G26G21G23G29G18G 6G17G22G15G 3
  22174282.540   -18258808.52249 -14216698.69446  22174282.584    22174291.450
  22278455.427   -15215761.69549 -11831746.94947  22278454.907    22278464.870
  22266900.038   -11839290.81849  -9206789.58047  22266899.406    22266908.089
  22375067.720   -14810857.95349 -11249182.52046  22375067.484    22375078.513
  20385847.144   -24285303.54449 -18609819.71748  20385846.622    20385852.683
  22450242.023   -18249909.09349 -14202238.31746  22450241.781    22450252.480
  20560236.839   -23378140.09649 -18194594.75047  20560236.215    20560243.953
  24073205.017    -6485855.76149  -5034100.75745  24073204.038    24073219.081
  20462337.150   -23161083.38349 -17799091.83648  20462336.360    20462344.104
  23606408.066   -10486934.91949  -7855846.65845  23606407.794    23606420.276
 02  3  7  1 43 30.0000000  0 10G26G21G23G29G18G 6G17G22G15G 3
  22185122.941   -18201841.76449 -14172308.99546  22185122.969    22185131.874
  22268298.340   -15269137.33949 -11873338.22447  22268297.798    22268307.697
  22280185.061   -11769477.61249  -9152389.70347  22280184.439    22280193.111
  22357138.708   -14905074.77849 -11322597.99546  22357138.456    22357149.456
  20384582.260   -24291950.29349 -18614998.94948  20384581.748    20384587.780
  22468610.024   -18153385.57249 -14127025.29346  22468609.695    22468620.348
  20560068.442   -23379024.74149 -18195284.05847  20560067.821    20560075.593
  24083410.232    -6432227.06249  -4992312.23345  24083409.203    24083424.483
  20458542.557   -23181023.85749 -17814629.81147  20458541.776    20458549.497
  23589247.984   -10577110.79749  -7926113.35045  23589247.724    23589260.191
 02  3  7  1 44  0.0000000  0 10G26G21G23G29G18G 6G17G22G15G 3
  22196070.939   -18144309.73549 -14127478.81646  22196070.930    22196079.881
  22258191.552   -15322248.68749 -11914723.55247  22258190.995    22258200.869
  22293493.239   -11699542.74049  -9097895.01947  22293492.627    22293501.288
  22339257.747   -14999038.86149 -11395816.53246  22339257.524    22339268.411
  20383392.934   -24298200.05549 -18619868.84048  20383392.411    20383398.432
  22487031.632   -18056579.56849 -14051592.14146  22487031.332    22487042.001
  20559945.056   -23379673.13149 -18195789.27047  20559944.437    20559952.167
  24093673.552    -6378293.92749  -4950286.49845  24093672.627    24093687.739
  20454794.496   -23200719.90849 -17829977.32447  20454793.711    20454801.395
  23572139.203   -10667017.71149  -7996170.46845  23572138.848    23572151.209
 02  3  7  1 44 30.0000000  0 10G26G21G23G29G18G 6G17G22G15G 3
  22207125.630   -18086217.05749 -14082211.77546  22207125.637    22207134.529
  22248134.512   -15375098.20149 -11955904.85247  22248133.938    22248143.848
  22306823.757   -11629490.45449  -9043308.84447  22306823.148    22306831.851
  22321424.936   -15092749.96249 -11468837.94546  22321424.730    22321435.543
  20382278.423   -24304056.48649 -18624432.24348  20382277.923    20382283.938
  22505506.115   -17959495.91149 -13975942.63446  22505505.852    22505516.505
  20559866.304   -23380086.85549 -18196111.62647  20559865.671    20559873.398
  24103993.818    -6324061.50349  -4908027.52745  24103992.793    24104007.950
  20451092.595   -23220173.27949 -17845135.73847  20451091.834    20451099.477
  23555081.651   -10756655.78149  -8066018.08245  23555081.197    23555093.311
 02  3  7  1 45  0.0000000  0 10G26G21G23G29G18G 6G17G22G15G 3
  22218286.827   -18027564.44249 -14036508.40746  22218286.830    22218295.711
  22238127.438   -15427684.70849 -11996881.20047  22238126.865    22238136.793
  22320176.572   -11559320.79049  -8988631.19847  22320175.953    22320184.724
  22303641.084   -15186203.94849 -11541658.99346  22303640.821    22303651.639
  20381238.913   -24309518.91249 -18628688.62948  20381238.422    20381244.455
  22524033.298   -17862135.34449 -13900077.35446  22524033.086    22524043.702
  20559832.610   -23380263.62749 -18196249.33347  20559831.985    20559839.710
  24114370.744    -6269531.06449  -4865536.34545  24114369.659    24114384.840
  20447437.375   -23239381.58249 -17860103.18848  20447436.584    20447444.171
  23538076.024   -10846020.84649  -8135652.96645  23538075.510    23538087.339
 02  3  7  1 45 30.0000000  0 10G26G21G23G29G18G 6G17G22G15G 3
  22229553.828   -17968355.59349 -13990371.62046  22229553.860    22229562.743
  22228170.128   -15480009.65349 -12037653.74547  22228169.589    22228179.453
  22333551.111   -11489036.97749  -8933864.60547  22333550.515    22333559.273
  22285906.256   -15279399.66049 -11614278.79246  22285906.049    22285916.815
  20380273.860   -24314590.09749 -18632640.16048  20380273.350    20380279.392
  22542612.419   -17764501.70349 -13823999.29346  22542612.214    22542622.848
  20559843.922   -23380204.01049 -18196202.83847  20559843.307    20559851.036
  24124803.293    -6214707.02549  -4822816.40045  24124802.417    24124817.653
  20443828.636   -23258345.42949 -17874880.16247  20443827.833    20443835.391
  23521122.424   -10935111.97649  -8205074.38645  23521121.937    23521133.409
 02  3  7  1 46  0.0000000  0 10G26G21G23G29G18G 6G17G22G15G 3
  22240926.556   -17908591.70449 -13943802.33146  22240926.567    22240935.429
  22218262.964   -15532072.17149 -12078221.79347  22218262.387    22218272.120
  22346947.298   -11418639.74449  -8879009.62647  22346946.691    22346955.440
  22268221.345   -15372333.41249 -11686694.46546  22268221.162    22268231.859
  20379383.297   -24319269.97549 -18636286.77648  20379382.787    20379388.811
  22561243.258   -17666596.39449 -13747709.54346  22561243.086    22561253.753
  20559900.584   -23379906.24649 -18195970.77047  20559899.957    20559907.643
  24135291.295    -6159591.11149  -4779869.01945  24135290.626    24135305.852
  20440266.694   -23277063.28749 -17889465.45947  20440265.899    20440273.422
  23504221.523   -11023925.88649  -8274279.80145  23504221.067    23504232.385
 02  3  7  1 46 30.0000000  0 10G26G21G23G29G18G 6G17G22G15G 3
  22252404.308   -17848275.52249 -13896802.69346  22252404.321    22252413.155
  22208405.533   -15583873.14449 -12118586.04147  22208404.951    22208414.622
  22360364.661   -11348131.19249  -8824067.90747  22360364.042    22360372.760
  22250586.768   -15465003.03549 -11758904.33346  22250586.550    22250597.201
  20378566.949   -24323559.74649 -18639629.41348  20378566.462    20378572.423
  22579925.273   -17568421.99249 -13671210.10946  22579925.103    22579935.827
  20560002.583   -23379370.21249 -18195553.04647  20560001.947    20560009.592
  24145834.822    -6104186.51249  -4736696.67145  24145833.947    24145849.054
  20436751.684   -23295534.49749 -17903858.57047  20436750.892    20436758.417
  23487373.784   -11112460.44449  -8343267.54446  23487373.370    23487384.664
 02  3  7  1 47  0.0000000  0 10G26G21G23G29G18G 6G17G22G15G 3
  22263986.983   -17787408.02249 -13849373.44146  22263986.992    22263995.731
  22198597.905   -15635411.72849 -12158745.80547  22198597.321    22198607.065
  22373803.092   -11277512.01849  -8769039.98947  22373802.459    22373811.187
  22233003.221   -15557404.63649 -11830905.36146  22233002.973    22233013.516
  20377824.826   -24327459.47249 -18642668.11348  20377824.316    20377830.260
  22598658.279   -17469979.66549 -13594501.91046  22598658.054    22598668.890
  20560150.311   -23378593.71149 -18194947.95147  20560149.675    20560157.321
  24156432.681    -6048494.92449  -4693300.72645  24156431.810    24156446.993
  20433283.992   -23313757.08849 -17918057.95547  20433283.203    20433290.723
  23470579.840   -11200712.24549  -8412034.93946  23470579.426    23470590.792
 02  3  7  1 47 30.0000000  0 10G26G21G23G29G18G 6G17G22G15G 3
  22275673.798   -17725993.22549 -13801517.72946  22275673.812    22275682.547
  22188839.820   -15686689.86049 -12198702.62447  22188839.256    22188849.046
  22387261.939   -11206785.47149  -8713928.39647  22387261.302    22387270.038
  22215470.786   -15649537.28349 -11902696.80446  22215470.550    22215480.995
  20377156.419   -24330971.77049 -18645404.91848  20377155.909    20377161.860
  22617441.526   -17371273.52449 -13517588.12546  22617441.301    22617452.130
  20560343.636   -23377577.49849 -18194156.05647  20560343.021    20560350.664
  24167084.002    -5992520.50349  -4649684.37745  24167083.316    24167098.581
  20429863.484   -23331731.70749 -17932064.10347  20429862.690    20429870.224
  23453839.910   -11288680.24749  -8480581.18946  23453839.456    23453850.907
 02  3  7  1 48  0.0000000  0 10G26G21G23G29G18G 6G17G22G15G 3
  22287464.585   -17664032.33149 -13753236.49246  22287464.580    22287473.359
  22179131.633   -15737706.32449 -12238455.55147  22179131.057    22179140.763
  22400741.159   -11135952.07449  -8658733.55047  22400740.500    22400749.225
  22197990.198   -15741397.18149 -11974275.71446  22197989.971    22198000.376
  20376561.714   -24334096.78749 -18647839.94648  20376561.220    20376567.148
  22636274.640   -17272304.98149 -13440469.88346  22636274.393    22636285.378
  20560582.879   -23376319.83649 -18193176.01947  20560582.275    20560589.954
  24177789.094    -5936265.30449  -4605849.25745  24177788.325    24177803.671
  20426490.431   -23349456.97349 -17945875.95247  20426489.656    20426497.207
  23437154.629   -11376361.12349  -8548903.69846  23437154.096    23437165.501
 02  3  7  1 48 30.0000000  0 10G26G21G23G29G18G 6G17G22G15G 3
  22299358.679   -17601527.54649 -13704531.44346  22299358.735    22299367.663
  22169473.196   -15788461.00949 -12278004.49347  22169472.664    22169482.279
  22414240.355   -11065013.39049  -8603456.65446  22414239.685    22414248.398
  22180562.043   -15832981.75949 -12045640.09046  22180561.857    22180572.191
  20376040.565   -24336835.21249 -18649973.73148  20376040.061    20376045.992
  22655157.306   -17173076.19249 -13363148.85746  22655157.031    22655168.094
  20560868.330   -23374819.79249 -18192007.10947  20560867.718    20560875.412
  24188547.121    -5879731.75349  -4561797.23745  24188546.478    24188561.685
  20423165.057   -23366931.64849 -17959492.54048  20423164.288    20423171.812
  23420524.358   -11463752.14449  -8617000.34946  23420523.909    23420535.204
 02  3  7  1 49  0.0000000  0 10G26G21G23G29G18G 6G17G22G15G 3
  22311356.060   -17538481.41049 -13655404.56446  22311356.100    22311364.897
  22159864.520   -15838954.40949 -12317349.83147  22159863.946    22159873.538
  22427759.191   -10993971.18349  -8548099.08846  22427758.526    22427767.256
  22163186.851   -15924288.38049 -12116787.87346  22163186.606    22163196.906
  20375592.668   -24339188.36049 -18651807.30048  20375592.171    20375598.126
  22674089.047   -17073589.64849 -13285626.96846  22674088.785    22674099.811
  20561200.027   -23373076.59849 -18190648.73247  20561199.418    20561207.071
  24199357.587    -5822922.86349  -4517530.65945  24199356.893    24199372.220
  20419887.543   -23384154.95749 -17972913.24948  20419886.777    20419894.301
  23403949.794   -11550850.78049  -8684869.17046  23403949.413    23403960.678
 02  3  7  1 49 30.0000000  0 10G26G21G23G29G18G 6G17G22G15G 3
  22323455.741   -17474897.23749 -13605858.44846  22323455.733    22323464.495
  22150305.239   -15889188.04049 -12356492.76047  22150304.654    22150314.312
  22441297.146   -10922828.28649  -8492663.07846  22441296.524    22441305.273
  22145864.713   -16015315.55149 -12187717.92846  22145864.547    22145874.765
  20375217.776   -24341158.23949 -18653342.23048  20375217.301    20375223.234
  22693069.155   -16973848.94249 -13207907.04446  22693068.915    22693079.901
  20561577.966   -23371090.63249 -18189101.19947  20561577.326    20561584.952
  24210219.899    -5765842.61449  -4473052.64445  24210219.044    24210234.345
  20416657.744   -23401127.53949 -17986138.59148  20416656.953    20416664.437
  23387431.115   -11637655.84749  -8752509.23246  23387430.700    23387442.091
 02  3  7  1 50  0.0000000  0 10G26G21G23G29G18G 6G17G22G15G 3
  22335658.005   -17410773.76749 -13555892.07846  22335657.976    22335666.775
  22140796.058   -15939158.26249 -12395430.42847  22140795.507    22140805.134
  22454854.680   -10851582.62149  -8437146.98246  22454854.088    22454862.850
  22128597.082   -16106057.05849 -12258425.37646  22128596.892    22128607.003
  20374916.368   -24342742.28149 -18654576.49648  20374915.879    20374921.753
  22712097.909   -16873852.47049 -13129987.81946  22712097.672    22712108.691
  20562002.925   -23368857.19849 -18187360.83047  20562002.312    20562009.904
  24221133.715    -5708489.93549  -4428362.35045  24221132.938    24221148.297
  20413476.590   -23417844.52949 -17999164.76448  20413475.805    20413483.277
  23370969.529   -11724161.36149  -8819915.88446  23370969.055    23370980.584
 02  3  7  1 50 30.0000000  0 10G26G21G23G29G18G 6G17G22G15G 3
  22347961.431   -17346118.39449 -13505511.25646  22347961.428    22347970.260
  22131336.007   -15988870.68849 -12434167.22947  22131335.455    22131344.915
  22468430.588   -10780240.68349  -8381555.87746  22468429.980    22468438.775
  22111383.327   -16196515.10849 -12328911.95246  22111383.099    22111393.217
  20374687.152   -24343946.76149 -18655515.00548  20374686.638    20374692.479
  22731173.982   -16773607.71849 -13051875.13046  22731173.766    22731184.637
  20562474.196   -23366380.50349 -18185430.90647  20562473.586    20562481.180
  24232097.812    -5650872.69849  -4383465.90445  24232097.098    24232112.639
  20410343.228   -23434310.26749 -18011995.15948  20410342.434    20410349.932
  23354564.353   -11810369.87049  -8887091.09246  23354563.812    23354575.480
 02  3  7  1 51  0.0000000  0 10G26G21G23G29G18G 6G17G22G15G 3
  22360366.445   -17280929.70549 -13454714.87646  22360366.480    22360375.203
  22121925.804   -16038321.46749 -12472700.14547  22121925.230    22121934.602
  22482025.239   -10708800.35849  -8325888.10246  22482024.618    22482033.458
  22094224.673   -16286683.34349 -12399172.69546  22094224.457    22094234.590
  20374530.679   -24344768.92449 -18656155.60048  20374530.156    20374535.975
  22750297.503   -16673113.03849 -12973567.67446  22750297.257    22750308.270
  20562992.648   -23363656.08949 -18183307.95347  20562992.017    20562999.599
  24243112.850    -5592989.80749  -4338362.44645  24243112.082    24243127.485
  20407258.554   -23450520.07649 -18024626.12448  20407257.769    20407265.297
  23338216.842   -11896274.84249  -8954029.77546  23338216.390    23338228.145
 02  3  7  1 51 30.0000000  0 10G26G21G23G29G18G 6G17G22G15G 3
  22372872.030   -17215212.83049 -13403506.90346  22372871.983    22372880.680
  22112564.715   -16087513.70649 -12511031.59747  22112564.141    22112573.480
  22495637.769   -10637266.11049  -8270147.14246  22495637.145    22495646.006
  22077121.185   -16376562.06349 -12469207.84846  22077120.968    22077131.023
  20374446.239   -24345212.49749 -18656501.19148  20374445.715    20374451.521
  22769467.579   -16572373.68649 -12895069.57246  22769467.406    22769478.488
  20563557.829   -23360685.87449 -18180993.47647  20563557.196    20563564.778
  24254177.265    -5534847.19349  -4293056.61645  24254176.423    24254191.573
  20404222.226   -23466475.98049 -18037059.24048  20404221.442    20404228.954
  23321927.045   -11981876.72549  -9020732.28946  23321926.676    23321938.337
 02  3  7  1 52  0.0000000  0 10G26G21G23G29G18G 6G17G22G15G 3
  22385477.900   -17148967.79149 -13351887.37546  22385477.876    22385486.754
  22103253.165   -16136445.12049 -12549159.81847  22103252.627    22103261.960
  22509268.389   -10565636.73449  -8214332.05946  22509267.768    22509276.596
  22060073.728   -16466146.07749 -12539013.36546  22060073.489    22060083.494
  20374434.064   -24345276.02949 -18656550.64748  20374433.563    20374439.363
  22788684.448   -16471389.52649 -12816380.70946  22788684.183    22788695.240
  20564170.496   -23357466.27549 -18178484.66947  20564169.862    20564177.397
  24265290.691    -5476444.81649  -4247548.36445  24265289.790    24265305.206
  20401234.867   -23482174.66049 -18049291.92348  20401234.070    20401241.537
  23305696.113   -12067170.46749  -9087194.69446  23305695.683    23305707.198
 02  3  7  1 52 30.0000000  0 10G26G21G23G29G18G 6G17G22G15G 3
  22398183.878   -17082197.39249 -13299858.48746  22398183.840    22398192.772
  22093991.113   -16185116.61249 -12587085.51447  22093990.609    22093999.881
  22522916.722   -10493914.44949  -8158444.57246  22522916.110    22522924.893
  22043082.771   -16555433.21349 -12608587.55346  22043082.542    22043092.500
  20374493.938   -24344961.25249 -18656305.31448  20374493.452    20374499.236
  22807947.211   -16370163.50749 -12737503.40446  22807946.966    22807958.022
  20564830.603   -23353997.00249 -18175781.31347  20564829.975    20564837.483
  24276452.993    -5417786.03649  -4201840.34045  24276452.172    24276467.765
  20398296.448   -23497615.84449 -18061323.96248  20398295.664    20398303.088
  23289524.164   -12152154.14549  -9153415.49146  23289523.659    23289535.179
 02  3  7  1 53  0.0000000  0 10G26G21G23G29G18G 6G17G22G15G 3
  22410989.160   -17014904.85049 -13247422.72546  22410989.165    22410998.122
  22084778.498   -16233529.11949 -12624809.40747  22084777.966    22084787.147
  22536582.305   -10422101.53949  -8102486.47046  22536581.689    22536590.445
  22026148.584   -16644421.66349 -12677928.99846  22026148.395    22026158.316
  20374625.427   -24344269.97949 -18655766.61148  20374624.941    20374630.720
  22827255.333   -16268698.72049 -12658440.03846  22827255.150    22827266.124
  20565538.272   -23350278.03349 -18172883.37847  20565537.655    20565545.151
  24287663.734    -5358874.48949  -4155935.33645  24287662.870    24287678.490
  20395407.096   -23512799.11849 -18073155.02648  20395406.314    20395413.721
  23273411.519   -12236825.84749  -9219393.19046  23273411.014    23273422.573
 02  3  7  1 53 30.0000000  0 10G26G21G23G29G18G 6G17G22G15G 3
  22423893.300   -16947093.43049 -13194582.65446  22423893.291    22423902.146
  22075614.865   -16281683.76949 -12662332.38347  22075614.320    22075623.460
  22550264.671   -10350200.35649  -8046459.60246  22550264.047    22550272.782
  22009271.721   -16733109.58749 -12747036.26546  22009271.509    22009281.371
  20374828.253   -24343203.96949 -18654935.91548  20374827.760    20374833.540
  22846608.384   -16166998.32849 -12579193.08746  22846608.153    22846619.155
  20566293.499   -23346309.14249 -18169790.70647  20566292.892    20566300.382
  24298921.834    -5299713.70149  -4109836.11345  24298920.847    24298936.468
  20392566.870   -23527724.38049 -18084785.04248  20392566.090    20392573.492
  23257358.481   -12321184.13849  -9285126.68846  23257357.987    23257369.523
 02  3  7  1 54  0.0000000  0 10G26G21G23G29G18G 6G17G22G15G 3
  22436895.985   -16878763.61749 -13141338.61446  22436895.960    22436904.830
  22066500.678   -16329578.63449 -12699652.92647  22066500.140    22066509.238
  22563963.910   -10278210.48749  -7990363.61546  22563963.263    22563971.985
  21992452.865   -16821492.37749 -12815905.75646  21992452.652    21992462.495
  20375102.565   -24341762.42549 -18653812.58748  20375102.050    20375107.819
  22866006.112   -16065062.83949 -12499762.94546  22866005.873    22866016.884
  20567096.848   -23342087.60249 -18166501.17447  20567096.216    20567103.673
  24310226.943    -5240304.52049  -4063543.35245  24310226.090    24310241.633
  20389776.224   -23542388.96049 -18096211.92248  20389775.452    20389782.874
  23241365.849   -12405224.49249  -9350612.45646  23241365.388    23241376.820
 02  3  7  1 54 30.0000000  0 10G26G21G23G29G18G 6G17G22G15G 3
  22449996.704   -16809919.13549 -13087693.55046  22449996.700    22450005.461
  22057435.583   -16377215.32149 -12736772.29947  22057435.065    22057444.132
  22577679.452   -10206134.73749  -7934200.70646  22577678.828    22577687.543
  21975692.277   -16909568.85049 -12884536.56746  21975692.065    21975701.892
  20375447.859   -24339947.73149 -18652398.50448  20375447.361    20375453.096
  22885447.917   -15962895.93049 -12420152.48846  22885447.684    22885458.696
  20567948.190   -23337613.83649 -18163015.09947  20567947.556    20567954.998
  24321578.765    -5180651.03149  -4017060.23645  24321577.942    24321593.348
  20387035.129   -23556793.34249 -18107436.06348  20387034.360    20387041.758
  23225434.106   -12488945.69549  -9415849.53746  23225433.667    23225444.794
 02  3  7  1 55  0.0000000  0 10G26G21G23G29G18G 6G17G22G15G 3
  22463195.156   -16740560.82649 -13033648.09746  22463195.114    22463203.893
  22048419.976   -16424592.16649 -12773689.19647  22048419.437    22048428.527
  22591411.395   -10133972.90249  -7877970.70446  22591410.762    22591419.491
  21958990.848   -16997334.61149 -12952925.25746  21958990.647    21959000.362
  20375864.271   -24337759.25349 -18650693.14848  20375863.773    20375869.497
  22904933.692   -15860497.97049 -12340361.98346  22904933.405    22904944.522
  20568847.977   -23332885.07749 -18159330.31847  20568847.363    20568854.817
  24332976.779    -5120754.42949  -3970387.66345  24332975.901    24332991.452
  20384344.129   -23570934.54149 -18118455.12048  20384343.333    20384350.715
  23209563.868   -12572343.47249  -9480834.61046  23209563.513    23209574.396
 02  3  7  1 55 30.0000000  0 10G26G21G23G29G18G 6G17G22G15G 3
  22476489.960   -16670695.41849 -12979207.51746  22476489.970    22476498.793
  22039452.933   -16471713.70649 -12810407.15947  22039452.385    22039461.446
  22605158.615   -10061730.88449  -7821678.23146  22605157.994    22605166.726
  21942348.277   -17084791.35349 -13021073.16346  21942348.049    21942357.713
  20376350.797   -24335202.50049 -18648700.82848  20376350.296    20376355.984
  22924461.998   -15757875.85749 -12260396.82146  22924461.795    22924473.120
  20569795.645   -23327905.00449 -18155449.70647  20569795.037    20569802.487
  24344419.687    -5060621.81949  -3923531.20645  24344418.959    24344434.330
  20381702.444   -23584816.20549 -18129271.94748  20381701.672    20381709.028
  23193754.896   -12655419.66949  -9545569.11546  23193754.528    23193765.325
 02  3  7  1 56  0.0000000  0 10G26G21G23G29G18G 6G17G22G15G 3
  22489881.888   -16600320.42349 -12924369.85946  22489881.859    22489890.708
  22030535.252   -16518575.72249 -12846922.89947  22030534.708    22030543.732
  22618921.792    -9989404.84149  -7765320.29146  22618921.167    22618929.957
  21925765.928   -17171931.55349 -13088974.41146  21925765.698    21925775.295
  20376908.093   -24332273.56049 -18646418.49848  20376907.581    20376913.252
  22944033.546   -15655026.90149 -12180254.90846  22944033.356    22944044.734
  20570792.343   -23322667.36049 -18151368.39347  20570791.737    20570799.161
  24355908.181    -5000250.78449  -3876488.95345  24355907.137    24355922.626
  20379111.356   -23598432.35549 -18139881.87948  20379110.575    20379117.919
  23178008.536   -12738166.92849  -9610047.30846  23178008.109    23178018.859
 02  3  7  1 56 30.0000000  0 10G26G21G23G29G18G 6G17G22G15G 3
  22503369.949   -16529440.51349 -12869138.73946  22503369.942    22503378.725
  22021666.551   -16565180.67449 -12883238.33447  22021666.008    22021674.967
  22632700.227    -9916998.45549  -7708899.74346  22632699.588    22632708.475
  21909243.845   -17258754.70649 -13156628.59646  21909243.607    21909253.155
  20377535.606   -24328975.52049 -18643848.56048  20377535.106    20377540.796
  22963647.508   -15551955.63449 -12099939.77546  22963647.268    22963658.651
  20571837.748   -23317173.54349 -18147087.45647  20571837.104    20571844.564
  24367440.708    -4939646.46549  -3829264.92645  24367439.663    24367455.412
  20376570.532   -23611784.25649 -18150285.90148  20376569.744    20376577.071
  23162324.843   -12820585.00649  -9674269.01246  23162324.357    23162335.063
 02  3  7  1 57  0.0000000  0 10G26G21G23G29G18G 6G17G22G15G 3
  22516953.707   -16458057.99049 -12813515.98346  22516953.707    22516962.365
  22012846.787   -16611528.56649 -12919353.45347  22012846.234    22012855.149
  22646493.688    -9844513.02049  -7652417.58146  22646493.089    22646502.019
  21892782.634   -17345258.03749 -13224033.57946  21892782.422    21892791.887
  20378233.221   -24325309.33849 -18640991.75448  20378232.743    20378238.435
  22983303.252   -15448664.14249 -12019453.04046  22983303.030    22983314.475
  20572932.028   -23311422.31249 -18142605.93247  20572931.436    20572938.952
  24379017.130    -4878811.43949  -3781861.13145  24379016.157    24379032.185
  20374080.219   -23624870.70249 -18160483.07348  20374079.428    20374086.774
  23146704.137   -12902671.05749  -9738232.00146  23146703.651    23146714.310
 02  3  7  1 57 30.0000000  0 10G26G21G23G29G18G 6G17G22G15G 3
  22530632.230   -16386176.38849 -12757504.33746  22530632.248    22530641.010
  22004075.607   -16657620.66049 -12955269.25347  22004075.056    22004084.057
  22660301.794    -9771950.96449  -7595875.71446  22660301.190    22660310.187
  21876382.596   -17431440.01449 -13291188.16146  21876382.396    21876391.797
  20379000.498   -24321277.38949 -18637849.93348  20379000.012    20379005.688
  23003000.312   -15345155.80449 -11938797.30646  23003000.134    23003011.602
  20574075.418   -23305413.92649 -18137924.03247  20574074.814    20574082.288
  24390637.234    -4817749.56249  -3734280.57345  24390636.243    24390652.058
  20371640.397   -23637691.79149 -18170473.47548  20371639.607    20371646.940
  23131146.885   -12984423.47549  -9801935.01546  23131146.521    23131157.052
 02  3  7  1 58  0.0000000  0 10G26G21G23G29G18G 6G17G22G15G 3
  22544405.427   -16313797.61449 -12701105.27846  22544405.453    22544414.106
  21995353.314   -16703456.12449 -12990985.08247  21995352.774    21995361.740
  22674124.305    -9699313.04649  -7539274.73846  22674123.701    22674132.702
  21860044.323   -17517297.25849 -13358089.69846  21860044.127    21860053.516
  20379837.295   -24316879.80949 -18634423.20148  20379836.793    20379842.502
  23022738.499   -15241432.56449 -11857974.12446  23022738.260    23022749.614
  20575267.996   -23299146.95149 -18133040.62747  20575267.379    20575274.813
  24402299.775    -4756462.93049  -3686524.86345  24402298.700    24402314.424
  20369251.400   -23650245.93049 -18180255.86248  20369250.621    20369257.907
  23115653.885   -13065838.99749  -9865375.52646  23115653.506    23115663.912
 02  3  7  1 58 30.0000000  0 10G26G21G23G29G18G 6G17G22G15G 3
  22558273.175   -16240922.80349 -12644319.70246  22558273.113    22558281.691
  21986680.157   -16749033.76749 -13026500.02547  21986679.599    21986688.409
  22687961.342    -9626599.27649  -7482614.64946  22687960.722    22687969.702
  21843768.554   -17602825.98649 -13424735.26447  21843768.354    21843777.709
  20380743.614   -24312116.53149 -18630711.51948  20380743.125    20380748.862
  23042517.262   -15137495.22449 -11776984.12846  23042516.997    23042528.366
  20576510.250   -23292618.79549 -18127953.71947  20576509.619    20576517.011
  24414004.497    -4694952.84049  -3638595.05345  24414003.567    24414019.746
  20366913.632   -23662530.83949 -18189828.46348  20366912.840    20366920.098
  23100225.884   -13146913.85449  -9928550.57446  23100225.347    23100235.686
 02  3  7  1 59  0.0000000  0 10G26G21G23G29G18G 6G17G22G15G 3
  22572234.361   -16167555.68049 -12587150.49246  22572234.368    22572242.950
  21978055.669   -16794355.30549 -13061815.38647  21978055.089    21978063.896
  22701812.276    -9553812.16249  -7425897.40946  22701811.663    22701820.598
  21827555.625   -17688024.59149 -13491123.57547  21827555.448    21827564.777
  20381719.212   -24306989.58349 -18626716.44648  20381718.720    20381724.454
  23062335.959   -15033347.20949 -11695829.96446  23062335.717    23062347.260
  20577802.118   -23285829.64949 -18122663.43947  20577801.505    20577808.918
  24425751.457    -4633223.27249  -3590494.22545  24425750.394    24425766.737
  20364627.019   -23674546.66849 -18199191.39148  20364626.233    20364633.468
  23084862.796   -13227646.92849  -9991459.30046  23084862.213    23084872.550
 02  3  7  1 59 30.0000000  0 10G26G21G23G29G18G 6G17G22G15G 3
  22586288.392   -16093701.17349 -12529601.51546  22586288.408    22586297.135
  21969479.238   -16839423.91549 -13096933.66347  21969478.687    21969487.547
  22715676.403    -9480955.59349  -7369126.05646  22715675.775    22715684.734
  21811405.613   -17772893.00849 -13557254.60247  21811405.389    21811414.661
  20382763.368   -24301502.55649 -18622440.79748  20382762.867    20382768.552
  23082193.954   -14928993.34549 -11614515.42146  23082193.709    23082205.301
  20579143.402   -23278780.99649 -18117170.93947  20579142.786    20579150.209
  24437539.108    -4571279.63449  -3542226.58045  24437538.054    24437554.124
  20362391.366   -23686294.88049 -18208345.79148  20362390.590    20362397.817
  23069564.535   -13308037.92049 -10054101.48046  23069564.074    23069574.506
 02  3  7  2  0  0.0000000  0 10G26G21G23G29G18G 6G17G22G15G 3
  22600435.134   -16019358.64049 -12471672.25746  22600435.214    22600444.038
  21960951.640   -16884236.16749 -13131852.17947  21960951.100    21960959.994
  22729554.114    -9408027.81749  -7312299.21746  22729553.478    22729562.483
  21795319.451   -17857425.44149 -13623123.82847  21795319.255    21795328.471
  20383876.392   -24295653.56549 -18617883.09348  20383875.866    20383881.526
  23102091.316   -14824432.83949 -11533039.85046  23102090.995    23102102.679
  20580534.856   -23271468.75749 -18111473.03147  20580534.243    20580541.650
  24449367.372    -4509121.34649  -3493791.67645  24449366.495    24449382.367
  20360207.451   -23697771.24549 -18217288.35648  20360206.702    20360213.904
  23054332.464   -13388081.11749 -10116472.65146  23054332.148    23054342.688
 02  3  7  2  0 30.0000000  0 10G26G21G23G29G18G 6G17G22G15G 3
  22614674.406   -15944531.23649 -12413365.18446  22614674.456    22614683.230
  21952472.696   -16928792.74049 -13166571.47447  21952472.150    21952481.017
  22743445.019    -9335030.50149  -7255418.19246  22743444.401    22743453.394
  21779297.634   -17941619.86649 -13688729.68047  21779297.436    21779306.591
  20385058.027   -24289443.85249 -18613044.31448  20385057.508    20385063.154
  23122027.314   -14719668.47349 -11451405.38546  23122026.994    23122038.760
  20581976.555   -23263892.42649 -18105569.35847  20581975.964    20581983.296
  24461236.060    -4446751.60049  -3445192.00345  24461235.049    24461251.041
  20358075.346   -23708975.43449 -18226018.84348  20358074.568    20358081.745
  23039167.306   -13467774.45349 -10178571.20646  23039166.996    23039177.342
 02  3  7  2  1  0.0000000  0 10G26G21G23G29G18G 6G17G22G15G 3
  22629005.190   -15869222.99849 -12354683.41846  22629005.186    22629013.888
  21944042.109   -16973095.87949 -13201093.27547  21944041.516    21944050.322
  22757348.624    -9261966.57049  -7198485.25146  22757347.996    22757357.060
  21763340.320   -18025475.21649 -13754071.30947  21763340.123    21763349.210
  20386307.663   -24282876.54349 -18607926.88148  20386307.163    20386312.836
  23142001.425   -14614704.28449 -11369615.21546  23142001.125    23142012.881
  20583468.455   -23256052.54749 -18099460.32447  20583467.832    20583475.102
  24473144.205    -4384174.96149  -3396431.13245  24473143.275    24473159.221
  20355994.954   -23719907.92249 -18234537.61448  20355994.169    20356001.320
  23024069.043   -13547117.12249 -10240396.49046  23024068.519    23024078.745
 02  3  7  2  1 30.0000000  0 10G26G21G23G29G18G 6G17G22G15G 3
  22643426.878   -15793436.07849 -12295628.66446  22643426.932    22643435.723
  21935659.693   -17017145.20449 -13235417.30847  21935659.099    21935667.848
  22771264.678    -9188836.94949  -7141501.11946  22771264.072    22771273.188
  21747448.114   -18108988.52749 -13819146.43147  21747447.935    21747456.943
  20387625.304   -24275952.02249 -18602531.11248  20387624.801    20387630.464
  23162013.312   -14509541.99149 -11287670.69346  23162013.031    23162024.717
  20585010.701   -23247947.83749 -18093144.91847  20585010.104    20585017.342
  24485091.310    -4321393.49649  -3347510.62245  24485090.314    24485106.129
  20353966.453   -23730567.28049 -18242843.56448  20353965.683    20353972.836
  23009037.888   -13626106.17949 -10301946.24046  23009037.315    23009047.524
 02  3  7  2  2  0.0000000  0 10G26G21G23G29G18G 6G17G22G15G 3
  22657939.271   -15717173.01449 -12236202.88846  22657939.295    22657948.177
  21927325.526   -17060940.67849 -13269543.52347  21927324.969    21927333.686
  22785193.091    -9115642.66649  -7084466.60046  22785192.499    22785201.577
  21731621.582   -18192156.98649 -13883952.83247  21731621.372    21731630.323
  20389010.774   -24268671.20149 -18596857.70348  20389010.262    20389015.899
  23182062.396   -14404183.79249 -11205573.52546  23182062.132    23182073.907
  20586603.564   -23239576.96849 -18086622.10947  20586602.951    20586610.251
  24497076.831    -4258409.94449  -3298432.64545  24497075.797    24497091.669
  20351990.194   -23740952.38849 -18250935.80048  20351989.431    20351996.583
  22994074.351   -13704738.81849 -10363218.24946  22994073.864    22994084.135
 02  3  7  2  2 30.0000000  0 10G26G21G23G29G18G 6G17G22G15G 3
  22672542.196   -15640433.98949 -12176406.23246  22672542.216    22672551.022
  21919040.080   -17104480.62049 -13303470.62347  21919039.505    21919048.177
  22799133.983    -9042382.84749  -7027381.02246  22799133.398    22799142.391
  21715861.498   -18274975.84949 -13948486.81947  21715861.292    21715870.248
  20390464.219   -24261033.08749 -18590905.89248  20390463.726    20390469.322
  23202148.626   -14298629.85649 -11123323.83446  23202148.397    23202160.276
  20588247.710   -23230936.74349 -18079889.42347  20588247.103    20588254.428
  24509100.608    -4195224.79049  -3249197.62045  24509099.793    24509115.563
  20350066.796   -23751059.85349 -18258811.70348  20350066.042    20350073.175
  22979179.581   -13783010.19049 -10424208.74746  22979179.206    22979189.521
 02  3  7  2  3  0.0000000  0 10G26G21G23G29G18G 6G17G22G15G 3
  22687233.974   -15563227.86649 -12116245.60246  22687233.975    22687242.764
  21910802.096   -17147771.41749 -13337203.58447  21910801.498    21910810.140
  22813085.949    -8969065.07349  -6970250.27346  22813085.409    22813094.269
  21700167.245   -18357448.78149 -14012751.24747  21700167.077    21700175.983
  20391984.285   -24253044.96949 -18584681.35148  20391983.773    20391989.373
  23222270.654   -14192888.80049 -11040928.36046  23222270.396    23222282.302
  20589942.078   -23222032.48349 -18072950.99547  20589941.450    20589948.833
  24521161.160    -4131846.98849  -3199812.41545  24521160.174    24521176.114
  20348195.217   -23760895.01249 -18266475.40748  20348194.428    20348201.554
  22964352.918   -13860924.13949 -10484920.70746  22964352.510    22964362.841
 02  3  7  2  3 30.0000000  0 10G26G21G23G29G18G 6G17G22G15G 3
  22702014.965   -15485552.51849 -12055719.33646  22702015.002    22702023.852
  21902612.352   -17190808.27349 -13370738.66647  21902611.768    21902620.374
  22827049.647    -8895685.59549  -6913071.44846  22827049.053    22827057.853
  21684540.260   -18439568.53249 -14076740.47047  21684540.096    21684548.925
  20393571.684   -24244703.03249 -18578181.11148  20393571.165    20393576.785
  23242428.783   -14086958.16649 -10958385.14746  23242428.541    23242440.336
  20591687.800   -23212858.40249 -18065802.32247  20591687.162    20591694.547
  24533258.624    -4068274.66749  -3150275.65845  24533257.769    24533273.529
  20346376.532   -23770451.97449 -18273922.34248  20346375.747    20346382.873
  22949595.716   -13938473.39649 -10545348.49246  22949595.246    22949605.557
 02  3  7  2  4  0.0000000  0 10G26G21G23G29G18G 6G17G22G15G 3
  22716884.832   -15407410.71249 -11994829.61346  22716884.868    22716893.784
  21894470.838   -17233591.60949 -13404076.20447  21894470.284    21894478.857
  22841024.797    -8822245.81949  -6855845.64646  22841024.168    22841032.908
  21668980.960   -18521332.49949 -14140452.47647  21668980.787    21668989.554
  20395226.114   -24236008.67249 -18571406.26448  20395225.619    20395231.211
  23262622.418   -13980840.26949 -10875695.99346  23262622.161    23262634.009
  20593485.086   -23203413.40149 -18058442.54947  20593484.487    20593491.808
  24545392.831    -4004510.56549  -3100589.48045  24545391.889    24545407.282
  20344610.953   -23779729.90749 -18281151.86048  20344610.170    20344617.295
  22934908.249   -14015655.62149 -10605490.28446  22934907.824    22934918.044
 02  3  7  2  4 30.0000000  0 10G26G21G23G29G18G 6G17G22G15G 3
  22731842.767   -15328806.79149 -11933579.79746  22731842.772    22731851.678
  21886377.165   -17276123.45749 -13437217.77247  21886376.607    21886385.158
  22855010.809    -8748748.80449  -6798575.23646  22855010.176    22855018.898
  21653489.507   -18602739.91149 -14203886.63647  21653489.292    21653498.052
  20396947.161   -24226964.53549 -18564358.85148  20396946.658    20396952.224
  23282850.976   -13874539.21349 -10792864.12646  23282850.677    23282862.521
  20595333.823   -23193698.43249 -18050872.40347  20595333.178    20595340.480
  24557562.308    -3940559.17649  -3050757.33745  24557561.185    24557577.107
  20342898.358   -23788729.26449 -18288164.29548  20342897.605    20342904.713
  22920290.788   -14092470.01249 -10665345.44146  22920290.404    22920300.583
 02  3  7  2  5  0.0000000  0 11G26G21G14G23G29G18G 6G17G22G15G 3
  22746887.816   -15249744.42449 -11871972.73746  22746887.867    22746896.724
  21878331.088   -17318405.31249 -13470164.54147  21878330.527    21878339.044
  24665536.264    -2283946.27359  -1765103.30545  24665535.566    24665553.153
  22869007.196    -8675196.83149  -6741262.00546  22869006.566    22869015.315
  21638066.065   -18683789.60649 -14267042.05847  21638065.869    21638074.592
  20398734.264   -24217572.95949 -18557040.69948  20398733.761    20398739.300
  23303113.806   -13768058.38049 -10709892.17546  23303113.450    23303125.194
  20597233.859   -23183713.52849 -18043091.91847  20597233.212    20597240.526
  24569766.566    -3876424.45149  -3000782.36645  24569765.535    24569781.703
  20341238.738   -23797450.59649 -18294960.09248  20341237.964    20341245.086
  22905743.675   -14168915.27249 -10724912.98346  22905743.224    22905753.276
 02  3  7  2  5 30.0000000  0 11G26G21G14G23G29G18G 6G17G22G15G 3
  22762019.083   -15170229.32349 -11810012.88546  22762019.092    22762027.868
  21870331.936   -17360440.62849 -13502919.20347  21870331.355    21870339.857
  24643764.233    -2398357.51549  -1854254.35645  24643763.549    24643780.998
  22883013.285    -8601594.20049  -6683909.30946  22883012.660    22883021.421
  21622710.739   -18764481.72849 -14329918.85447  21622710.549    21622719.223
  20400586.728   -24207838.15249 -18549455.09948  20400586.218    20400591.778
  23323409.680   -13661403.32849 -10626784.46245  23323409.300    23323421.081
  20599184.771   -23173460.69449 -18035102.67347  20599184.162    20599191.483
  24582005.163    -3812112.22349  -2950669.09245  24582004.202    24582020.024
  20339631.720   -23805895.47749 -18301540.44948  20339630.927    20339638.057
  22891266.694   -14244991.54249 -10784192.97846  22891266.197    22891276.121
 02  3  7  2  6  0.0000000  0 11G26G21G14G23G29G18G 6G17G22G15G 3
  22777237.423   -15090256.62749 -11747696.46446  22777237.427    22777246.053
  21862381.076   -17402222.33849 -13535476.25147  21862380.499    21862388.952
  24621995.850    -2512749.46149  -1943390.35745  24621995.038    24622012.540
  22897030.250    -8527934.57649  -6626512.17946  22897029.606    22897038.365
  21607425.279   -18844806.53449 -14392509.43347  21607425.101    21607433.712
  20402505.754   -24197753.67549 -18541597.03448  20402505.220    20402510.748
  23343739.527   -13554568.84949 -10543536.93745  23343739.255    23343751.088
  20601188.449   -23162931.36349 -18026897.96147  20601187.834    20601195.105
  24594278.256    -3747617.70249  -2900413.75645  24594277.396    24594292.833
  20338078.819   -23814055.68949 -18307898.99248  20338078.032    20338085.183
  22876861.556   -14320689.21149 -10843177.96846  22876861.179    22876870.998
 02  3  7  2  6 30.0000000  0 11G26G21G14G23G29G18G 6G17G22G15G 3
  22792542.096   -15009829.95749 -11685026.32146  22792542.062    22792550.741
  21854478.282   -17443751.13649 -13567836.22347  21854477.720    21854486.156
  24600231.416    -2627120.44949  -2032510.04345  24600230.476    24600247.879
  22911057.646    -8454220.07649  -6569072.30146  22911057.005    22911065.773
  21592210.132   -18924762.19249 -14454812.36247  21592209.924    21592218.473
  20404490.897   -24187321.58949 -18533468.10348  20404490.365    20404495.850
  23364103.001   -13447558.11249 -10460152.08945  23364102.708    23364114.727
  20603244.750   -23152125.57449 -18018477.82647  20603244.131    20603251.379
  24606585.080    -3682944.50249  -2850019.20345  24606584.246    24606600.092
  20336580.182   -23821930.89549 -18314035.46448  20336579.399    20336586.491
  22862528.892   -14396006.67649 -10901866.71246  22862528.541    22862538.321
 02  3  7  2  7  0.0000000  0 11G26G21G14G23G29G18G 6G17G22G15G 3
  22807931.881   -14928955.42349 -11622007.18946  22807931.927    22807940.678
  21846622.799   -17485031.24449 -13600002.41247  21846622.248    21846630.682
  24578470.771    -2741471.40249  -2121614.13045  24578469.780    24578487.187
  22925094.519    -8380455.43249  -6511593.36046  22925093.918    22925102.710
  21577064.935   -19004349.99649 -14516828.66147  21577064.719    21577073.189
  20406541.282   -24176546.53449 -18525071.92148  20406540.746    20406546.221
  23384499.026   -13340377.09049 -10376634.56045  23384498.728    23384510.773
  20605353.124   -23141045.65149 -18009844.08247  20605352.501    20605359.763
  24618924.811    -3618098.95549  -2799490.36745  24618923.984    24618940.051
  20335135.324   -23829523.44749 -18319951.68848  20335134.539    20335141.594
  22848268.493   -14470945.10049 -10960260.09846  22848268.103    22848277.834
 02  3  7  2  7 30.0000000  0 11G26G21G14G23G29G18G 6G17G22G15G 3
  22823407.004   -14847632.15849 -11558638.40046  22823407.134    22823415.967
  21838815.400   -17526059.20749 -13631972.12247  21838814.833    21838823.245
  24556715.040    -2855796.03549  -2210697.75545  24556714.231    24556731.289
  22939141.449    -8306638.23849  -6454073.46246  22939140.883    22939149.650
  21561990.976   -19083563.82449 -14578553.54547  21561990.755    21561999.119
  20408657.477   -24165425.85349 -18516406.41248  20408656.931    20408662.419
  23404927.631   -13233024.57449 -10292983.36945  23404927.356    23404939.376
  20607514.583   -23129687.06849 -18000993.20147  20607513.985    20607521.178
  24631297.605    -3553080.09449  -2748826.47145  24631296.758    24631312.914
  20333745.115   -23836828.80049 -18325644.12348  20333744.342    20333751.325
  22834081.395   -14545498.10849 -11018353.15246  22834080.985    22834090.777
 02  3  7  2  8  0.0000000  0 11G26G21G14G23G29G18G 6G17G22G15G 3
  22838966.274   -14765867.88849 -11494925.96846  22838966.332    22838975.136
  21831054.916   -17566840.31849 -13663749.48647  21831054.346    21831062.698
  24534963.922    -2970096.58349  -2299762.61545  24534963.109    24534980.186
  22953197.253    -8232774.53249  -6396517.32446  22953196.653    22953205.431
  21546987.664   -19162406.00249 -14639988.83247  21546987.431    21546995.734
  20410838.237   -24153965.81849 -18507476.47348  20410837.681    20410843.176
  23425387.364   -13125507.73649 -10209204.15445  23425387.202    23425399.302
  20609728.298   -23118053.89449 -17991928.35847  20609727.673    20609734.854
  24643701.925    -3487895.78449  -2698033.65145  24643701.110    24643717.062
  20332408.881   -23843850.74849 -18331115.71148  20332408.097    20332415.061
  22819967.098   -14619668.19649 -11076147.84446  22819966.746    22819976.539
 02  3  7  2  8 30.0000000  0 11G26G21G14G23G29G18G 6G17G22G15G 3
  22854609.767   -14683661.25749 -11430868.86046  22854609.782    22854618.443
  21823342.007   -17607371.19949 -13695331.86247  21823341.445    21823349.752
  24513218.625    -3084366.56249  -2388803.72245  24513218.003    24513234.935
  22967262.459    -8158861.43749  -6338922.69746  22967261.846    22967270.646
  21532056.261   -19240870.26049 -14701129.64547  21532056.038    21532064.329
  20413084.008   -24142163.88249 -18498280.12448  20413083.467    20413088.980
  23445878.850   -13017825.02149 -10125295.68945  23445878.596    23445890.803
  20611995.214   -23106140.96249 -17982645.52547  20611994.583    20612001.794
  24656137.970    -3422544.82749  -2647110.97245  24656137.251    24656153.128
  20331127.415   -23850584.47149 -18336362.70448  20331126.614    20331133.627
  22805926.867   -14693449.15349 -11133639.33046  22805926.566    22805936.332
 02  3  7  2  9  0.0000000  0 11G26G21G14G23G29G18G 6G17G22G15G 3
  22870336.196   -14601018.00749 -11366471.49546  22870336.195    22870344.928
  21815676.175   -17647654.83949 -13726721.58647  21815675.632    21815683.913
  24491479.130    -3198606.41349  -2477821.38245  24491478.573    24491495.445
  22981336.235    -8084903.11049  -6281292.82446  22981335.633    22981344.486
  21517196.657   -19318957.12349 -14761976.38047  21517196.455    21517204.711
  20415394.161   -24130023.96949 -18488820.40948  20415393.607    20415399.093
  23466400.958   -12909981.86649 -10041262.20945  23466400.679    23466412.855
  20614314.926   -23093950.48449 -17973146.41847  20614314.317    20614321.530
  24668604.437    -3357032.96149  -2596062.89845  24668603.621    24668619.962
  20329900.415   -23857032.04349 -18341386.73748  20329899.643    20329906.659
  22791960.738   -14766841.42849 -11190827.93746  22791960.424    22791970.090
 02  3  7  2  9 30.0000000  0 11G26G21G14G23G29G18G 6G17G22G15G 3
  22886145.585   -14517939.08849 -11301734.65946  22886145.611    22886154.379
  21808057.643   -17687690.32649 -13757917.95147  21808057.096    21808065.345
  24469746.186    -3312811.37849  -2566811.90645  24469745.648    24469762.512
  22995418.752    -8010898.86949  -6223627.17846  22995418.183    22995426.988
  21502409.734   -19396662.31049 -14822525.71047  21502409.522    21502417.757
  20417768.726   -24117545.29749 -18479096.72048  20417768.183    20417773.634
  23486953.412   -12801978.64149  -9957104.00345  23486953.100    23486965.192
  20616688.092   -23081479.48549 -17963428.72747  20616687.434    20616694.658
  24681101.454    -3291361.12449  -2544890.17045  24681100.690    24681117.005
  20328728.463   -23863190.41349 -18346185.41548  20328727.695    20328734.672
  22778069.399   -14839840.75249 -11247710.35646  22778069.052    22778078.664
 02  3  7  2 10  0.0000000  0 11G26G21G14G23G29G18G 6G17G22G15G 3
  22902037.136   -14434428.63049 -11236661.55046  22902037.169    22902045.920
  21800486.007   -17727479.23349 -13788922.17447  21800485.438    21800493.637
  24448020.154    -3426980.38749  -2655774.43345  24448019.709    24448036.364
  23009509.516    -7936851.45949  -6165927.87746  23009508.938    23009517.761
  21487695.552   -19473984.98549 -14882776.98447  21487695.348    21487703.580
  20420207.260   -24104730.66149 -18469111.25148  20420206.715    20420212.149
  23507535.486   -12693819.24349  -9872824.10245  23507535.192    23507547.375
  20619114.496   -23068728.41049 -17953492.79747  20619113.845    20619121.033
  24693628.240    -3225533.53349  -2493596.08345  24693627.527    24693643.615
  20327611.527   -23869060.03349 -18350759.08148  20327610.728    20327617.671
  22764252.904   -14912446.12749 -11304285.81446  22764252.516    22764262.224
 02  3  7  2 10 30.0000000  0 11G26G21G14G23G29G18G 6G17G22G15G 3
  22918010.331   -14350489.43449 -11171254.36946  22918010.301    22918018.888
  21792961.079   -17767022.09049 -13819734.66847  21792960.548    21792968.736
  24426301.602    -3541110.86849  -2744706.94645  24426301.014    24426317.490
  23023608.295    -7862762.20949  -6108195.97546  23023607.738    23023616.560
  21473054.611   -19550922.90649 -14942728.44447  21473054.384    21473062.592
  20422709.429   -24091581.32149 -18458864.96848  20422708.893    20422714.319
  23528146.896   -12585506.24149  -9788424.50845  23528146.633    23528158.750
  20621594.344   -23055696.48249 -17943338.01647  20621593.718    20621600.893
  24706184.092    -3159553.21349  -2442182.95845  24706183.375    24706199.481
  20326549.647   -23874639.98149 -18355107.02648  20326548.853    20326555.828
  22750511.718   -14984655.48849 -11360552.67746  22750511.299    22750521.025
 02  3  7  2 11  0.0000000  0 11G26G21G14G23G29G18G 6G17G22G15G 3
  22934064.556   -14266124.30449 -11105515.28946  22934064.468    22934072.994
  21785483.027   -17806319.03149 -13850355.54947  21785482.494    21785490.664
  24404591.073    -3655200.14849  -2833607.35845  24404590.374    24404606.569
  23037714.859    -7788632.02349  -6050432.17346  23037714.242    23037723.072
  21458487.410   -19627473.45649 -15002378.06547  21458487.159    21458495.344
  20425275.064   -24078098.31049 -18448358.68448  20425274.537    20425279.980
  23548787.256   -12477041.79149  -9703906.91145  23548786.953    23548799.011
  20624127.848   -23042382.61749 -17932963.53747  20624127.224    20624134.412
  24718768.450    -3093422.79049  -2390652.88445  24718767.643    24718784.019
  20325543.076   -23879929.17149 -18359228.41548  20325542.280    20325549.261
  22736846.447   -15056465.98249 -11416508.74946  22736846.030    22736855.728
 02  3  7  2 11 30.0000000  0 11G26G21G14G23G29G18G 6G17G22G15G 3
  22950199.063   -14181336.23049 -11039446.66146  22950199.048    22950207.580
  21778051.764   -17845370.37649 -13880785.05547  21778051.209    21778059.343
  24382888.763    -3769245.83849  -2922473.78645  24382888.108    24382903.940
  23051828.860    -7714462.39849  -5992637.63846  23051828.242    23051837.054
  21443994.290   -19703634.64649 -15061724.28247  21443994.072    21444002.230
  20427904.002   -24064283.06349 -18437593.51748  20427903.477    20427908.931
  23569455.706   -12368428.69949  -9619273.49645  23569455.455    23569467.596
  20626715.157   -23028786.08749 -17922368.79247  20626714.523    20626721.742
  24731380.610    -3027145.18449  -2339008.15045  24731379.872    24731396.424
  20324591.980   -23884926.79449 -18363122.61648  20324591.208    20324598.189
  22723257.531   -15127875.56549 -11472152.43846  22723257.166    22723266.701
 02  3  7  2 12  0.0000000  0 11G26G21G14G23G29G18G 6G17G22G15G 3
  22966413.815   -14096126.37249 -10973049.35946  22966413.843    22966422.568
  21770667.305   -17884175.56949 -13911022.76147  21770666.741    21770674.839
  24361195.474    -3883243.44949  -3011302.75645  24361194.617    24361210.437
  23065950.472    -7640252.90549  -5934812.04546  23065949.875    23065958.674
  21429576.010   -19779402.45249 -15120763.97147  21429575.774    21429583.938
  20430596.227   -24050135.17949 -18426569.14748  20430595.713    20430601.139
  23590152.201   -12259667.80949  -9534524.89445  23590152.007    23590164.260
  20629356.692   -23014904.41549 -17911551.87647  20629356.054    20629363.263
  24744020.525    -2960721.81749  -2287249.82145  24744019.941    24744036.352
  20323696.919   -23889630.42049 -18366787.73048  20323696.138    20323703.069
  22709745.660   -15198880.55049 -11527480.85646  22709745.281    22709754.667
 02  3  7  2 12 30.0000000  0 11G26G21G14G23G29G18G 6G17G22G15G 3
  22982708.242   -14010498.94449 -10906326.68446  22982708.222    22982716.928
  21763329.360   -17922736.08749 -13941069.80847  21763328.811    21763336.911
  24339511.362    -3997191.82649  -3100093.33845  24339510.688    24339526.278
  23080079.188    -7566005.88449  -5876957.22746  23080078.584    23080087.366
  21415232.800   -19854775.83349 -15179496.32147  21415232.553    21415240.661
  20433351.265   -24035657.29149 -18415287.63548  20433350.736    20433356.147
  23610876.279   -12150762.76849  -9449663.96445  23610876.070    23610888.275
  20632052.488   -23000737.80349 -17900512.92647  20632051.878    20632059.014
  24756687.905    -2894156.75249  -2235381.08845  24756687.162    24756703.453
  20322857.773   -23894040.23449 -18370223.88948  20322856.969    20322863.814
  22696310.941   -15269479.82449 -11582493.14846  22696310.521    22696319.832
 02  3  7  2 13  0.0000000  0 11G26G21G14G23G29G18G 6G17G22G15G 3
  22999081.473   -13924457.37949 -10839281.29246  22999081.408    22999090.055
  21756037.784   -17961052.91149 -13970926.97447  21756037.259    21756045.350
  24317837.013    -4111088.90849  -3188843.93845  24317836.553    24317852.020
  23094214.746    -7491722.91949  -5819074.38846  23094214.118    23094222.909
  21400964.922   -19929753.24449 -15237920.12247  21400964.711    21400972.739
  20436168.706   -24020851.12649 -18403750.32348  20436168.185    20436173.588
  23631627.274   -12041716.65949  -9364693.12545  23631627.014    23631639.113
  20634802.567   -22986286.06549 -17889251.78647  20634801.924    20634809.068
  24769381.265    -2827453.43549  -2183404.63145  24769380.326    24769396.780
  20322074.510   -23898155.68149 -18373430.67948  20322073.721    20322080.554
  22682953.869   -15339671.35149 -11637187.70546  22682953.478    22682962.599
 02  3  7  2 13 30.0000000  0 11G26G21G14G23G29G18G 6G17G22G15G 3
  23015533.000   -13838003.44849 -10771914.58446  23015532.978    23015541.661
  21748792.803   -17999125.53149 -14000593.85547  21748792.244    21748800.254
  24296173.154    -4224931.25949  -3277551.84345  24296172.910    24296187.991
  23108357.052    -7417404.36149  -5761163.81746  23108356.408    23108365.223
  21386773.033   -20004331.51649 -15296032.90347  21386772.826    21386780.773
  20439048.591   -24005717.09249 -18391957.52748  20439048.081    20439053.486
  23652404.698   -11932530.90249  -9279613.46145  23652404.541    23652416.600
  20637607.224   -22971547.28749 -17877766.98647  20637606.592    20637613.749
  24782100.149    -2760613.60849  -2131321.84145  24782099.309    24782116.199
  20321347.688   -23901974.92649 -18376406.67848  20321346.934    20321353.745
  22669674.998   -15409452.08449 -11691562.17346  22669674.651    22669683.667
 02  3  7  2 14  0.0000000  0 11G26G21G14G23G29G18G 6G17G22G15G 3
  23032062.489   -13751140.17249 -10704228.92546  23032062.474    23032071.257
  21741594.224   -18036954.25349 -14030070.68547  21741593.638    21741601.598
  24274520.388    -4338716.25049  -3366215.01245  24274520.000    24274535.028
  23122505.900    -7343051.56549  -5703226.58146  23122505.303    23122514.031
  21372657.629   -20078508.22249 -15353832.77747  21372657.397    21372665.292
  20441990.559   -23990256.60349 -18379910.35348  20441990.045    20441995.456
  23673208.097   -11823207.94649  -9194426.86845  23673207.990    23673220.304
  20640466.630   -22956520.60549 -17866057.84747  20640466.013    20640473.175
  24794844.878    -2693640.40149  -2079135.10945  24794844.175    24794860.837
  20320677.415   -23905497.16349 -18379151.23448  20320676.648    20320683.463
  22656474.681   -15478819.91549 -11745614.89746  22656474.280    22656483.259
 02  3  7  2 14 30.0000000  0 10G26G21G14G23G29G18G 6G17G15G 3
  23048670.172   -13663866.73249 -10636223.63646  23048670.138    23048678.967
  21734442.578   -18074535.88149 -14059354.97747  21734442.009    21734449.951
  24252879.823    -4452437.46849  -3454828.44145  24252879.332    24252894.223
  23136661.792    -7268661.62849  -5645260.39346  23136661.173    23136669.908
  21358619.651   -20152277.63849 -15411315.27847  21358619.426    21358627.294
  20444995.181   -23974467.16549 -18367606.84848  20444994.675    20445000.068
  23694037.943   -11713746.46149  -9109132.32745  23694037.799    23694050.301
  20643381.797   -22941201.27449 -17854120.66847  20643381.175    20643388.322
  20320064.555   -23908717.78749 -18381660.75648  20320063.753    20320070.589
  22643354.080   -15547768.70849 -11799341.09946  22643353.633    22643362.710
 02  3  7  2 15  0.0000000  0 10G26G21G14G23G29G18G 6G17G15G 3
  23065354.471   -13576190.30949 -10567904.32146  23065354.458    23065363.317
  21727336.962   -18111875.80749 -14088450.92847  21727336.378    21727344.288
  24231250.861    -4566096.83049  -3543393.63745  24231250.256    24231265.364
  23150823.683    -7194240.12549  -5587269.61346  23150823.069    23150831.867
  21344658.810   -20225641.74649 -15468481.96047  21344658.591    21344666.417
  20448061.317   -23958354.28949 -18355051.32748  20448060.822    20448066.210
  23714893.029   -11604153.44649  -9023735.31045  23714892.801    23714905.195
  20646351.960   -22925592.89349 -17841958.25747  20646351.348    20646358.475
  20319508.408   -23911640.11949 -18383937.84548  20319507.618    20319514.453
  22630312.766   -15616300.46249 -11852742.34746  22630312.421    22630321.416
 02  3  7  2 15 30.0000000  0 10G26G21G14G23G29G18G 6G17G15G 3
  23082114.507   -13488115.55149 -10499274.64146  23082114.564    23082123.238
  21720276.981   -18148975.71549 -14117359.86047  21720276.416    21720284.291
  24209633.609    -4679693.31249  -3631909.84345  24209633.050    24209648.208
  23164991.029    -7119789.97549  -5529256.51346  23164990.431    23164999.282
  21330775.174   -20298600.18049 -15525332.54347  21330774.952    21330782.743
  20451188.435   -23941921.18049 -18342246.26948  20451187.927    20451193.295
  23735772.347   -11494433.04149  -8938239.02645  23735772.016    23735784.404
  20649376.956   -22909696.27249 -17829571.24347  20649376.344    20649383.462
  20319008.861   -23914264.81449 -18385983.00848  20319008.064    20319014.935
  22617350.883   -15684414.84149 -11905818.36346  22617350.525    22617359.550
 02  3  7  2 16  0.0000000  0 10G26G21G14G23G29G18G 6G17G15G 3
  23098949.859   -13399644.71549 -10430336.32446  23098949.940    23098958.572
  21713262.638   -18185835.68249 -14146081.82347  21713262.082    21713269.937
  24188028.794    -4793223.86349  -3720374.66545  24188028.487    24188043.670
  23179163.695    -7045311.69249  -5471221.47446  23179163.139    23179172.043
  21316969.240   -20371150.14349 -15581864.82647  21316969.010    21316976.772
  20454376.388   -23925168.12749 -18329191.89948  20454375.880    20454381.230
  23756675.358   -11384587.15749  -8852644.96645  23756675.006    23756687.443
  20652457.067   -22893509.76149 -17816958.34347  20652456.472    20652463.617
  20318566.295   -23916590.34349 -18387795.06648  20318565.500    20318572.367
  22604469.031   -15752108.86149 -11958566.82546  22604468.602    22604477.666
 02  3  7  2 16 30.0000000  0 10G26G21G14G23G29G18G 6G17G15G 3
  23115860.388   -13310779.09249 -10361090.39246  23115860.453    23115869.152
  21706294.204   -18222454.94649 -14174616.23947  21706293.626    21706301.437
  24166437.589    -4906684.04349  -3808784.65445  24166437.374    24166452.486
  23193341.801    -6970804.69149  -5413164.04946  23193341.244    23193350.262
  21303241.837   -20443287.60249 -15638075.68647  21303241.603    21303249.326
  20457625.310   -23908094.75949 -18315887.94148  20457624.801    20457630.126
  23777602.088   -11274616.39649  -8766953.62345  23777601.788    23777614.312
  20655592.802   -22877030.88649 -17804117.62947  20655592.231    20655599.368
  20318181.129   -23918614.15849 -18389372.01948  20318180.336    20318187.192
  22591667.869   -15819378.69949 -12010984.76846  22591667.474    22591676.528
 02  3  7  2 17  0.0000000  0 10G26G21G14G23G29G18G 6G17G15G 3
  23132845.000   -13221524.20249 -10291541.11545  23132845.025    23132853.918
  21699371.134   -18258835.65249 -14202964.75247  21699370.548    21699378.339
  24144860.067    -5020073.84449  -3897139.78945  24144859.762    24144874.703
  23207524.685    -6896272.72349  -5355087.18346  23207524.145    23207533.236
  21289592.730   -20515013.33449 -15693965.72047  21289592.522    21289600.184
  20460934.374   -23890705.19249 -18302337.58948  20460933.890    20460939.177
  23798551.709   -11164526.02149  -8681169.08145  23798551.426    23798564.078
  20658783.957   -22860261.42749 -17791050.48047  20658783.352    20658790.449
  20317853.082   -23920337.95449 -18390715.20448  20317852.314    20317859.132
  22578947.385   -15886224.82649 -12063072.54046  22578946.991    22578956.016
 02  3  7  2 17 30.0000000  0 10G26G21G14G23G29G18G 6G17G15G 3
  23149903.660   -13131879.91749 -10221688.41145  23149903.735    23149912.674
  21692493.867   -18294975.61249 -14231125.68447  21692493.300    21692501.073
  24123297.069    -5133387.98649  -3985435.97945  24123296.480    24123311.222
  23221712.821    -6821713.93849  -5296989.42546  23221712.283    23221721.335
  21276023.030   -20586322.11949 -15749530.86947  21276022.806    21276030.425
  20464303.981   -23872997.90549 -18288539.67148  20464303.478    20464308.756
  23819524.214   -11054315.81949  -8595291.16945  23819523.916    23819536.708
  20662031.109   -22843197.58449 -17777753.94547  20662030.484    20662037.551
  20317582.888   -23921757.91749 -18391821.63948  20317582.091    20317588.846
  22566308.530   -15952642.19149 -12114826.21946  22566308.130    22566317.043
 02  3  7  2 18  0.0000000  0 10G26G21G14G23G29G18G 6G17G15G 3
  23167035.548   -13041850.98749 -10151536.00745  23167035.685    23167044.438
  21685661.920   -18330877.44349 -14259101.05347  21685661.349    21685669.121
  24101748.377    -5246625.46549  -4073672.43545  24101747.609    24101762.264
  23235905.540    -6747131.10549  -5238872.92846  23235904.977    23235914.008
  21262532.707   -20657213.64549 -15804770.87447  21262532.505    21262540.105
  20467733.444   -23854975.73749 -18274496.38448  20467732.943    20467738.222
  23840518.692   -10943989.79949  -8509323.00745  23840518.382    23840531.192
  20665334.086   -22825840.10349 -17764228.59247  20665333.477    20665340.557
  20317370.321   -23922874.73149 -18392691.84748  20317369.538    20317376.240
  22553751.364   -16018630.08649 -12166245.23946  22553750.953    22553759.848
 02  3  7  2 18 30.0000000  0 10G26G21G14G23G29G18G 6G17G15G 3
  23184240.192   -12951440.43449 -10081086.23545  23184240.284    23184248.913
  21678875.144   -18366541.61749 -14286891.24347  21678874.568    21678882.315
  24080214.337    -5359783.95149  -4161847.34745  24080213.736    24080228.382
  23250102.664    -6672525.35849  -5180738.57246  23250102.089    23250111.095
  21249122.164   -20727685.90849 -15859684.18647  21249121.959    21249129.527
  20471222.570   -23836640.11849 -18260208.85148  20471222.088    20471227.360
  23861534.561   -10833550.56349  -8423266.64645  23861534.204    23861547.267
  20668693.053   -22808188.35849 -17750473.94647  20668692.442    20668699.532
  20317215.617   -23923687.56849 -18393325.18848  20317214.835    20317221.497
  22541276.278   -16084186.61749 -12217328.14846  22541275.949    22541284.743
 02  3  7  2 19  0.0000000  0 10G26G21G14G23G29G18G 6G17G15G 3
  23201517.151   -12860649.29549 -10010339.87945  23201517.234    23201525.886
  21672133.872   -18401966.86249 -14314495.25047  21672133.294    21672140.976
  24058696.272    -5472858.71249  -4249957.04245  24058695.902    24058710.657
  23264304.349    -6597895.73849  -5122585.62646  23264303.767    23264312.680
  21235792.213   -20797734.77549 -15914267.58447  21235792.017    21235799.502
  20474771.450   -23817990.43149 -18245676.59048  20474770.951    20474776.233
  23882571.974   -10722998.51949  -8337122.39445  23882571.669    23882584.763
  20672108.646   -22790239.25949 -17736487.59447  20672108.028    20672115.082
  20317119.324   -23924193.62249 -18393719.45948  20317118.522    20317125.185
  22528884.177   -16149307.57749 -12268071.63646  22528883.749    22528892.522
 02  3  7  2 19 30.0000000  0 10G26G21G14G23G29G18G 6G17G15G 3
  23218865.656   -12769482.28349  -9939300.64746  23218865.703    23218874.447
  21665437.666   -18437155.47349 -14341914.86647  21665437.070    21665444.752
  24037194.644    -5585849.17949  -4338001.05245  24037194.208    24037208.850
  23278509.914    -6523245.40449  -5064416.53646  23278509.253    23278518.182
  21222542.857   -20867360.13049 -15968520.97547  21222542.650    21222550.114
  20478379.461   -23799029.86449 -18230902.08748  20478378.963    20478384.282
  23903630.132   -10612338.08649  -8250893.66545  23903629.891    23903642.937
  20675580.536   -22771994.22849 -17722270.65647  20675579.924    20675586.964
  20317081.155   -23924393.90849 -18393875.47648  20317080.358    20317087.048
  22516574.916   -16213992.57149 -12318475.41546  22516574.450    22516583.199
 02  3  7  2 20  0.0000000  0 11G26G21G14G23G29G 9G18G 6G17G15G 3
  23236285.674   -12677940.17849  -9867969.12946  23236285.674    23236294.332
  21658786.769   -18472105.60449 -14369148.65747  21658786.214    21658793.909
  24015710.229    -5698750.26949  -4425975.43645  24015709.501    24015724.000
  23292719.602    -6448573.01949  -5006230.25946  23292718.927    23292727.854
  21209374.971   -20936557.45949 -16022440.83547  21209374.756    21209382.193
  24458620.212    -6144065.52159  -4351877.33245  24458619.861    24458631.270
  20482046.827   -23779757.45849 -18215884.58948  20482046.325    20482051.657
  23924708.968   -10501569.30449  -8164580.50945  23924708.788    23924721.621
  20679109.379   -22753449.75449 -17707820.38547  20679108.781    20679115.824
  20317101.785   -23924285.02349 -18393790.59048  20317101.014    20317107.715
  22504349.364   -16278236.94049 -12368535.82846  22504349.033    22504357.810
 02  3  7  2 20 30.0000000  0 11G26G21G14G23G29G 9G18G 6G17G15G 3
  23253776.199   -12586027.41649  -9796348.80046  23253776.156    23253784.803
  21652180.884   -18506819.72149 -14396198.53947  21652180.308    21652187.979
  23994242.815    -5811560.98349  -4513879.43345  23994242.062    23994256.290
  23306932.903    -6373881.26049  -4948028.87846  23306932.257    23306941.293
  21196288.547   -21005326.52249 -16076026.98247  21196288.325    21196295.759
  24445240.791    -6214371.96349  -4406661.44045  24445240.583    24445252.313
  20485773.034   -23760175.92949 -18200626.21848  20485772.535    20485777.847
  23945807.656   -10390696.30349  -8078186.14045  23945807.372    23945820.276
  20682695.117   -22734606.65049 -17693137.41347  20682694.508    20682701.576
  20317181.181   -23923867.62749 -18393465.29448  20317180.399    20317187.118
  22492207.937   -16342040.45749 -12418252.72746  22492207.579    22492216.372
 02  3  7  2 21  0.0000000  0 11G26G21G14G23G29G 9G18G 6G17G15G 3
  23271336.714   -12493745.96849  -9724441.17945  23271336.698    23271345.294
  21645620.030   -18541296.82249 -14423063.73747  21645619.450    21645627.122
  23972793.037    -5924277.79549  -4601710.28945  23972792.432    23972806.450
  23321149.866    -6299170.12949  -4889812.40146  23321149.254    23321158.353
  21183284.216   -21073664.02349 -16129276.85447  21183284.008    21183291.394
  24431896.672    -6284495.20749  -4461302.74145  24431896.470    24431908.017
  20489558.028   -23740285.71049 -18185127.31548  20489557.514    20489562.785
  23966925.776   -10279720.58649  -7991711.73945  23966925.532    23966938.500
  20686338.011   -22715463.00749 -17678220.24847  20686337.397    20686344.445
  20317319.726   -23923139.54749 -18392897.90448  20317318.933    20317325.620
  22480150.994   -16405400.07249 -12467623.72646  22480150.556    22480159.403
 02  3  7  2 21 30.0000000  0 11G26G21G14G23G29G 9G18G 6G17G15G 3
  23288966.667   -12401100.04649  -9652249.56845  23288966.653    23288975.186
  21639103.875   -18575539.02949 -14449745.90547  21639103.321    21639110.946
  23951361.465    -6036899.08949  -4689466.73145  23951360.989    23951374.780
  23335370.204    -6224441.55849  -4831582.32646  23335369.609    23335378.682
  21170362.179   -21141569.37149 -16182189.98447  21170361.974    21170369.315
  24418587.837    -6354433.19549  -4515799.70745  24418587.764    24418599.185
  20493401.275   -23720089.39649 -18169389.89548  20493400.744    20493405.959
  23988062.762   -10168645.63049  -7905160.00845  23988062.470    23988075.533
  20690038.027   -22696019.15149 -17663069.15347  20690037.405    20690044.430
  20317517.267   -23922101.14649 -18392088.71148  20317516.476    20317523.181
  22468178.612   -16468314.62949 -12516647.93646  22468178.214    22468187.017
 02  3  7  2 22  0.0000000  0 11G26G21G14G23G29G 9G18G 6G17G15G 3
  23306665.338   -12308093.40949  -9579776.85145  23306665.301    23306673.806
  21632632.289   -18609547.43849 -14476245.88347  21632631.711    21632639.262
  23929948.520    -6149423.35649  -4777147.58245  23929948.052    23929961.614
  23349593.496    -6149697.68949  -4773340.34046  23349592.863    23349601.887
  21157522.554   -21209041.44149 -16234765.49147  21157522.352    21157529.648
  24405314.767    -6424183.55049  -4570150.47845  24405314.672    24405326.182
  20497302.370   -23699589.09349 -18153415.60148  20497301.823    20497307.004
  24009217.902   -10057475.02549  -7818533.76645  24009217.644    24009230.694
  20693795.125   -22676275.14449 -17647684.16747  20693794.534    20693801.527
  20317773.854   -23920752.53949 -18391037.80348  20317773.078    20317779.779
  22456291.296   -16530782.89449 -12565324.38446  22456290.943    22456299.551
 02  3  7  2 22 30.0000000  0 11G26G21G14G23G29G 9G18G 6G17G15G 3
  23324432.135   -12214728.30949  -9507024.82245  23324432.132    23324440.671
  21626205.091   -18643322.12149 -14502563.73447  21626204.490    21626212.085
  23908554.795    -6261847.30649  -4864750.27045  23908554.213    23908567.577
  23363819.652    -6074938.91149  -4715086.74846  23363818.974    23363827.933
  21144765.927   -21276077.45049 -16287001.21447  21144765.733    21144772.983
  24392078.193    -6493742.21349  -4624351.87745  24392077.926    24392089.422
  20501261.165   -23678785.37449 -18137204.87748  20501260.613    20501265.776
  24030391.063    -9946210.40549  -7731834.26145  24030390.816    24030403.677
  20697609.675   -22656229.45449 -17632064.11147  20697609.074    20697616.049
  20318089.795   -23919092.02849 -18389743.85948  20318089.030    20318095.683
  22444489.391   -16592802.11349 -12613650.91446  22444488.934    22444497.543
 02  3  7  2 23  0.0000000  0 11G26G21G14G23G29G 9G18G 6G17G15G 3
  23342266.655   -12121006.60449  -9433994.93745  23342266.645    23342275.271
  21619822.475   -18676862.37549 -14528698.91847  21619821.909    21619829.498
  23887180.724    -6374166.98449  -4952271.71645  23887180.031    23887193.420
  23378048.671    -6000164.86649  -4656821.24646  23378048.014    23378056.904
  21132092.877   -21342674.22849 -16338894.67747  21132092.687    21132099.906
  24378878.743    -6563104.79649  -4678400.46845  24378878.474    24378889.950
  20505277.623   -23657678.37649 -18120757.83148  20505277.072    20505282.286
  24051581.920    -9834852.95249  -7645062.43145  24051581.576    24051594.408
  20701482.002   -22635879.97449 -17616207.33647  20701481.403    20701488.395
  20318465.537   -23917117.41849 -18388205.16048  20318464.740    20318471.397
  22432773.357   -16654369.17349 -12661625.11546  22432772.945    22432781.616
 02  3  7  2 23 30.0000000  0 11G26G21G14G23G29G 9G18G 6G17G15G 3
  23360168.456   -12026931.84449  -9360689.93345  23360168.462    23360177.019
  21613484.311   -18710169.60249 -14554652.52047  21613483.707    21613491.290
  23865826.600    -6486380.47949  -5039710.44145  23865825.924    23865839.487
  23392280.288    -5925377.29349  -4598545.19946  23392279.651    23392288.461
  21119503.687   -21408830.32249 -16390444.75447  21119503.502    21119510.669
  24365717.219    -6632268.66949  -4732294.24745  24365717.035    24365728.322
  20509351.457   -23636269.94249 -18104075.89848  20509350.922    20509356.167
  24072789.708    -9723405.90549  -7558220.77745  24072789.334    24072802.252
  20705412.169   -22615226.59249 -17600113.75247  20705411.572    20705418.540
  20318901.063   -23914828.34249 -18386421.42348  20318900.288    20318906.928
  22421143.622   -16715482.43849 -12709245.70746  22421143.286    22421151.979
 02  3  7  2 24  0.0000000  0 11G26G21G14G23G29G 9G18G 6G17G15G 3
  23378136.751   -11932507.98749  -9287112.89745  23378136.803    23378145.234
  21607190.241   -18743244.92049 -14580425.42047  21607189.664    21607197.191
  23844493.257    -6598486.08849  -5127065.09945  23844492.532    23844506.082
  23406514.126    -5850577.99649  -4540260.02346  23406513.448    23406522.225
  21106998.558   -21474544.89849 -16441650.78647  21106998.369    21107005.484
  24352594.045    -6701231.43849  -4786031.31645  24352593.840    24352605.038
  20513482.206   -23614562.48449 -18087160.95648  20513481.682    20513486.956
  24094013.888    -9611872.65549  -7471311.95445  24094013.621    24094026.628
  20709400.166   -22594269.26449 -17583783.32047  20709399.571    20709406.527
  20319396.389   -23912225.05149 -18384392.84948  20319395.635    20319402.250
  22409600.640   -16776140.99049 -12756511.97346  22409600.266    22409608.855
 02  3  7  2 24 30.0000000  0 11G26G21G14G23G29G 9G18G 6G17G15G 3
  23396171.234   -11837736.62949  -9213265.09745  23396171.228    23396179.730
  21600940.452   -18776087.44649 -14606016.92247  21600939.871    21600947.391
  23823181.489    -6710479.91249  -5214332.67345  23823180.645    23823193.906
  23420750.188    -5775766.63649  -4481965.45046  23420749.513    23420758.315
  21094578.005   -21539814.87649 -16492510.37647  21094577.808    21094584.910
  24339509.974    -6769988.69849  -4839608.25845  24339509.748    24339520.871
  20517669.905   -23592555.89549 -18070012.93648  20517669.393    20517674.625
  24115254.263    -9500254.38649  -7384336.87645  24115254.057    24115267.114
  20713446.381   -22573006.09649 -17567214.58147  20713445.770    20713452.748
  20319952.034   -23909305.24949 -18382117.64448  20319951.260    20319957.830
  22398144.851   -16836341.34249 -12803421.21346  22398144.427    22398152.972
 02  3  7  2 25  0.0000000  0 11G26G21G14G23G29G 9G18G 6G17G15G 3
  23414270.783   -11742622.92349  -9139150.51845  23414270.767    23414279.370
  21594734.358   -18808700.24649 -14631429.41147  21594733.767    21594741.324
  23801891.007    -6822361.50549  -5301512.80245  23801890.075    23801903.151
  23434988.022    -5700946.16849  -4423663.79546  23434987.396    23434996.145
  21082242.058   -21604640.16449 -16543023.45447  21082241.868    21082248.963
  24326465.060    -6838539.36149  -4893024.19445  24326464.839    24326476.036
  20521913.899   -23570253.62049 -18052634.50548  20521913.365    20521918.563
  24136509.949    -9388555.66149  -7297299.10845  24136509.632    24136522.909
  20717550.562   -22551438.08149 -17550408.29847  20717549.969    20717557.003
  20320567.679   -23906069.93949 -18379596.57448  20320566.894    20320573.456
  22386776.090   -16896083.56149 -12849973.46446  22386775.738    22386784.348
 02  3  7  2 25 30.0000000  0 11G26G21G14G23G29G 9G18G 6G17G15G 3
  23432435.339   -11647167.03349  -9064769.29545  23432435.343    23432444.070
  21588572.380   -18841080.96149 -14656661.05747  21588571.843    21588579.367
  23780622.702    -6934125.39049  -5388601.21345  23780621.798    23780634.819
  23449228.019    -5626114.90949  -4365353.71446  23449227.387    23449236.101
  21069991.602   -21669016.11149 -16593186.39947  21069991.409    21069998.449
  24313460.604    -6906877.45049  -4946274.51245  24313460.352    24313471.513
  20526214.401   -23547654.24749 -18035024.57548  20526213.868    20526219.042
  24157781.028    -9276776.37949  -7210198.59645  24157780.646    24157794.025
  20721713.473   -22529561.69649 -17533361.72247  20721712.877    20721719.887
  20321244.035   -23902515.50049 -18376826.83348  20321243.246    20321249.780
  22375495.569   -16955362.86949 -12896165.01346  22375495.197    22375503.875
 02  3  7  2 26  0.0000000  0 11G26G21G14G23G29G 9G18G 6G17G15G 3
  23450664.181   -11551373.58849  -8990125.05445  23450664.213    23450672.917
  21582454.272   -18873231.75049 -14681713.53247  21582453.738    21582461.205
  23759376.913    -7045770.40149  -5475596.98045  23759376.176    23759389.096
  23463469.474    -5551275.41449  -4307037.21146  23463468.799    23463477.566
  21057826.722   -21732942.65449 -16642999.16447  21057826.510    21057833.498
  24300497.074    -6975001.43749  -4999357.99345  24300496.706    24300507.675
  20530570.867   -23524760.74549 -18017185.44448  20530570.342    20530575.512
  24179066.666    -9164920.55249  -7123038.44545  24179066.410    24179079.544
  20725934.889   -22507377.83449 -17516075.55447  20725934.284    20725941.279
  20321980.959   -23898642.77449 -18373809.08048  20321980.186    20321986.680
  22364303.147   -17014179.05949 -12941995.68646  22364302.746    22364311.402
 02  3  7  2 26 30.0000000  0 11G26G21G14G23G29G 9G18G 6G17G15G 3
  23468956.780   -11455245.00849  -8915219.66945  23468956.799    23468965.352
  21576379.886   -18905152.72049 -14706586.92847  21576379.324    21576386.777
  23738154.500    -7157293.50549  -5562497.73945  23738153.839    23738166.612
  23477712.416    -5476428.01249  -4248714.54546  23477711.808    23477720.549
  21045747.794   -21796417.30249 -16692459.80047  21045747.572    21045754.557
  24287574.858    -7042907.63249  -5052271.77545  24287574.462    24287585.380
  20534983.180   -23501573.81649 -17999117.67148  20534982.657    20534987.815
  24200366.503    -9052989.93849  -7035819.98345  24200366.164    24200379.141
  20730215.105   -22484884.98949 -17498548.62347  20730214.491    20730221.481
  20322778.773   -23894450.18449 -18370542.08148  20322777.994    20322784.456
  22353199.313   -17072529.30349 -12987463.29446  22353198.933    22353207.470
 02  3  7  2 27  0.0000000  0 11G26G21G14G23G29G 9G18G 6G17G15G 3
  23487312.510   -11358785.18949  -8840056.16645  23487312.472    23487321.033
  21570348.834   -18936845.78449 -14731282.73947  21570348.289    21570355.708
  23716955.708    -7268692.98449  -5649302.12745  23716954.934    23716967.632
  23491956.550    -5401574.63749  -4190387.22346  23491955.968    23491964.665
  21033755.077   -21859439.11449 -16741567.57847  21033754.855    21033761.800
  24274694.548    -7110593.49749  -5105013.86745  24274694.149    24274704.842
  20539450.903   -23478095.72349 -17980823.02748  20539450.374    20539455.532
  24221679.889    -8940987.87249  -6948545.85545  24221679.630    24221692.423
  20734554.101   -22462083.37249 -17480781.10647  20734553.507    20734560.425
  20323637.435   -23889937.80249 -18367025.89448  20323636.649    20323643.106
  22342184.306   -17130412.67249 -13032567.11046  22342183.948    22342192.421
 02  3  7  2 27 30.0000000  0 11G26G21G14G23G29G 9G18G 6G17G15G 3
  23505730.942   -11261995.79849  -8764635.84445  23505730.911    23505739.589
  21564361.303   -18968310.06249 -14755800.26947  21564360.734    21564368.118
  23695781.108    -7379964.92849  -5736007.12245  23695780.343    23695792.941
  23506201.917    -5326714.77149  -4132054.85346  23506201.346    23506209.975
  21021849.047   -21922004.99249 -16790320.08647  21021848.827    21021855.776
  24261857.132    -7178054.48149  -5157580.73445  24261856.607    24261867.342
  20543974.024   -23454326.42449 -17962301.46948  20543973.483    20543978.647
  24243006.752    -8828915.42849  -6861216.84345  24243006.545    24243019.263
  20738952.300   -22438970.79049 -17462771.27347  20738951.683    20738958.580
  20324557.299   -23885103.47949 -18363258.84448  20324556.523    20324563.038
  22331258.856   -17187825.87049 -13077304.55146  22331258.482    22331266.937
 02  3  7  2 28  0.0000000  0 11G26G21G14G23G29G 9G18G 6G17G15G 3
  23524211.226   -11164881.62249  -8688962.46645  23524211.246    23524219.885
  21558416.938   -18999547.42149 -14780140.97647  21558416.389    21558423.741
  23674630.771    -7491108.62649  -5822612.17345  23674630.135    23674642.710
  23520447.911    -5251851.16249  -4073719.55946  23520447.303    23520455.877
  21010029.866   -21984114.65549 -16838717.09947  21010029.649    21010036.554
  24249062.620    -7245289.23049  -5209971.31745  24249062.004    24249072.996
  20548551.949   -23430269.00449 -17943555.39548  20548551.414    20548556.580
  24264346.083    -8716777.11849  -6773836.53645  24264346.023    24264358.900
  20743409.403   -22415548.16549 -17444519.84047  20743408.787    20743415.733
  20325538.202   -23879948.31849 -18359241.79148  20325537.443    20325543.978
  22320422.971   -17244768.79149 -13121675.54146  22320422.583    22320430.963
 02  3  7  2 28 30.0000000  0 11G26G21G14G23G29G 9G18G 6G17G15G 3
  23542753.014   -11067444.30849  -8613037.27445  23542752.991    23542761.574
  21552515.868   -19030557.42449 -14804304.52647  21552515.324    21552522.638
  23653505.541    -7602120.21349  -5909114.27845  23653505.010    23653517.587
  23534694.690    -5176983.49749  -4015381.10645  23534694.090    23534702.546
  20998298.038   -22045765.33249 -16886756.46847  20998297.811    20998304.690
  24236312.049    -7312293.19849  -5262182.08145  24236311.451    24236322.422
  20553184.725   -23405923.52549 -17924584.86348  20553184.207    20553189.336
  24285697.765    -8604574.09149  -6686405.81945  24285697.661    24285710.745
  20747925.913   -22391813.57349 -17426025.31747  20747925.310    20747932.236
  20326580.711   -23874469.76949 -18354972.74548  20326579.942    20326586.456
  22309677.105   -17301238.41749 -13165677.74346  22309676.722    22309684.998
 02  3  7  2 29  0.0000000  0 11G26G21G14G23G29G 9G18G 6G17G15G 3
  23561355.578   -10969686.82049  -8536862.60245  23561355.563    23561364.272
  21546658.027   -19061340.60349 -14828291.33047  21546657.470    21546664.742
  23632406.229    -7712996.75849  -5995511.15845  23632405.657    23632418.093
  23548942.246    -5102112.39249  -3957039.96745  23548941.597    23548949.935
  20986653.910   -22106954.93949 -16934436.55747  20986653.702    20986660.577
  24223606.168    -7379062.98049  -5314210.36945  24223605.677    24223616.199
  20557872.091   -23381291.22049 -17905390.82948  20557871.552    20557876.630
  24307061.359    -8492308.58449  -6598926.43445  24307061.152    24307074.610
  20752502.024   -22367765.83749 -17407286.79047  20752501.402    20752508.298
  20327684.969   -23868666.83549 -18350450.93147  20327684.187    20327690.692
  22299021.741   -17357232.31449 -13209309.24646  22299021.349    22299029.568
 02  3  7  2 29 30.0000000  0 11G26G21G14G23G29G 9G18G 6G17G15G 3
  23580018.164   -10871613.38749  -8460441.75645  23580018.183    23580026.898
  21540842.994   -19091898.62949 -14852102.68647  21540842.445    21540849.691
  23611332.900    -7823736.86249  -6081801.72345  23611332.245    23611344.522
  23563189.978    -5027240.08349  -3898697.89746  23563189.363    23563197.631
  20975097.639   -22167683.10349 -16981757.08147  20975097.432    20975104.295
  24210945.048    -7445596.67049  -5366054.68345  24210944.642    24210954.945
  20562613.578   -23356374.62449 -17885975.27648  20562613.039    20562618.062
  24328436.161    -8379984.23749  -6511401.19945  24328435.914    24328449.574
  20757137.624   -22343405.60649 -17388304.76047  20757137.023    20757143.859
  20328850.820   -23862539.94249 -18345676.67948  20328850.040    20328856.520
  22288457.010   -17412749.89649 -13252569.59546  22288456.633    22288464.855
 02  3  7  2 30  0.0000000  0 11G26G21G14G23G29G 9G18G 6G17G15G 3
  23598740.773   -10773225.44249  -8383775.82045  23598740.692    23598749.355
  21535070.996   -19122230.18349 -14875737.57347  21535070.461    21535077.685
  23590286.139    -7934336.60949  -6167982.91345  23590285.506    23590297.619
  23577438.095    -4952365.84049  -3840354.32346  23577437.469    23577445.674
  20963629.828   -22227946.26549 -17028715.27447  20963629.611    20963636.445
  24198329.975    -7511889.53249  -5417711.32545  24198329.655    24198339.808
  20567409.173   -23331173.50249 -17866338.00248  20567408.619    20567413.660
  24349821.881    -8267602.08849  -6423830.93245  24349821.599    24349835.437
  20761833.129   -22318730.46349 -17369077.34647  20761832.532    20761839.403
  20330078.838   -23856086.58849 -18340648.04348  20330078.080    20330084.496
  22277983.543   -17467787.85649 -13295456.20546  22277983.133    22277991.448
 02  3  7  2 30 30.0000000  0 11G26G21G14G23G29G 9G18G 6G17G15G 3
  23617522.492   -10674527.73049  -8306868.49445  23617522.400    23617531.038
  21529341.560   -19152338.17049 -14899198.25047  21529340.998    21529348.204
  23569266.216    -8044795.10049  -6254054.04245  23569265.617    23569277.716
  23591686.156    -4877492.23849  -3782011.24046  23591685.476    23591693.698
  20952250.471   -22287744.74849 -17075311.37247  20952250.249    20952257.050
  24185760.846    -7577940.14749  -5469179.21145  24185760.596    24185770.709
  20572258.277   -23305690.99549 -17846481.46348  20572257.742    20572262.801
  24371217.813    -8155166.35149  -6336218.90245  24371217.567    24371231.506
  20766588.412   -22293741.35249 -17349605.28547  20766587.800    20766594.673
  20331368.801   -23849307.71249 -18335365.75248  20331368.007    20331374.430
  22267601.365   -17522346.20349 -13337969.09046  22267600.961    22267609.288
 02  3  7  2 31  0.0000000  0 11G26G21G14G23G29G 9G18G 6G17G15G 3
  23636362.715   -10575522.32349  -8229721.43545  23636362.647    23636371.346
  21523654.777   -19182222.03049 -14922484.29147  21523654.195    21523661.381
  23548273.975    -8155108.55049  -6340012.14145  23548273.330    23548285.413
  23605934.015    -4802619.18849  -3723668.60046  23605933.372    23605941.571
  20940959.985   -22347075.85949 -17121543.29247  20940959.775    20940966.584
  24173238.551    -7643744.23249  -5520454.99545  24173238.415    24173248.546
  20577160.875   -23279927.29749 -17826405.81848  20577160.338    20577165.399
  24392623.707    -8042678.57449  -6248566.34345  24392623.507    24392637.503
  20771403.702   -22268436.55249 -17329887.23047  20771403.107    20771409.976
  20332721.037   -23842201.36449 -18329828.29248  20332720.271    20332726.747
  22257311.004   -17576422.06049 -13380106.01746  22257310.575    22257318.839
 02  3  7  2 31 30.0000000  0 11G26G21G14G23G29G 9G18G 6G17G15G 3
  23655260.921   -10476211.34349  -8152336.26945  23655260.704    23655269.623
  21518010.654   -19211881.81849 -14945595.73247  21518010.072    21518017.210
  23527310.006    -8265273.54549  -6425854.57045  23527309.264    23527321.269
  23620181.758    -4727746.68949  -3665326.40546  23620181.138    23620189.487
  20929759.083   -22405936.81449 -17167408.85647  20929758.860    20929765.610
  24160764.043    -7709297.89649  -5571535.64845  24160763.652    24160774.087
  20582116.884   -23253882.96449 -17806111.49948  20582116.387    20582121.443
  24414039.238    -7930140.26649  -6160874.40745  24414039.012    24414052.984
  20776279.410   -22242814.41649 -17309921.90647  20776278.821    20776285.640
  20334135.932   -23834765.85149 -18324034.34048  20334135.181    20334141.645
  22247113.014   -17630012.51249 -13421864.70346  22247112.605    22247120.760
 02  3  7  2 32  0.0000000  0 11G26G21G14G23G29G 9G18G 6G17G15G 3
  23674216.542   -10376598.50249  -8074715.84345  23674216.352    23674225.301
  21512408.988   -19241318.67549 -14968533.46447  21512408.390    21512415.493
  23506374.502    -8375288.57249  -6511580.12345  23506373.747    23506385.609
  23634429.111    -4652876.56049  -3606986.03746  23634428.465    23634436.910
  20918647.658   -22464327.21049 -17212907.75047  20918647.432    20918654.149
  24148337.526    -7774598.77949  -5622419.31145  24148337.015    24148347.591
  20587125.865   -23227560.39449 -17785600.36648  20587125.370    20587130.414
  24435463.754    -7817554.67649  -6073145.63545  24435463.510    24435477.709
  20781215.456   -22216875.28949 -17289709.57947  20781214.854    20781221.683
  20335613.503   -23827001.19649 -18317983.92448  20335612.718    20335619.157
  22237007.592   -17683116.45349 -13463244.30546  22237007.210    22237015.275
 02  3  7  2 32 30.0000000  0 11G26G21G14G23G29G 9G18G 6G17G15G 3
  23693228.941   -10276687.07149  -7996862.78345  23693228.759    23693237.844
  21506849.452   -19270533.87149 -14991298.47647  21506848.868    21506855.978
  23485467.931    -8485150.92749  -6597186.72145  23485467.300    23485478.996
  23648675.792    -4578009.76649  -3548648.25446  23648675.093    23648683.708
  20907626.130   -22522245.21649 -17258038.55347  20907625.922    20907632.619
  24135959.741    -7839643.50349  -5673103.38245  24135959.283    24135969.795
  20592187.570   -23200960.91949 -17764873.46748  20592187.065    20592192.089
  24456896.771    -7704924.28749  -5985381.95845  24456896.602    24456910.870
  20786211.999   -22190618.20549 -17269249.48947  20786211.385    20786218.228
  20337153.735   -23818906.79949 -18311676.56348  20337152.972    20337159.403
  22226995.059   -17735732.40649 -13504243.65046  22226994.672    22227002.633
 02  3  7  2 33  0.0000000  0 11G26G21G14G23G29G 9G18G 6G17G15G 3
  23712297.733   -10176479.57949  -7918779.03545  23712297.597    23712306.585
  21501332.132   -19299527.34749 -15013890.72547  21501331.548    21501338.660
  23464591.094    -8594857.63249  -6682672.03945  23464590.503    23464602.122
  23662921.600    -4503146.58849  -3490313.32546  23662920.951    23662929.693
  20896694.952   -22579688.73849 -17302799.62547  20896694.719    20896701.353
  24123631.481    -7904428.63349  -5723585.16745  24123630.939    24123641.380
  20597301.878   -23174085.21349 -17743931.33348  20597301.355    20597306.366
  24478337.881    -7592251.15349  -5897585.00845  24478337.739    24478352.235
  20791269.245   -22164042.15849 -17248540.86747  20791268.644    20791275.455
  20338757.027   -23810481.21849 -18305111.13448  20338756.272    20338762.681
  22217075.800   -17787858.18649 -13544861.05246  22217075.429    22217083.294
 02  3  7  2 33 30.0000000  0 11G26G21G14G23G29G 9G18G 6G17G15G 3
  23731422.177   -10075979.63449  -7840467.37945  23731422.079    23731430.812
  21495856.824   -19328299.93249 -15036310.84047  21495856.239    21495863.373
  23443744.292    -8704406.74649  -6768034.56445  23443743.715    23443755.266
  23677166.518    -4428288.33449  -3431982.20545  23677165.919    23677174.787
  20885854.156   -22636656.93549 -17347190.31447  20885853.935    20885860.538
  24111353.036    -7968951.80649  -5773862.82745  24111352.668    24111362.803
  20602468.329   -23146935.24149 -17722775.47148  20602467.808    20602472.821
  24499786.485    -7479538.50449  -5809757.24945  24499786.400    24499800.898
  20796387.260   -22137146.87949 -17227583.47647  20796386.651    20796393.404
  20340423.459   -23801724.09549 -18298287.35848  20340422.678    20340429.084
  22207250.009   -17839492.69549 -13585095.62547  22207249.611    22207257.491
 02  3  7  2 34  0.0000000  0 11G26G21G14G23G29G 9G18G 6G17G15G 3
  23750601.667    -9975190.03849  -7761930.02445  23750601.571    23750610.513
  21490423.360   -19356852.30749 -15058559.37547  21490422.790    21490429.930
  23422927.976    -8813795.44549  -6853272.09045  23422927.396    23422938.908
  23691410.498    -4353435.63149  -3373655.40845  23691409.889    23691418.684
  20875104.220   -22693147.89749 -17391209.14147  20875104.016    20875110.565
  24099124.968    -8033209.40349  -5823933.55745  24099124.653    24099135.083
  20607686.744   -23119512.22949 -17701406.84448  20607686.216    20607691.215
  24521242.322    -7366788.54249  -5721900.39945  24521242.117    24521256.855
  20801566.174   -22109931.33349 -17206376.53347  20801565.566    20801572.340
  20342153.186   -23792634.27549 -18291204.35148  20342152.391    20342158.770
  22197518.094   -17890633.76949 -13624945.71147  22197517.659    22197525.622
 02  3  7  2 34 30.0000000  0 10G26G21G14G23G29G 9G18G17G15G 3
  23769835.845    -9874113.37749  -7683168.96745  23769835.935    23769844.686
  21485031.786   -19385184.90349 -15080636.65147  21485031.212    21485038.302
  23402142.696    -8923020.74149  -6938382.29945  23402142.165    23402153.577
  23705653.424    -4278588.79949  -3315333.19245  23705652.818    23705661.582
  20864445.500   -22749159.57249 -17434854.49547  20864445.275    20864451.758
  24086948.281    -8097197.85849  -5873794.55945  24086947.913    24086958.488
  20612956.952   -23091816.94649 -17679826.04948  20612956.417    20612961.417
  20806806.238   -22082394.55749 -17184919.28547  20806805.628    20806812.429
  20343946.423   -23783210.44149 -18283861.05148  20343945.640    20343952.053
  22187880.433   -17941279.29249 -13664409.65047  22187880.030    22187888.058
 02  3  7  2 35  0.0000000  0 10G26G21G14G23G29G 9G18G17G15G 3
  23789124.811    -9772750.11049  -7604184.62445  23789124.920    23789133.505
  21479682.555   -19413295.32649 -15102540.81347  21479681.986    21479688.961
  23381389.487    -9032077.67049  -7023361.31945  23381388.892    23381400.107
  23719895.508    -4203746.12049  -3257014.21645  23719894.928    23719903.652
  20853878.647   -22804688.11949 -17478123.38947  20853878.441    20853884.911
  24074824.174    -8160911.45249  -5923441.37645  24074823.776    24074833.772
  20618279.169   -23063848.40949 -17658032.35048  20618278.643    20618283.615
  20812108.089   -22054533.22549 -17163209.12847  20812107.488    20812114.243
  20345803.865   -23773449.49749 -18276255.07548  20345803.094    20345809.460
  22178337.924   -17991425.03449 -13703484.15147  22178337.556    22178345.536
 02  3  7  2 35 30.0000000  0 10G26G21G14G23G29G 9G18G17G15G 3
  23808466.444    -9671109.86149  -7524984.41845  23808466.472    23808474.869
  21474374.232   -19441190.82249 -15124277.49947  21474373.640    21474380.541
  23360667.756    -9140969.99649  -7108212.09845  23360667.117    23360678.147
  23734135.425    -4128914.98949  -3198704.22945  23734134.770    23734143.497
  20843402.856   -22859738.40349 -17521019.60347  20843402.643    20843409.103
  24062751.372    -8224353.66149  -5972876.70545  24062750.955    24062760.917
  20623651.937   -23035614.28549 -17636031.70148  20623651.403    20623656.322
  20817470.598   -22026353.18449 -17141250.62347  20817469.965    20817476.676
  20347724.326   -23763357.15649 -18268390.87147  20347723.544    20347729.926
  22168889.668   -18041075.85249 -13742172.99747  22168889.248    22168897.209
 02  3  7  2 36  0.0000000  0 10G26G21G14G23G29G 9G18G17G15G 3
  23827860.785    -9569191.57149  -7445567.54245  23827860.845    23827869.177
  21469107.357   -19468868.27649 -15145844.28347  21469106.747    21469113.639
  23339978.531    -9249691.20649  -7192929.54445  23339977.890    23339988.813
  23748373.640    -4054092.37249  -3140400.87345  23748372.994    23748381.777
  20833019.075   -22914304.88549 -17563538.83747  20833018.881    20833025.334
  24050731.397    -8287517.48849  -6022095.11545  24050730.966    24050741.229
  20629075.637   -23007112.26649 -17613822.31048  20629075.119    20629080.008
  20822894.514   -21997849.87049 -17119040.22247  20822893.900    20822900.619
  20349708.658   -23752928.89649 -18260264.92847  20349707.900    20349714.301
  22159536.520   -18090226.08049 -13780471.77347  22159536.152    22159544.152
 02  3  7  2 36 30.0000000  0 10G26G21G14G23G29G 9G18G17G15G 3
  23847307.473    -9466997.81549  -7365936.03345  23847307.552    23847315.980
  21463881.844   -19496327.92949 -15167241.35547  21463881.244    21463888.169
  23319322.364    -9358238.31249  -7277511.34945  23319321.800    23319332.671
  23762610.131    -3979278.41549  -3082104.26445  23762609.508    23762618.407
  20822727.796   -22968385.69349 -17605679.62947  20822727.606    20822734.000
  24038765.168    -8350399.20449  -6071093.69045  24038764.839    24038774.952
  20634550.236   -22978342.80249 -17591404.51048  20634549.719    20634554.638
  20828380.259   -21969021.93949 -17096576.87147  20828379.653    20828386.366
  20351757.316   -23742162.98949 -18251875.88347  20351756.582    20351762.923
  22150279.146   -18138873.63049 -13818378.84647  22150278.781    22150286.712
 02  3  7  2 37  0.0000000  0 10G26G21G14G23G29G 9G18G17G15G 3
  23866805.802    -9364533.64349  -7286093.79945  23866805.894    23866814.298
  21458697.367   -19523572.16749 -15188470.57247  21458696.774    21458703.728
  23298699.488    -9466610.67849  -7361956.99346  23298698.907    23298709.675
  23776844.592    -3904475.97849  -3023816.62645  23776843.994    23776852.882
  20812528.786   -23021981.37849 -17647442.40447  20812528.587    20812534.979
  24026852.982    -8412997.64549  -6119871.51845  24026852.647    24026862.661
  20640075.038   -22949309.46249 -17568781.09948  20640074.514    20640079.439
  20833927.550   -21939870.67549 -17073861.56947  20833926.943    20833933.631
  20353870.071   -23731060.50249 -18243224.56548  20353869.310    20353875.609
  22141117.438   -18187018.86249 -13855894.50347  22141117.014    22141124.860
 02  3  7  2 37 30.0000000  0 10G26G21G14G23G29G 9G18G17G15G 3
  23886355.535    -9261799.57849  -7206041.28445  23886355.460    23886363.964
  21453554.174   -19550599.38549 -15209530.67647  21453553.624    21453560.594
  23278110.810    -9574803.30149  -7446262.58946  23278110.220    23278120.896
  23791077.176    -3829683.39149  -2965536.67945  23791076.600    23791085.396
  20802422.852   -23075087.95649 -17688824.04747  20802422.663    20802429.008
  24014995.631    -8475307.36349  -6168424.38245  24014995.365    24015005.443
  20645650.270   -22920011.21549 -17545951.26248  20645649.764    20645654.675
  20839536.913   -21910393.04849 -17050891.95947  20839536.319    20839543.074
  20356047.458   -23719618.27649 -18234308.49648  20356046.682    20356052.994
  22132051.931   -18234657.70749 -13893015.58747  22132051.540    22132059.372
 02  3  7  2 38  0.0000000  0 10G26G21G14G23G29G 9G18G17G15G 3
  23905955.515    -9158801.54349  -7125783.06145  23905955.541    23905963.850
  21448451.639   -19577412.99249 -15230424.33647  21448451.096    21448458.061
  23257556.246    -9682816.43249  -7530428.33246  23257555.700    23257566.375
  23805307.238    -3754904.04549  -2907267.04245  23805306.669    23805315.393
  20792409.793   -23127706.78449 -17729825.63547  20792409.574    20792415.859
  24003193.528    -8537328.03549  -6216752.00745  24003193.056    24003203.263
  20651275.190   -22890451.94749 -17522918.02448  20651274.690    20651279.562
  20845207.999   -21880591.15749 -17027669.67647  20845207.393    20845214.172
  20358288.993   -23707838.59649 -18225129.49047  20358288.230    20358294.550
  22123082.551   -18281791.24849 -13929742.92147  22123082.179    22123090.068
 02  3  7  2 38 30.0000000  0 10G26G21G14G23G29G 9G18G17G15G 3
  23925605.357    -9055540.82649  -7045320.13045  23925605.329    23925613.667
  21443389.983   -19604012.16049 -15251150.89947  21443389.430    21443396.340
  23237036.647    -9790646.14449  -7614451.16945  23237036.065    23237046.705
  23819534.961    -3680137.32049  -2849007.24545  23819534.339    23819543.013
  20782490.016   -23179835.05849 -17770444.97247  20782489.812    20782496.070
  23991447.124    -8599054.74749  -6264850.57245  23991446.608    23991456.915
  20656949.881   -22860631.38249 -17499681.18348  20656949.362    20656954.198
  20850941.192   -21850462.82049 -17004193.02147  20850940.604    20850947.327
  20360595.267   -23695718.94449 -18215685.57747  20360594.494    20360600.801
  22114210.011   -18328416.29449 -13966074.02747  22114209.631    22114217.502
 02  3  7  2 39  0.0000000  0 10G26G21G14G23G29G 9G18G17G15G 3
  23945304.683    -8952020.18949  -6964654.68045  23945304.491    23945312.996
  21438369.025   -19630397.27949 -15271710.67047  21438368.447    21438375.356
  23216552.457    -9898289.44749  -7698328.76945  23216551.916    23216562.440
  23833760.133    -3605383.58649  -2790757.56545  23833759.482    23833768.188
  20772663.900   -23231471.12049 -17810680.76947  20772663.694    20772669.940
  23979757.449    -8660484.25149  -6312717.58145  23979756.990    23979767.136
  20662673.988   -22830550.76349 -17476241.71448  20662673.479    20662678.309
  20856736.781   -21820007.05849 -16980461.23947  20856736.162    20856742.779
  20362966.448   -23683258.28949 -18205975.94147  20362965.672    20362971.930
  22105434.570   -18374531.18349 -14002007.60947  22105434.196    22105441.998
 02  3  7  2 39 30.0000000  0 10G26G21G14G23G29G 9G18G17G15G 3
  23965052.897    -8848242.35949  -6883788.82845  23965052.759    23965061.324
  21433388.679   -19656568.75249 -15292103.96147  21433388.094    21433395.001
  23196104.350   -10005743.45749  -7782058.88845  23196103.812    23196114.252
  23847982.614    -3530643.27949  -2732518.35345  23847982.005    23847990.778
  20762931.784   -23282613.08949 -17850531.55747  20762931.602    20762937.846
  23968124.967    -8721613.28249  -6360350.46845  23968124.622    23968134.457
  20668447.393   -22800210.95249 -17452600.27948  20668446.892    20668451.744
  20862594.760   -21789222.90349 -16956473.55247  20862594.127    20862600.788
  20365402.738   -23670455.27249 -18195999.52747  20365401.966    20365408.235
  22096756.580   -18420134.06849 -14037542.22947  22096756.134    22096763.959
 02  3  7  2 40  0.0000000  0 10G26G21G14G23G29G 9G18G17G15G 3
  23984849.301    -8744211.75349  -6802726.00645  23984849.145    23984857.777
  21428448.688   -19682528.40549 -15312332.20047  21428448.104    21428455.003
  23175692.553   -10113007.01249  -7865640.62646  23175692.092    23175702.420
  23862202.248    -3455918.49549  -2674291.24445  23862201.671    23862210.476
  20753293.757   -23333261.18249 -17889997.50747  20753293.564    20753299.772
  23956549.810    -8782440.07349  -6407747.81645  23956549.507    23956559.255
  20674269.680   -22769614.77149 -17428759.05848  20674269.171    20674273.998
  20868515.069   -21758111.09749 -16932230.56547  20868514.448    20868521.170
  20367903.973   -23657311.00049 -18185757.20347  20367903.194    20367909.488
  22088176.013   -18465224.79549 -14072677.77947  22088175.634    22088183.417
 02  3  7  2 40 30.0000000  0 10G26G21G14G23G29G 9G18G17G15G 3
  24004693.600    -8639929.35849  -6721466.99545  24004693.347    24004702.044
  21423549.221   -19708275.20149 -15332394.57747  21423548.626    21423555.504
  23155317.991   -10220075.67449  -7949070.49446  23155317.458    23155327.678
  23876419.137    -3381208.12749  -2616075.35245  23876418.520    23876427.352
  20743750.293   -23383412.02349 -17929075.99147  20743750.091    20743756.256
  23945033.179    -8842959.58949  -6454905.72945  23945032.839    23945042.652
  20680140.826   -22738761.54049 -17404717.54448  20680140.297    20680145.155
  20874498.278   -21726669.05449 -16907730.24847  20874497.666    20874504.377
  20370470.713   -23643822.56649 -18175246.69747  20370469.937    20370476.215
  22079693.654   -18509799.81749 -14107411.48847  22079693.276    22079700.938
 02  3  7  2 41  0.0000000  0 10G26G21G14G23G29G 9G18G17G15G 3
  24024584.851    -8535400.14949  -6640015.66145  24024584.636    24024593.119
  21418689.693   -19733811.75049 -15352293.11547  21418689.120    21418695.981
  23134980.479   -10326948.74449  -8032347.93946  23134979.917    23134990.132
  23890632.889    -3306514.58449  -2557872.57645  23890632.299    23890640.984
  20734301.328   -23433066.36349 -17967767.58447  20734301.132    20734307.238
  23933575.359    -8903170.65949  -6501823.30145  23933575.011    23933584.890
  20686060.249   -22707654.66649 -17380478.38648  20686059.719    20686064.583
  20880544.088   -21694898.14149 -16882973.65947  20880543.431    20880550.165
  20373102.757   -23629990.99849 -18164468.81147  20373101.985    20373108.221
  22071309.384   -18553859.42149 -14141743.56547  22071308.931    22071316.583
 02  3  7  2 41 30.0000000  0 10G26G21G14G23G29G 9G18G17G15G 3
  24044522.638    -8430626.17049  -6558373.58545  24044522.383    24044531.075
  21413870.207   -19759137.73349 -15372027.57447  21413869.657    21413876.538
  23114680.749   -10433622.83849  -8115470.31846  23114680.200    23114690.446
  23904843.623    -3231837.68549  -2499682.78445  23904842.961    23904851.453
  20724947.295   -23482221.86549 -18006070.47047  20724947.078    20724953.183
  23922176.741    -8963069.14849  -6548497.31145  23922176.422    23922186.403
  20692027.866   -22676294.23249 -17356041.65248  20692027.348    20692032.219
  20886652.732   -21662796.62449 -16857959.46447  20886652.102    20886658.835
  20375800.439   -23615814.53049 -18153422.18547  20375799.667    20375805.853
  22063023.400   -18597401.39149 -14175672.29547  22063023.047    22063030.775
 02  3  7  2 42  0.0000000  0 10G26G21G14G23G29G 9G18G17G15G 3
  24064506.194    -8325611.85049  -6476544.24845  24064506.028    24064514.668
  21409090.474   -19784255.07949 -15391599.46247  21409089.916    21409096.817
  23094419.306   -10540096.65149  -8198436.64046  23094418.737    23094428.858
  23919050.680    -3157179.71849  -2441507.74845  23919049.996    23919058.320
  20715688.088   -23530878.71249 -18043984.80247  20715687.898    20715694.025
  23910838.090    -9022653.61849  -6594926.62445  23910837.791    23910847.710
  20698043.245   -22644683.10249 -17331409.58548  20698042.723    20698047.581
  20892824.167   -21630365.48149 -16832688.42947  20892823.519    20892830.261
  20378563.570   -23601293.93749 -18142107.41147  20378562.785    20378569.002
  22054836.124   -18640425.55649 -14209197.55547  22054835.775    22054843.492
 02  3  7  2 42 30.0000000  0 10G26G21G14G23G29G 9G18G17G15G 3
  24084535.474    -8220357.36849  -6394527.76945  24084535.433    24084543.851
  21404350.886   -19809161.67249 -15411007.12747  21404350.317    21404357.215
  23074197.004   -10646364.96549  -8281242.83946  23074196.357    23074206.414
  23933254.358    -3082538.33449  -2383345.62645  23933253.753    23933262.059
  20706524.608   -23579032.65449 -18081507.26247  20706524.432    20706530.526
  23899560.459    -9081918.04149  -6641106.54645  23899560.159    23899569.873
  20704106.589   -22612819.90449 -17306581.10347  20704106.076    20704110.897
  20899059.006   -21597601.07949 -16807157.70947  20899058.373    20899065.131
  20381392.858   -23586425.60149 -18130521.67047  20381392.086    20381398.328
  22046748.303   -18682927.72549 -14242316.05547  22046747.854    22046755.506
 02  3  7  2 43  0.0000000  0 10G26G21G14G23G29G 9G18G17G15G 3
  24104609.636    -8114867.25849  -6312327.67945  24104609.496    24104618.019
  21399650.910   -19833859.72049 -15430252.28347  21399650.341    21399657.258
  23054013.854   -10752426.80649  -8363888.15446  23054013.249    23054023.180
  23947454.349    -3007915.95049  -2325198.32145  23947453.843    23947462.187
  20697456.748   -23626684.30549 -18118638.32447  20697456.539    20697462.613
  23888343.845    -9140861.04849  -6687036.02045  23888343.494    23888353.215
  20710217.330   -22580707.62149 -17281558.51847  20710216.805    20710221.628
  20905356.976   -21564504.57749 -16781368.20947  20905356.373    20905363.107
  20384288.165   -23571210.63049 -18118665.81247  20384287.382    20384293.608
  22038759.542   -18724908.05049 -14275027.93147  22038759.175    22038766.798
 02  3  7  2 43 30.0000000  0 10G26G21G14G23G29G 9G18G17G15G 3
  24124728.015    -8009144.21449  -6229946.10045  24124727.869    24124736.420
  21394990.550   -19858349.59649 -15449335.23447  21394990.007    21394996.908
  23033870.646   -10858279.41149  -8446370.43346  23033870.074    23033879.726
  23961650.823    -2933312.85649  -2267066.00045  23961650.286    23961658.670
  20688484.735   -23673832.06349 -18155376.75147  20688484.540    20688490.592
  23877189.062    -9199479.35749  -6732712.48445  23877188.846    23877198.405
  20716375.268   -22548347.23349 -17256342.61447  20716374.772    20716379.598
  20911718.418   -21531075.00149 -16755319.17247  20911717.839    20911724.512
  20387249.654   -23555647.82149 -18106538.92647  20387248.881    20387255.056
  22030870.546   -18766364.66549 -14307331.72347  22030870.196    22030877.791
 02  3  7  2 44  0.0000000  0 10G26G21G14G23G29G 9G18G17G15G 3
  24144889.989    -7903192.14949  -6147386.02945  24144889.861    24144898.338
  21390369.435   -19882633.52649 -15468257.70047  21390368.906    21390375.755
  23013767.668   -10963921.19049  -8528688.42046  23013766.951    23013776.375
  23975843.264    -2858730.71649  -2208950.05145  23975842.679    23975851.155
  20679608.626   -23720475.65749 -18191722.31047  20679608.435    20679614.495
  23866096.425    -9257770.73849  -6778134.19145  23866096.386    23866105.787
  20722580.056   -22515740.83149 -17230934.99347  20722579.547    20722584.361
  20918143.190   -21497312.69949 -16729010.86747  20918142.581    20918149.258
  20390277.298   -23539737.31149 -18094141.09947  20390276.525    20390282.701
  22023081.371   -18807297.39049 -14339227.27647  22023080.958    22023088.533
 02  3  7  2 44 30.0000000  0 10G26G21G14G23G29G 9G18G17G15G 3
  24165094.980    -7797013.49749  -6064649.42245  24165094.932    24165103.481
  21385787.638   -19906710.92049 -15487019.22647  21385787.078    21385793.898
  22993705.101   -11069349.01249  -8610839.66146  22993704.411    22993713.874
  23990031.891    -2784169.51049  -2150850.42745  23990031.227    23990039.679
  20670828.846   -23766613.37749 -18227673.68747  20670828.673    20670834.713
  23855066.556    -9315731.60349  -6823298.37045  23855066.541    23855076.133
  20728831.527   -22482889.17849 -17205336.27447  20728831.009    20728835.810
  20924631.413   -21463216.57649 -16702442.44147  20924630.800    20924637.511
  20393371.364   -23523477.78149 -18081471.29547  20393370.583    20393376.731
  22015392.132   -18847704.18149 -14370713.01047  22015391.751    22015399.310
 02  3  7  2 45  0.0000000  0 11G26G21G14G23G29G 9G18G17G31G15G 3
  24185342.459    -7690611.17749  -5981738.50945  24185342.406    24185351.136
  21381244.986   -19930582.47149 -15505620.36447  21381244.423    21381251.211
  22973683.680   -11174560.30649  -8692822.18646  22973683.101    22973692.597
  24004216.313    -2709629.82449  -2092767.56445  24004215.687    24004224.048
  20662145.549   -23812243.98549 -18263229.91347  20662145.375    20662151.404
  23844100.518    -9373359.00249  -6868202.68245  23844100.493    23844109.769
  20735129.459   -22449793.37649 -17179547.32047  20735128.929    20735133.724
  20931183.342   -21428785.89949 -16675613.34047  20931182.734    20931189.463
  24434046.567    -3158973.66859  -2443563.97245  24434045.713    24434057.172
  20396532.046   -23506868.28849 -18068528.80047  20396531.265    20396537.403
  22007803.231   -18887583.61049 -14401787.82747  22007802.856    22007810.409
 02  3  7  2 45 30.0000000  0 11G26G21G14G23G29G 9G18G17G31G15G 3
  24205630.992    -7583993.75249  -5898660.00145  24205630.981    24205639.732
  21376740.380   -19954254.32449 -15524065.88747  21376739.801    21376746.549
  22953703.111   -11279558.21249  -8774638.43346  22953702.503    22953711.959
  24018395.290    -2635117.86349  -2034706.29045  24018394.652    24018403.256
  20653557.900   -23857372.04749 -18298394.54547  20653557.710    20653563.722
  23833197.370    -9430655.48049  -6912849.14145  23833197.351    23833206.473
  20741472.415   -22416460.60749 -17153573.70447  20741471.888    20741476.680
  20937797.974   -21394025.86949 -16648527.59047  20937797.364    20937804.068
  24417094.598    -3248057.04949  -2512979.37845  24417093.528    24417105.193
  20399758.331   -23489913.92549 -18055317.57247  20399757.552    20399763.713
  22000313.878   -18926940.04249 -14432455.08947  22000313.510    22000321.051
 02  3  7  2 46  0.0000000  0 11G26G21G14G23G29G 9G18G17G31G15G 3
  24225961.910    -7477154.66649  -5815408.75645  24225961.846    24225970.647
  21372275.324   -19977718.02449 -15542349.21647  21372274.722    21372281.487
  22933765.257   -11384330.62649  -8856278.98546  22933764.706    22933774.131
  24032570.637    -2560624.84049  -1976659.78845  24032570.218    24032578.876
  20645067.916   -23901987.02849 -18333159.37747  20645067.717    20645073.670
  23822359.347    -9487608.41149  -6957227.89345  23822359.324    23822368.481
  20747862.112   -22382882.49949 -17127408.91647  20747861.584    20747866.394
  20944477.199   -21358926.21049 -16621177.19047  20944476.571    20944483.302
  24400202.547    -3336824.27349  -2582148.41545  24400201.513    24400213.235
  20403052.141   -23472604.45449 -18041829.63747  20403051.371    20403057.575
  21992926.218   -18965762.38149 -14462706.17847  21992925.864    21992933.396
 02  3  7  2 46 30.0000000  0 11G26G21G14G23G29G 9G18G17G31G15G 3
  24246334.026    -7370098.83149  -5731988.62245  24246333.952    24246342.639
  21367849.403   -20000975.80749 -15560472.08847  21367848.816    21367855.592
  22913870.352   -11488877.33849  -8937743.69846  22913869.899    22913879.205
  24046742.036    -2486153.43049  -1918630.11045  24046741.657    24046750.495
  20636675.394   -23946089.72549 -18367525.03047  20636675.197    20636681.133
  23811586.884    -9544217.23449  -7001338.48545  23811586.782    23811596.086
  20754297.828   -22349062.30949 -17101055.48547  20754297.309    20754302.145
  20951220.764   -21323488.38849 -16593563.29647  20951220.172    20951226.840
  24383370.564    -3425274.94549  -2651070.79145  24383369.745    24383381.455
  20406413.336   -23454941.20249 -18028066.02747  20406412.575    20406418.746
  21985639.913   -19004051.72549 -14492541.95647  21985639.519    21985647.089
 02  3  7  2 47  0.0000000  0 11G26G21G14G23G29G 9G18G17G31G15G 3
  24266746.627    -7262829.70249  -5648402.28845  24266746.642    24266755.386
  21363462.415   -20024029.20149 -15578435.70447  21363461.843    21363468.595
  22894019.122   -11593196.00649  -9019030.70446  22894018.591    22894027.671
  24060909.363    -2411704.55449  -1860617.99545  24060908.920    24060917.667
  20628380.467   -23989679.50949 -18401491.00847  20628380.270    20628386.198
  23800880.589    -9600479.10149  -7045178.75045  23800880.454    23800889.836
  20760779.309   -22315001.79549 -17074514.78647  20760778.792    20760783.645
  20958028.752   -21287712.42549 -16565685.92547  20958028.139    20958034.763
  24366599.155    -3513406.80649  -2719744.72745  24366598.486    24366610.203
  20409841.890   -23436923.96449 -18014026.59547  20409841.111    20409847.250
  21978455.154   -19041807.22649 -14521961.75147  21978454.782    21978462.284
 02  3  7  2 47 30.0000000  0 11G26G21G14G23G29G 9G18G17G31G15G 3
  24287198.965    -7155351.63749  -5564653.15545  24287198.992    24287207.738
  21359113.948   -20046880.24649 -15596241.63747  21359113.384    21359120.119
  22874211.376   -11697285.60849  -9100139.23046  22874210.814    22874219.743
  24075072.002    -2337280.22149  -1802625.01445  24075071.485    24075080.094
  20620183.096   -24032756.57349 -18435057.46447  20620182.895    20620188.825
  23790240.596    -9656392.41549  -7088747.40845  23790240.400    23790249.838
  20767306.041   -22280703.54149 -17047788.82647  20767305.514    20767310.332
  20964900.849   -21251599.07549 -16537545.63747  20964900.252    20964906.894
  24349888.672    -3601218.70049  -2788169.34145  24349888.094    24349899.574
  20413337.677   -23418553.34749 -17999711.80047  20413336.931    20413343.055
  21971372.125   -19079028.84949 -14550965.52947  21971371.736    21971379.095
 02  3  7  2 48  0.0000000  0 11G26G21G14G23G29G 9G18G17G31G15G 3
  24307690.591    -7047667.46649  -5480743.39445  24307690.496    24307699.234
  21354803.870   -20069529.41949 -15613890.27847  21354803.317    21354810.034
  22854447.531   -11801143.37049  -9181067.10646  22854447.036    22854456.036
  24089229.749    -2262880.86549  -1744651.50445  24089229.134    24089237.754
  20612083.486   -24075319.89349 -18468223.60247  20612083.272    20612089.171
  23779667.440    -9711954.19449  -7132042.13845  23779667.240    23779676.722
  20773877.720   -22246168.93049 -17020878.70247  20773877.194    20773881.986
  20971837.298   -21215147.64849 -16509141.90947  20971836.700    20971843.337
  24333239.765    -3688708.24649  -2856342.78345  24333239.100    24333250.135
  20416900.921   -23399828.38449 -17985120.87947  20416900.154    20416906.290
  21964390.920   -19115715.13849 -14579552.17147  21964390.499    21964397.863
 02  3  7  2 48 30.0000000  0 11G26G21G14G23G29G 9G18G17G31G15G 3
  24328221.151    -6939778.46849  -5396674.06545  24328221.153    24328229.949
  21350532.483   -20091975.54049 -15631380.69847  21350531.924    21350538.589
  22834728.799   -11904765.38249  -9261811.28346  22834728.287    22834737.208
  24103382.915    -2188505.55449  -1686696.72145  24103382.365    24103390.983
  20604082.142   -24117366.94849 -18500987.46247  20604081.941    20604087.759
  23769161.571    -9767159.85949  -7175059.37745  23769161.563    23769171.137
  20780494.494   -22211397.56449 -16993784.09747  20780493.973    20780498.705
  20978838.499   -21178356.14449 -16480473.18947  20978837.893    20978844.542
  24316653.229    -3775870.98649  -2924261.55945  24316652.402    24316663.085
  20420531.956   -23380746.93149 -17970252.17947  20420531.171    20420537.325
  21957511.993   -19151863.37449 -14607719.55247  21957511.611    21957519.073
 02  3  7  2 49  0.0000000  0 11G26G21G14G23G29G 9G18G17G31G15G 3
  24348789.845    -6831690.05649  -5312449.34645  24348789.733    24348798.578
  21346299.018   -20114222.35549 -15648715.81647  21346298.465    21346305.097
  22815054.897   -12008151.54449  -9342371.70646  22815054.347    22815063.223
  24117530.963    -2114157.33849  -1628763.03945  24117530.321    24117539.166
  20596178.783   -24158899.13149 -18533350.12047  20596178.582    20596184.395
  23758724.109    -9822008.73849  -7217798.63145  23758724.067    23758733.402
  20787155.586   -22176393.17849 -16966507.91047  20787155.052    20787159.768
  20985903.970   -21141226.49449 -16451540.97847  20985903.401    20985910.066
  24300129.037    -3862706.68149  -2991925.50545  24300128.141    24300138.624
  20424230.441   -23361310.98249 -17955107.24847  20424229.680    20424235.790
  21950735.349   -19187474.81249 -14635468.64147  21950734.962    21950742.403
 02  3  7  2 49 30.0000000  0 11G26G21G14G23G29G 9G18G17G31G15G 3
  24369395.921    -6723405.30449  -5228071.62545  24369395.928    24369404.363
  21342103.453   -20136269.96249 -15665895.70747  21342102.910    21342109.533
  22795426.259   -12111299.56549  -9422746.56846  22795425.795    22795434.558
  24131673.722    -2039836.80149  -1570850.92945  24131673.090    24131682.018
  20588373.510   -24199915.63049 -18565310.93847  20588373.316    20588379.132
  23748355.298    -9876498.13049  -7260257.76245  23748355.136    23748364.353
  20793860.687   -22141157.11149 -16939051.21047  20793860.190    20793864.914
  20993034.001   -21103758.18449 -16422344.87147  20993033.395    20993040.019
  24283667.429    -3949213.00949  -3059332.78945  24283666.488    24283677.058
  20427996.559   -23341519.72849 -17939685.45947  20427995.793    20428001.913
  21944061.040   -19222548.54349 -14662798.73547  21944060.603    21944067.963
 02  3  7  2 50  0.0000000  0 11G26G21G14G23G29G 9G18G17G31G15G 3
  24390038.973    -6614925.55049  -5143541.94845  24390038.907    24390047.211
  21337945.871   -20158117.73649 -15682919.88447  21337945.348    21337951.990
  22775843.887   -12214205.26049  -9502932.61346  22775843.362    22775852.046
  24145811.498    -1965542.81849  -1512959.50145  24145810.923    24145819.734
  20580666.920   -24240413.81149 -18596867.88047  20580666.711    20580672.516
  23738055.564    -9930623.55849  -7302433.27545  23738055.297    23738064.430
  20800610.009   -22105688.98249 -16911413.68847  20800609.528    20800614.300
  21000228.874   -21065949.04749 -16392883.18947  21000228.245    21000234.871
  24267269.113    -4035385.90349  -3126480.28445  24267268.141    24267278.752
  20431830.752   -23321370.92449 -17923985.06047  20431829.969    20431836.116
  21937489.542   -19257081.58649 -14689707.52447  21937489.143    21937496.460
 02  3  7  2 50 30.0000000  0 11G26G21G14G23G29G 9G18G17G31G15G 3
  24410718.505    -6506253.37049  -5058862.32845  24410718.720    24410727.071
  21333826.300   -20179766.04049 -15699788.63447  21333825.780    21333832.413
  22756307.918   -12316866.16649  -9582927.92446  22756307.377    22756316.073
  24159944.153    -1891275.80149  -1455089.10645  24159943.538    24159952.176
  20573059.145   -24280392.63949 -18628020.13747  20573058.938    20573064.749
  23727825.402    -9984382.00149  -7344322.81245  23727825.069    23727834.418
  20807403.299   -22069989.97749 -16883596.26047  20807402.805    20807407.564
  21007488.622   -21027798.51649 -16363155.48747  21007488.019    21007494.635
  24250934.479    -4121222.68149  -3193365.86045  24250933.309    24250944.432
  20435733.066   -23300863.84549 -17908005.48547  20435732.277    20435738.469
  21931021.179   -19291072.48949 -14716193.87047  21931020.810    21931028.149
 02  3  7  2 51  0.0000000  0 11G26G21G14G23G29G 9G18G17G31G15G 3
  24431434.014    -6397392.06249  -4974035.32545  24431434.170    24431442.689
  21329744.467   -20201215.96849 -15716502.80747  21329743.946    21329750.578
  22736818.953   -12419279.85749  -9662730.62246  22736818.508    22736827.057
  24174071.464    -1817036.55749  -1397240.34045  24174070.880    24174079.317
  20565550.308   -24319851.48849 -18658767.21347  20565550.106    20565555.881
  23717665.763   -10037770.72949  -7385924.27245  23717665.542    23717674.817
  20814240.221   -22034061.67349 -16855600.16347  20814239.692    20814244.464
  21014813.426   -20989306.43549 -16333161.65247  21014812.848    21014819.412
  24234664.182    -4206721.02649  -3259987.75045  24234663.192    24234674.715
  20439703.709   -23279997.92749 -17891746.29847  20439702.918    20439709.102
  21924656.149   -19324520.90149 -14742257.49947  21924655.787    21924663.074
 02  3  7  2 51 30.0000000  0 11G26G21G14G23G29G 9G18G17G31G15G 3
  24452184.873    -6288345.14849  -4889063.68045  24452184.905    24452193.714
  21325700.148   -20222468.73749 -15733063.35847  21325699.626    21325706.234
  22717377.603   -12521444.61849  -9742339.32346  22717377.107    22717385.535
  24188192.943    -1742826.17049  -1339414.08645  24188192.344    24188200.950
  20558140.447   -24358790.19349 -18689108.98347  20558140.256    20558146.007
  23707577.101   -10090787.59649  -7427235.98045  23707576.756    23707585.779
  20821120.382   -21997905.78649 -16827426.70947  20821119.859    20821124.645
  21022203.189   -20950472.91049 -16302901.75547  21022202.602    21022209.181
  24218458.748    -4291878.96649  -3326344.42745  24218458.141    24218469.394
  20443742.564   -23258773.34349 -17875207.62747  20443741.802    20443747.935
  21918394.474   -19357426.22049 -14767897.93047  21918394.072    21918401.299
 02  3  7  2 52  0.0000000  0 11G26G21G14G23G29G 9G18G17G31G15G 3
  24472970.546    -6179115.89849  -4803949.98945  24472970.486    24472979.257
  21321693.100   -20243525.42749 -15749471.12047  21321692.589    21321699.170
  22697983.905   -12623358.32049  -9821752.39946  22697983.383    22697991.854
  24202308.894    -1668645.64349  -1281611.07645  24202308.281    24202316.911
  20550829.712   -24397208.09149 -18719044.92547  20550829.527    20550835.238
  23697559.531   -10143429.96749  -7468255.88645  23697559.151    23697568.081
  20828043.538   -21961524.01149 -16799077.24047  20828043.046    20828047.857
  21029657.940   -20911297.89449 -16272375.75547  21029657.361    21029663.992
  24202318.769    -4376694.35849  -3392434.19845  24202318.273    24202329.257
  20447849.750   -23237189.93249 -17858389.35947  20447848.979    20447855.112
  21912236.201   -19389787.77249 -14793114.65447  21912235.785    21912243.013
 02  3  7  2 52 30.0000000  0 11G26G21G14G23G29G 9G18G17G31G15G 3
  24493790.724    -6069705.14149  -4718694.86145  24493790.761    24493799.252
  21317723.655   -20264384.67149 -15765725.02947  21317723.157    21317729.723
  22678638.746   -12725016.60449  -9900966.43646  22678638.256    22678646.696
  24216419.620    -1594493.32849  -1223830.02645  24216418.933    24216427.447
  20543618.642   -24435102.38649 -18748572.87147  20543618.439    20543624.082
  23687614.090   -10195692.62749  -7508979.89545  23687613.637    23687622.680
  20835009.856   -21924915.49649 -16770551.09647  20835009.383    20835014.162
  21037178.208   -20871778.66149 -16241581.53747  21037177.625    21037184.232
  24186245.063    -4461162.57649  -3458253.45945  24186244.471    24186255.295
  20452025.770   -23215244.60149 -17841289.06847  20452024.998    20452031.135
  21906181.975   -19421602.36149 -14817905.17747  21906181.596    21906188.816
 02  3  7  2 53  0.0000000  0 11G26G21G14G23G29G 9G18G17G31G15G 3
  24514644.371    -5960118.95049  -4633303.02845  24514644.514    24514652.906
  21313791.048   -20285050.51449 -15781828.23647  21313790.530    21313797.066
  22659342.086   -12826419.93449  -9979981.81246  22659341.645    22659350.087
  24230524.184    -1520373.02049  -1166073.96345  24230523.517    24230532.114
  20536506.759   -24472475.27849 -18777694.52547  20536506.563    20536512.172
  23677740.897   -10247576.06949  -7549408.43245  23677740.411    23677749.579
  20842018.568   -21888084.60749 -16741851.67547  20842018.081    20842022.824
  21044763.435   -20831917.97449 -16210521.25747  21044762.814    21044769.438
  24170237.252    -4545284.55549  -3523802.91845  24170236.693    24170247.237
  20456270.157   -23192939.96649 -17823908.80547  20456269.389    20456275.513
  21900231.556   -19452872.01849 -14842271.07047  21900231.166    21900238.368
 02  3  7  2 53 30.0000000  0 11G26G21G14G23G29G 9G18G17G31G15G 3
  24535531.210    -5850358.20449  -4547775.16945  24535531.424    24535539.668
  21309895.638   -20305521.06949 -15797779.27147  21309895.097    21309901.600
  22640094.837   -12927564.11349 -10058795.25846  22640094.389    22640102.815
  24244623.063    -1446283.31449  -1108341.70945  24244622.457    24244630.996
  20529494.580   -24509324.14449 -18806407.84847  20529494.387    20529499.986
  23667940.732   -10299075.55249  -7589537.77645  23667940.366    23667949.253
  20849069.726   -21851030.77049 -16712978.53447  20849069.210    20849073.923
  21052414.066   -20791713.62049 -16179193.17747  21052413.467    21052420.051
  24154296.246    -4629055.74149  -3589079.04945  24154295.599    24154306.071
  20460583.402   -23170273.69149 -17806246.74147  20460582.614    20460588.739
  21894385.281   -19483593.92049 -14866210.15447  21894384.893    21894392.086
 02  3  7  2 54  0.0000000  0 11G26G21G14G23G29G 9G18G17G31G15G 3
  24556450.963    -5740424.53349  -4462112.54845  24556451.053    24556459.253
  21306037.396   -20325796.45849 -15813578.22647  21306036.838    21306043.294
  22620897.813   -13028445.34649 -10137403.82546  22620897.298    22620905.559
  24258716.244    -1372223.24149  -1050632.56945  24258715.582    24258724.182
  20522582.493   -24545646.98349 -18834711.28047  20522582.302    20522587.874
  23658214.341   -10350187.05549  -7629364.78645  23658213.920    23658222.843
  20856163.247   -21813753.91449 -16683931.60947  20856162.729    20856167.459
  21060130.427   -20751163.92749 -16147596.00347  21060129.806    21060136.384
  24138422.519    -4712472.34749  -3654078.88445  24138421.879    24138432.360
  20464965.770   -23147243.89149 -17788301.41247  20464964.990    20464971.118
  21888643.739   -19513765.67049 -14889720.54347  21888643.387    21888650.493
 02  3  7  2 54 30.0000000  0 11G26G21G14G23G29G 9G18G17G31G15G 3
  24577402.328    -5630324.29349  -4376320.15345  24577402.369    24577410.438
  21302215.499   -20345880.36249 -15829227.96847  21302214.924    21302221.408
  22601750.499   -13129064.48549 -10215808.14946  22601749.945    22601758.124
  24272802.915    -1298196.75849   -992949.59845  24272802.379    24272811.013
  20515770.045   -24581446.47549 -18862606.91047  20515769.858    20515775.387
  23648561.767   -10400911.14749  -7668889.92945  23648561.233    23648570.157
  20863298.350   -21776258.48249 -16654714.35447  20863297.849    20863302.569
  21067911.962   -20710271.64649 -16115731.87747  21067911.319    21067917.946
  24122615.996    -4795535.40249  -3718803.21645  24122615.381    24122626.008
  20469416.862   -23123853.12749 -17770074.81047  20469416.078    20469422.242
  21883006.547   -19543389.67549 -14912804.12047  21883006.130    21883013.184
 02  3  7  2 55  0.0000000  0 11G26G21G14G23G29G 9G18G17G31G15G 3
  24598385.494    -5520056.58649  -4290397.28145  24598385.593    24598393.578
  21298430.711   -20365769.53849 -15844725.97647  21298430.124    21298436.603
  22582654.051   -13229415.56349 -10294003.57846  22582653.555    22582661.689
  24286884.027    -1224200.66549   -935290.31245  24286883.340    24286891.866
  20509058.022   -24616718.08149 -18890091.20047  20509057.835    20509063.387
  23638983.877   -10451241.27049  -7708108.07845  23638983.662    23638992.548
  20870475.494   -21738542.25549 -16625325.05747  20870475.021    20870479.702
  21075759.449   -20669032.72149 -16083597.65247  21075758.846    21075765.442
  24106877.933    -4878238.56149  -3783247.10145  24106877.376    24106887.965
  20473937.431   -23100097.00849 -17751563.52547  20473936.669    20473942.833
  21877474.250   -19572461.54149 -14935457.46147  21877473.820    21877480.949
 02  3  7  2 55 30.0000000  0 11G26G21G14G23G29G 9G18G17G31G15G 3
  24619399.418    -5409627.17949  -4204348.37545  24619399.595    24619407.725
  21294682.245   -20385467.56949 -15860075.03747  21294681.689    21294688.184
  22563608.565   -13329499.24449 -10371990.63546  22563608.050    22563616.243
  24300958.780    -1150238.48149   -877657.44345  24300957.957    24300966.351
  20502445.962   -24651464.15649 -18917165.98847  20502445.782    20502451.317
  23629481.425   -10501177.51449  -7747019.31145  23629481.230    23629490.041
  20877693.869   -21700609.43949 -16595766.98847  20877693.384    20877698.049
  21083672.440   -20627449.70449 -16051195.30647  21083671.828    21083678.446
  24091208.373    -4960582.28649  -3847410.89845  24091207.794    24091218.287
  20478527.058   -23075978.26649 -17732769.67347  20478526.311    20478532.443
  21872046.572   -19600983.18549 -14957682.06147  21872046.227    21872053.381
 02  3  7  2 56  0.0000000  0 11G26G21G14G23G29G 9G18G17G31G15G 3
  24640443.830    -5299037.48849  -4118174.60545  24640443.876    24640452.397
  21290970.236   -20404974.10449 -15875274.87947  21290969.658    21290976.164
  22544614.765   -13429311.31449 -10449766.05046  22544614.279    22544622.426
  24315027.091    -1076308.91049   -820049.98645  24315026.327    24315034.811
  20495934.470   -24685682.10849 -18943829.25347  20495934.280    20495939.803
  23620054.714   -10550715.68049  -7785620.36045  23620054.377    23620063.060
  20884953.563   -21662459.56149 -16566039.78447  20884953.038    20884957.683
  21091651.245   -20585520.65949 -16018523.31847  21091650.634    21091657.260
  24075607.879    -5042562.74249  -3911291.59545  24075607.264    24075617.645
  20483186.131   -23051494.93249 -17713691.71547  20483185.346    20483191.437
  21866724.252   -19628952.27149 -14979476.09447  21866723.892    21866730.959
